<?xml version="1.0" encoding="UTF-8" standalone="no" ?>
<gpx xmlns="http://www.topografix.com/GPX/1/1" xmlns:xsi="http://www.w3.org/2001/XMLSchema-instance" xsi:schemaLocation="http://www.topografix.com/GPX/1/1 http://www.topografix.com/GPX/1/1/gpx.xsd" version="1.1" creator="VisuGPX - https://www.visugpx.com">
  <metadata>
    <name>Ludwigswinkel, le sentier pieds-nus, Barfußpfad, et le chemin des sculptures, Skulpturenweg.</name>
    <desc><![CDATA[Départ au parking du Barfußpfad, le long de la route n°K43 à Ludwigswinkel. Le matin balade sur le chemin des sculptures, Skulpturenweg. Montée au rocher du Lindelskopf, belle arche et panorama sur les collines environnantes. Après l étang de Pfälzerwoog, retour vers Ludwigswinkel. Le chemin est jalonné de sculptures en bois d animaux forestiers et de la ferme. Après le repas de midi tiré du sac c est parti pour une balade pieds-nus pour masser le corps et l esprit sur une dizaine de  sols différents : sable, eau, gravillons, boue, herbe, pavés, etc.
http://www.clubvosgienbitche.fr/201607ludwigswinkel.html
]]></desc>
  </metadata>
  <trk>
    <name><![CDATA[Tracé 3 juil. 2016 09:13:09]]></name>
    <trkseg>
      <trkpt lat="49.07667" lon="7.67325">
        <ele>198.71294439686</ele>
        <time>2016-07-03T07:13:09Z</time>
      </trkpt>
      <trkpt lat="49.07681" lon="7.67311">
        <ele>242.49797082093</ele>
        <time>2016-07-03T07:13:14Z</time>
      </trkpt>
      <trkpt lat="49.07684" lon="7.673">
        <ele>248.30147761661</ele>
        <time>2016-07-03T07:13:18Z</time>
      </trkpt>
      <trkpt lat="49.07684" lon="7.673">
        <ele>249.4613114945</ele>
        <time>2016-07-03T07:13:22Z</time>
      </trkpt>
      <trkpt lat="49.0769" lon="7.67305">
        <ele>234.34915269926</ele>
        <time>2016-07-03T07:13:26Z</time>
      </trkpt>
      <trkpt lat="49.0769" lon="7.67305">
        <ele>231.62979151872</ele>
        <time>2016-07-03T07:13:30Z</time>
      </trkpt>
      <trkpt lat="49.07695" lon="7.67302">
        <ele>231.11332302383</ele>
        <time>2016-07-03T07:13:35Z</time>
      </trkpt>
      <trkpt lat="49.07695" lon="7.67302">
        <ele>237.57373491098</ele>
        <time>2016-07-03T07:14:00Z</time>
      </trkpt>
      <trkpt lat="49.07691" lon="7.67308">
        <ele>237.84881641475</ele>
        <time>2016-07-03T07:14:04Z</time>
      </trkpt>
      <trkpt lat="49.07691" lon="7.67308">
        <ele>240.95460862754</ele>
        <time>2016-07-03T07:18:10Z</time>
      </trkpt>
      <trkpt lat="49.07701" lon="7.6732">
        <ele>241.00944185047</ele>
        <time>2016-07-03T07:18:14Z</time>
      </trkpt>
      <trkpt lat="49.07704" lon="7.67321">
        <ele>240.70698473957</ele>
        <time>2016-07-03T07:19:23Z</time>
      </trkpt>
      <trkpt lat="49.07709" lon="7.67323">
        <ele>239.90910564462</ele>
        <time>2016-07-03T07:19:28Z</time>
      </trkpt>
      <trkpt lat="49.07715" lon="7.67326">
        <ele>239.34314589783</ele>
        <time>2016-07-03T07:19:33Z</time>
      </trkpt>
      <trkpt lat="49.07723" lon="7.67328">
        <ele>238.94248485991</ele>
        <time>2016-07-03T07:19:37Z</time>
      </trkpt>
      <trkpt lat="49.07731" lon="7.67332">
        <ele>238.61274538324</ele>
        <time>2016-07-03T07:19:42Z</time>
      </trkpt>
      <trkpt lat="49.07736" lon="7.67336">
        <ele>238.23162979648</ele>
        <time>2016-07-03T07:19:47Z</time>
      </trkpt>
      <trkpt lat="49.07739" lon="7.67339">
        <ele>238.35173471699</ele>
        <time>2016-07-03T07:20:07Z</time>
      </trkpt>
      <trkpt lat="49.07743" lon="7.67339">
        <ele>239.19404846609</ele>
        <time>2016-07-03T07:20:13Z</time>
      </trkpt>
      <trkpt lat="49.07748" lon="7.67352">
        <ele>240.09890739251</ele>
        <time>2016-07-03T07:20:17Z</time>
      </trkpt>
      <trkpt lat="49.07745" lon="7.67355">
        <ele>241.61935904084</ele>
        <time>2016-07-03T07:20:29Z</time>
      </trkpt>
      <trkpt lat="49.07746" lon="7.67361">
        <ele>240.87643622586</ele>
        <time>2016-07-03T07:20:35Z</time>
      </trkpt>
      <trkpt lat="49.07747" lon="7.67366">
        <ele>240.9162154576</ele>
        <time>2016-07-03T07:20:41Z</time>
      </trkpt>
      <trkpt lat="49.07749" lon="7.67372">
        <ele>240.41652647339</ele>
        <time>2016-07-03T07:20:45Z</time>
      </trkpt>
      <trkpt lat="49.07752" lon="7.67378">
        <ele>240.01257105773</ele>
        <time>2016-07-03T07:20:49Z</time>
      </trkpt>
      <trkpt lat="49.07756" lon="7.67382">
        <ele>239.34948468712</ele>
        <time>2016-07-03T07:20:53Z</time>
      </trkpt>
      <trkpt lat="49.0776" lon="7.67384">
        <ele>238.76903828434</ele>
        <time>2016-07-03T07:20:57Z</time>
      </trkpt>
      <trkpt lat="49.07763" lon="7.67387">
        <ele>237.81385741015</ele>
        <time>2016-07-03T07:21:01Z</time>
      </trkpt>
      <trkpt lat="49.0777" lon="7.67392">
        <ele>237.10613717873</ele>
        <time>2016-07-03T07:21:05Z</time>
      </trkpt>
      <trkpt lat="49.07776" lon="7.67394">
        <ele>236.60831780032</ele>
        <time>2016-07-03T07:21:09Z</time>
      </trkpt>
      <trkpt lat="49.07779" lon="7.67395">
        <ele>235.97898705908</ele>
        <time>2016-07-03T07:21:14Z</time>
      </trkpt>
      <trkpt lat="49.07783" lon="7.674">
        <ele>235.29393704569</ele>
        <time>2016-07-03T07:21:19Z</time>
      </trkpt>
      <trkpt lat="49.07783" lon="7.67405">
        <ele>236.40480120793</ele>
        <time>2016-07-03T07:21:30Z</time>
      </trkpt>
      <trkpt lat="49.07782" lon="7.67418">
        <ele>236.79093934356</ele>
        <time>2016-07-03T07:21:35Z</time>
      </trkpt>
      <trkpt lat="49.07782" lon="7.67425">
        <ele>236.13913057122</ele>
        <time>2016-07-03T07:21:45Z</time>
      </trkpt>
      <trkpt lat="49.07781" lon="7.67431">
        <ele>236.80919515054</ele>
        <time>2016-07-03T07:22:16Z</time>
      </trkpt>
      <trkpt lat="49.0778" lon="7.67436">
        <ele>237.28090424424</ele>
        <time>2016-07-03T07:22:21Z</time>
      </trkpt>
      <trkpt lat="49.07778" lon="7.67443">
        <ele>237.73687409504</ele>
        <time>2016-07-03T07:22:25Z</time>
      </trkpt>
      <trkpt lat="49.07774" lon="7.67449">
        <ele>237.33165623229</ele>
        <time>2016-07-03T07:22:29Z</time>
      </trkpt>
      <trkpt lat="49.07771" lon="7.67456">
        <ele>236.66345481131</ele>
        <time>2016-07-03T07:22:33Z</time>
      </trkpt>
      <trkpt lat="49.07768" lon="7.67462">
        <ele>236.21806225309</ele>
        <time>2016-07-03T07:22:37Z</time>
      </trkpt>
      <trkpt lat="49.07766" lon="7.67468">
        <ele>235.56653261129</ele>
        <time>2016-07-03T07:22:41Z</time>
      </trkpt>
      <trkpt lat="49.07765" lon="7.67475">
        <ele>235.13155129577</ele>
        <time>2016-07-03T07:22:45Z</time>
      </trkpt>
      <trkpt lat="49.07766" lon="7.67482">
        <ele>235.21009114326</ele>
        <time>2016-07-03T07:22:52Z</time>
      </trkpt>
      <trkpt lat="49.07763" lon="7.67491">
        <ele>236.08337112131</ele>
        <time>2016-07-03T07:22:57Z</time>
      </trkpt>
      <trkpt lat="49.07758" lon="7.67502">
        <ele>236.85114144181</ele>
        <time>2016-07-03T07:23:01Z</time>
      </trkpt>
      <trkpt lat="49.07756" lon="7.67511">
        <ele>237.63409136468</ele>
        <time>2016-07-03T07:23:05Z</time>
      </trkpt>
      <trkpt lat="49.07753" lon="7.67519">
        <ele>239.35943693494</ele>
        <time>2016-07-03T07:23:09Z</time>
      </trkpt>
      <trkpt lat="49.07742" lon="7.67534">
        <ele>241.33786644742</ele>
        <time>2016-07-03T07:23:13Z</time>
      </trkpt>
      <trkpt lat="49.07738" lon="7.67538">
        <ele>243.8320643532</ele>
        <time>2016-07-03T07:23:18Z</time>
      </trkpt>
      <trkpt lat="49.07736" lon="7.67543">
        <ele>246.44942855449</ele>
        <time>2016-07-03T07:23:25Z</time>
      </trkpt>
      <trkpt lat="49.07733" lon="7.67548">
        <ele>247.85923684525</ele>
        <time>2016-07-03T07:23:31Z</time>
      </trkpt>
      <trkpt lat="49.07731" lon="7.67553">
        <ele>248.08411372768</ele>
        <time>2016-07-03T07:23:36Z</time>
      </trkpt>
      <trkpt lat="49.07728" lon="7.67558">
        <ele>247.3647645868</ele>
        <time>2016-07-03T07:23:41Z</time>
      </trkpt>
      <trkpt lat="49.07726" lon="7.67564">
        <ele>246.21936438928</ele>
        <time>2016-07-03T07:23:45Z</time>
      </trkpt>
      <trkpt lat="49.07726" lon="7.67571">
        <ele>245.00672318334</ele>
        <time>2016-07-03T07:23:50Z</time>
      </trkpt>
      <trkpt lat="49.07726" lon="7.67575">
        <ele>244.464936705</ele>
        <time>2016-07-03T07:23:54Z</time>
      </trkpt>
      <trkpt lat="49.07722" lon="7.67584">
        <ele>244.15713575506</ele>
        <time>2016-07-03T07:23:59Z</time>
      </trkpt>
      <trkpt lat="49.07718" lon="7.67587">
        <ele>244.44846691643</ele>
        <time>2016-07-03T07:24:04Z</time>
      </trkpt>
      <trkpt lat="49.07714" lon="7.67589">
        <ele>244.86767529818</ele>
        <time>2016-07-03T07:24:09Z</time>
      </trkpt>
      <trkpt lat="49.07709" lon="7.67592">
        <ele>245.66682325694</ele>
        <time>2016-07-03T07:24:13Z</time>
      </trkpt>
      <trkpt lat="49.07705" lon="7.67595">
        <ele>246.41709960374</ele>
        <time>2016-07-03T07:24:19Z</time>
      </trkpt>
      <trkpt lat="49.07701" lon="7.67595">
        <ele>247.29420486781</ele>
        <time>2016-07-03T07:24:25Z</time>
      </trkpt>
      <trkpt lat="49.07696" lon="7.67593">
        <ele>247.03909130243</ele>
        <time>2016-07-03T07:24:32Z</time>
      </trkpt>
      <trkpt lat="49.07695" lon="7.67599">
        <ele>252.6430501363</ele>
        <time>2016-07-03T07:25:19Z</time>
      </trkpt>
      <trkpt lat="49.07693" lon="7.67604">
        <ele>254.83016119767</ele>
        <time>2016-07-03T07:25:25Z</time>
      </trkpt>
      <trkpt lat="49.07694" lon="7.67609">
        <ele>256.43957255564</ele>
        <time>2016-07-03T07:25:40Z</time>
      </trkpt>
      <trkpt lat="49.07698" lon="7.67613">
        <ele>256.83225668013</ele>
        <time>2016-07-03T07:26:08Z</time>
      </trkpt>
      <trkpt lat="49.077" lon="7.67609">
        <ele>255.10293105297</ele>
        <time>2016-07-03T07:26:43Z</time>
      </trkpt>
      <trkpt lat="49.07704" lon="7.67613">
        <ele>255.70007444139</ele>
        <time>2016-07-03T07:28:10Z</time>
      </trkpt>
      <trkpt lat="49.07707" lon="7.67621">
        <ele>254.79809154288</ele>
        <time>2016-07-03T07:28:14Z</time>
      </trkpt>
      <trkpt lat="49.0771" lon="7.67627">
        <ele>254.28889442199</ele>
        <time>2016-07-03T07:28:18Z</time>
      </trkpt>
      <trkpt lat="49.07715" lon="7.67633">
        <ele>253.55663487161</ele>
        <time>2016-07-03T07:28:23Z</time>
      </trkpt>
      <trkpt lat="49.07721" lon="7.6764">
        <ele>253.51273319981</ele>
        <time>2016-07-03T07:28:27Z</time>
      </trkpt>
      <trkpt lat="49.07728" lon="7.67647">
        <ele>254.11234541685</ele>
        <time>2016-07-03T07:28:31Z</time>
      </trkpt>
      <trkpt lat="49.07731" lon="7.67651">
        <ele>254.62393480341</ele>
        <time>2016-07-03T07:28:35Z</time>
      </trkpt>
      <trkpt lat="49.07735" lon="7.67655">
        <ele>255.14947801548</ele>
        <time>2016-07-03T07:28:42Z</time>
      </trkpt>
      <trkpt lat="49.07736" lon="7.6766">
        <ele>254.80292459805</ele>
        <time>2016-07-03T07:28:46Z</time>
      </trkpt>
      <trkpt lat="49.07743" lon="7.67665">
        <ele>254.62517976993</ele>
        <time>2016-07-03T07:28:51Z</time>
      </trkpt>
      <trkpt lat="49.07746" lon="7.6767">
        <ele>254.68357401216</ele>
        <time>2016-07-03T07:28:55Z</time>
      </trkpt>
      <trkpt lat="49.07749" lon="7.67675">
        <ele>255.05546284586</ele>
        <time>2016-07-03T07:29:02Z</time>
      </trkpt>
      <trkpt lat="49.07753" lon="7.6768">
        <ele>254.80511667677</ele>
        <time>2016-07-03T07:29:06Z</time>
      </trkpt>
      <trkpt lat="49.07757" lon="7.67684">
        <ele>254.27141950995</ele>
        <time>2016-07-03T07:29:11Z</time>
      </trkpt>
      <trkpt lat="49.0776" lon="7.6769">
        <ele>254.06773558755</ele>
        <time>2016-07-03T07:29:15Z</time>
      </trkpt>
      <trkpt lat="49.07762" lon="7.67696">
        <ele>254.23228397069</ele>
        <time>2016-07-03T07:29:20Z</time>
      </trkpt>
      <trkpt lat="49.07767" lon="7.677">
        <ele>255.13349147837</ele>
        <time>2016-07-03T07:29:25Z</time>
      </trkpt>
      <trkpt lat="49.07772" lon="7.67706">
        <ele>255.31892988443</ele>
        <time>2016-07-03T07:29:29Z</time>
      </trkpt>
      <trkpt lat="49.07778" lon="7.67712">
        <ele>255.00108276063</ele>
        <time>2016-07-03T07:29:34Z</time>
      </trkpt>
      <trkpt lat="49.07782" lon="7.67717">
        <ele>254.56415047979</ele>
        <time>2016-07-03T07:29:38Z</time>
      </trkpt>
      <trkpt lat="49.07787" lon="7.67723">
        <ele>254.21623540324</ele>
        <time>2016-07-03T07:29:42Z</time>
      </trkpt>
      <trkpt lat="49.0779" lon="7.67728">
        <ele>253.77742317892</ele>
        <time>2016-07-03T07:29:47Z</time>
      </trkpt>
      <trkpt lat="49.07793" lon="7.67734">
        <ele>253.98814649425</ele>
        <time>2016-07-03T07:29:51Z</time>
      </trkpt>
      <trkpt lat="49.07798" lon="7.67741">
        <ele>254.69541679172</ele>
        <time>2016-07-03T07:29:55Z</time>
      </trkpt>
      <trkpt lat="49.078" lon="7.67746">
        <ele>255.2259149837</ele>
        <time>2016-07-03T07:30:00Z</time>
      </trkpt>
      <trkpt lat="49.07804" lon="7.67754">
        <ele>255.17708060135</ele>
        <time>2016-07-03T07:30:04Z</time>
      </trkpt>
      <trkpt lat="49.07806" lon="7.67759">
        <ele>254.47046982229</ele>
        <time>2016-07-03T07:30:09Z</time>
      </trkpt>
      <trkpt lat="49.07809" lon="7.67765">
        <ele>253.6229756253</ele>
        <time>2016-07-03T07:30:14Z</time>
      </trkpt>
      <trkpt lat="49.07811" lon="7.6777">
        <ele>252.96116212097</ele>
        <time>2016-07-03T07:30:18Z</time>
      </trkpt>
      <trkpt lat="49.07812" lon="7.67765">
        <ele>251.04344889432</ele>
        <time>2016-07-03T07:30:30Z</time>
      </trkpt>
      <trkpt lat="49.07815" lon="7.67768">
        <ele>250.07122906387</ele>
        <time>2016-07-03T07:30:48Z</time>
      </trkpt>
      <trkpt lat="49.07819" lon="7.67781">
        <ele>250.35184989031</ele>
        <time>2016-07-03T07:30:52Z</time>
      </trkpt>
      <trkpt lat="49.0782" lon="7.6779">
        <ele>250.36119747799</ele>
        <time>2016-07-03T07:30:57Z</time>
      </trkpt>
      <trkpt lat="49.07824" lon="7.67797">
        <ele>250.54933275522</ele>
        <time>2016-07-03T07:31:02Z</time>
      </trkpt>
      <trkpt lat="49.07828" lon="7.67802">
        <ele>250.99243402954</ele>
        <time>2016-07-03T07:31:06Z</time>
      </trkpt>
      <trkpt lat="49.07832" lon="7.67807">
        <ele>251.49778936063</ele>
        <time>2016-07-03T07:31:11Z</time>
      </trkpt>
      <trkpt lat="49.07834" lon="7.67813">
        <ele>252.00141741634</ele>
        <time>2016-07-03T07:31:15Z</time>
      </trkpt>
      <trkpt lat="49.07838" lon="7.6782">
        <ele>252.91913085007</ele>
        <time>2016-07-03T07:31:19Z</time>
      </trkpt>
      <trkpt lat="49.07844" lon="7.67828">
        <ele>253.39895922725</ele>
        <time>2016-07-03T07:31:24Z</time>
      </trkpt>
      <trkpt lat="49.07848" lon="7.67834">
        <ele>253.81122263473</ele>
        <time>2016-07-03T07:31:29Z</time>
      </trkpt>
      <trkpt lat="49.07852" lon="7.67839">
        <ele>254.0060915392</ele>
        <time>2016-07-03T07:31:33Z</time>
      </trkpt>
      <trkpt lat="49.07855" lon="7.67846">
        <ele>254.01499401687</ele>
        <time>2016-07-03T07:31:38Z</time>
      </trkpt>
      <trkpt lat="49.07856" lon="7.67852">
        <ele>253.97279113354</ele>
        <time>2016-07-03T07:31:43Z</time>
      </trkpt>
      <trkpt lat="49.07858" lon="7.67856">
        <ele>254.29534941546</ele>
        <time>2016-07-03T07:31:47Z</time>
      </trkpt>
      <trkpt lat="49.07864" lon="7.67862">
        <ele>254.67871446673</ele>
        <time>2016-07-03T07:31:51Z</time>
      </trkpt>
      <trkpt lat="49.07867" lon="7.67866">
        <ele>255.20966113539</ele>
        <time>2016-07-03T07:31:58Z</time>
      </trkpt>
      <trkpt lat="49.07872" lon="7.67868">
        <ele>255.9758198077</ele>
        <time>2016-07-03T07:32:02Z</time>
      </trkpt>
      <trkpt lat="49.07876" lon="7.67871">
        <ele>256.44964338122</ele>
        <time>2016-07-03T07:32:06Z</time>
      </trkpt>
      <trkpt lat="49.0788" lon="7.67873">
        <ele>257.28141916399</ele>
        <time>2016-07-03T07:32:12Z</time>
      </trkpt>
      <trkpt lat="49.07884" lon="7.67881">
        <ele>257.75522681805</ele>
        <time>2016-07-03T07:32:16Z</time>
      </trkpt>
      <trkpt lat="49.07888" lon="7.67888">
        <ele>257.83968872148</ele>
        <time>2016-07-03T07:32:21Z</time>
      </trkpt>
      <trkpt lat="49.0789" lon="7.67894">
        <ele>257.8345809184</ele>
        <time>2016-07-03T07:32:25Z</time>
      </trkpt>
      <trkpt lat="49.07894" lon="7.67901">
        <ele>257.82251543432</ele>
        <time>2016-07-03T07:32:30Z</time>
      </trkpt>
      <trkpt lat="49.07897" lon="7.67903">
        <ele>258.19425135184</ele>
        <time>2016-07-03T07:32:34Z</time>
      </trkpt>
      <trkpt lat="49.07901" lon="7.6791">
        <ele>258.88762074889</ele>
        <time>2016-07-03T07:32:39Z</time>
      </trkpt>
      <trkpt lat="49.07905" lon="7.67917">
        <ele>259.15587580604</ele>
        <time>2016-07-03T07:32:43Z</time>
      </trkpt>
      <trkpt lat="49.07906" lon="7.67923">
        <ele>259.7221151094</ele>
        <time>2016-07-03T07:32:50Z</time>
      </trkpt>
      <trkpt lat="49.07907" lon="7.67929">
        <ele>260.39008181516</ele>
        <time>2016-07-03T07:32:55Z</time>
      </trkpt>
      <trkpt lat="49.07909" lon="7.67934">
        <ele>260.37413283537</ele>
        <time>2016-07-03T07:32:59Z</time>
      </trkpt>
      <trkpt lat="49.07912" lon="7.67939">
        <ele>260.38575686169</ele>
        <time>2016-07-03T07:33:04Z</time>
      </trkpt>
      <trkpt lat="49.07915" lon="7.67944">
        <ele>260.33342715413</ele>
        <time>2016-07-03T07:33:08Z</time>
      </trkpt>
      <trkpt lat="49.07918" lon="7.67951">
        <ele>259.56263816259</ele>
        <time>2016-07-03T07:33:12Z</time>
      </trkpt>
      <trkpt lat="49.07926" lon="7.6796">
        <ele>258.82695411554</ele>
        <time>2016-07-03T07:33:17Z</time>
      </trkpt>
      <trkpt lat="49.07929" lon="7.67964">
        <ele>258.48125419247</ele>
        <time>2016-07-03T07:33:23Z</time>
      </trkpt>
      <trkpt lat="49.07933" lon="7.67968">
        <ele>258.48386225362</ele>
        <time>2016-07-03T07:33:28Z</time>
      </trkpt>
      <trkpt lat="49.07939" lon="7.67972">
        <ele>258.05966488415</ele>
        <time>2016-07-03T07:33:33Z</time>
      </trkpt>
      <trkpt lat="49.07941" lon="7.67978">
        <ele>257.49964799054</ele>
        <time>2016-07-03T07:33:37Z</time>
      </trkpt>
      <trkpt lat="49.07946" lon="7.67982">
        <ele>257.05235471188</ele>
        <time>2016-07-03T07:33:41Z</time>
      </trkpt>
      <trkpt lat="49.07949" lon="7.67988">
        <ele>256.61268131351</ele>
        <time>2016-07-03T07:33:45Z</time>
      </trkpt>
      <trkpt lat="49.07955" lon="7.67997">
        <ele>256.20490224924</ele>
        <time>2016-07-03T07:33:49Z</time>
      </trkpt>
      <trkpt lat="49.0796" lon="7.68001">
        <ele>255.25421661873</ele>
        <time>2016-07-03T07:33:54Z</time>
      </trkpt>
      <trkpt lat="49.07962" lon="7.68007">
        <ele>255.05261934353</ele>
        <time>2016-07-03T07:33:58Z</time>
      </trkpt>
      <trkpt lat="49.07964" lon="7.68011">
        <ele>255.11816420861</ele>
        <time>2016-07-03T07:34:02Z</time>
      </trkpt>
      <trkpt lat="49.07967" lon="7.68015">
        <ele>255.14485904366</ele>
        <time>2016-07-03T07:34:06Z</time>
      </trkpt>
      <trkpt lat="49.07975" lon="7.6802">
        <ele>254.91657967291</ele>
        <time>2016-07-03T07:34:11Z</time>
      </trkpt>
      <trkpt lat="49.0798" lon="7.68025">
        <ele>254.65214520835</ele>
        <time>2016-07-03T07:34:15Z</time>
      </trkpt>
      <trkpt lat="49.07983" lon="7.68031">
        <ele>254.51913791768</ele>
        <time>2016-07-03T07:34:20Z</time>
      </trkpt>
      <trkpt lat="49.07984" lon="7.68038">
        <ele>254.93013946214</ele>
        <time>2016-07-03T07:34:25Z</time>
      </trkpt>
      <trkpt lat="49.07985" lon="7.68044">
        <ele>255.43895393979</ele>
        <time>2016-07-03T07:34:30Z</time>
      </trkpt>
      <trkpt lat="49.07986" lon="7.68049">
        <ele>255.73476503841</ele>
        <time>2016-07-03T07:34:34Z</time>
      </trkpt>
      <trkpt lat="49.07988" lon="7.68057">
        <ele>255.91768155594</ele>
        <time>2016-07-03T07:34:38Z</time>
      </trkpt>
      <trkpt lat="49.07991" lon="7.68063">
        <ele>256.18959604021</ele>
        <time>2016-07-03T07:34:43Z</time>
      </trkpt>
      <trkpt lat="49.07994" lon="7.68068">
        <ele>256.49572764322</ele>
        <time>2016-07-03T07:35:09Z</time>
      </trkpt>
      <trkpt lat="49.07997" lon="7.68075">
        <ele>257.12286764664</ele>
        <time>2016-07-03T07:35:13Z</time>
      </trkpt>
      <trkpt lat="49.08003" lon="7.68081">
        <ele>257.43722514881</ele>
        <time>2016-07-03T07:35:17Z</time>
      </trkpt>
      <trkpt lat="49.08008" lon="7.68088">
        <ele>257.25278577569</ele>
        <time>2016-07-03T07:35:21Z</time>
      </trkpt>
      <trkpt lat="49.08013" lon="7.68093">
        <ele>257.56235484335</ele>
        <time>2016-07-03T07:35:25Z</time>
      </trkpt>
      <trkpt lat="49.08015" lon="7.68102">
        <ele>257.91398381133</ele>
        <time>2016-07-03T07:35:30Z</time>
      </trkpt>
      <trkpt lat="49.08016" lon="7.68108">
        <ele>258.09673484459</ele>
        <time>2016-07-03T07:35:34Z</time>
      </trkpt>
      <trkpt lat="49.08017" lon="7.68115">
        <ele>258.22505135638</ele>
        <time>2016-07-03T07:35:39Z</time>
      </trkpt>
      <trkpt lat="49.0802" lon="7.6812">
        <ele>258.53978878645</ele>
        <time>2016-07-03T07:35:47Z</time>
      </trkpt>
      <trkpt lat="49.08025" lon="7.68126">
        <ele>258.62673982476</ele>
        <time>2016-07-03T07:35:51Z</time>
      </trkpt>
      <trkpt lat="49.08028" lon="7.68132">
        <ele>258.82024295692</ele>
        <time>2016-07-03T07:35:55Z</time>
      </trkpt>
      <trkpt lat="49.08032" lon="7.68138">
        <ele>259.10273849454</ele>
        <time>2016-07-03T07:36:00Z</time>
      </trkpt>
      <trkpt lat="49.08035" lon="7.68143">
        <ele>259.6928493353</ele>
        <time>2016-07-03T07:36:04Z</time>
      </trkpt>
      <trkpt lat="49.08037" lon="7.68148">
        <ele>259.94603193519</ele>
        <time>2016-07-03T07:36:09Z</time>
      </trkpt>
      <trkpt lat="49.08041" lon="7.68157">
        <ele>260.50281026167</ele>
        <time>2016-07-03T07:36:14Z</time>
      </trkpt>
      <trkpt lat="49.08043" lon="7.68162">
        <ele>260.84616317859</ele>
        <time>2016-07-03T07:36:18Z</time>
      </trkpt>
      <trkpt lat="49.08047" lon="7.68173">
        <ele>261.25165033277</ele>
        <time>2016-07-03T07:36:22Z</time>
      </trkpt>
      <trkpt lat="49.08052" lon="7.68178">
        <ele>261.76544598778</ele>
        <time>2016-07-03T07:36:27Z</time>
      </trkpt>
      <trkpt lat="49.08053" lon="7.68187">
        <ele>262.08038460059</ele>
        <time>2016-07-03T07:36:31Z</time>
      </trkpt>
      <trkpt lat="49.0805" lon="7.68192">
        <ele>261.73719770237</ele>
        <time>2016-07-03T07:36:39Z</time>
      </trkpt>
      <trkpt lat="49.08047" lon="7.68193">
        <ele>261.6113520469</ele>
        <time>2016-07-03T07:36:42Z</time>
      </trkpt>
      <trkpt lat="49.08042" lon="7.68194">
        <ele>261.42925964886</ele>
        <time>2016-07-03T07:36:46Z</time>
      </trkpt>
      <trkpt lat="49.08038" lon="7.68193">
        <ele>261.92184348429</ele>
        <time>2016-07-03T07:36:54Z</time>
      </trkpt>
      <trkpt lat="49.08035" lon="7.68195">
        <ele>262.36362379352</ele>
        <time>2016-07-03T07:37:01Z</time>
      </trkpt>
      <trkpt lat="49.08032" lon="7.68191">
        <ele>262.82140778483</ele>
        <time>2016-07-03T07:37:05Z</time>
      </trkpt>
      <trkpt lat="49.08028" lon="7.68189">
        <ele>263.07858208191</ele>
        <time>2016-07-03T07:37:09Z</time>
      </trkpt>
      <trkpt lat="49.08024" lon="7.68191">
        <ele>262.97828230215</ele>
        <time>2016-07-03T07:37:17Z</time>
      </trkpt>
      <trkpt lat="49.08022" lon="7.68195">
        <ele>262.81179709265</ele>
        <time>2016-07-03T07:37:21Z</time>
      </trkpt>
      <trkpt lat="49.08013" lon="7.68198">
        <ele>263.09522164766</ele>
        <time>2016-07-03T07:37:25Z</time>
      </trkpt>
      <trkpt lat="49.08009" lon="7.68198">
        <ele>263.16922532066</ele>
        <time>2016-07-03T07:37:30Z</time>
      </trkpt>
      <trkpt lat="49.08004" lon="7.68197">
        <ele>263.04323392862</ele>
        <time>2016-07-03T07:37:36Z</time>
      </trkpt>
      <trkpt lat="49.08" lon="7.68199">
        <ele>262.82453517965</ele>
        <time>2016-07-03T07:37:40Z</time>
      </trkpt>
      <trkpt lat="49.07995" lon="7.68202">
        <ele>262.06746185748</ele>
        <time>2016-07-03T07:37:45Z</time>
      </trkpt>
      <trkpt lat="49.07991" lon="7.68204">
        <ele>261.26858103176</ele>
        <time>2016-07-03T07:37:49Z</time>
      </trkpt>
      <trkpt lat="49.07987" lon="7.68207">
        <ele>261.0064651682</ele>
        <time>2016-07-03T07:37:53Z</time>
      </trkpt>
      <trkpt lat="49.07982" lon="7.68209">
        <ele>260.74713739835</ele>
        <time>2016-07-03T07:37:58Z</time>
      </trkpt>
      <trkpt lat="49.07978" lon="7.6821">
        <ele>260.0601222386</ele>
        <time>2016-07-03T07:38:03Z</time>
      </trkpt>
      <trkpt lat="49.07974" lon="7.68212">
        <ele>259.54879515238</ele>
        <time>2016-07-03T07:38:08Z</time>
      </trkpt>
      <trkpt lat="49.0797" lon="7.68209">
        <ele>259.51485237808</ele>
        <time>2016-07-03T07:38:13Z</time>
      </trkpt>
      <trkpt lat="49.07967" lon="7.68207">
        <ele>259.72192433953</ele>
        <time>2016-07-03T07:38:18Z</time>
      </trkpt>
      <trkpt lat="49.07963" lon="7.68203">
        <ele>259.92627527132</ele>
        <time>2016-07-03T07:38:23Z</time>
      </trkpt>
      <trkpt lat="49.0796" lon="7.68198">
        <ele>260.40638607852</ele>
        <time>2016-07-03T07:38:27Z</time>
      </trkpt>
      <trkpt lat="49.07959" lon="7.68191">
        <ele>261.26690903831</ele>
        <time>2016-07-03T07:38:32Z</time>
      </trkpt>
      <trkpt lat="49.07958" lon="7.68185">
        <ele>261.67548293943</ele>
        <time>2016-07-03T07:38:36Z</time>
      </trkpt>
      <trkpt lat="49.07951" lon="7.68178">
        <ele>262.67969327705</ele>
        <time>2016-07-03T07:38:41Z</time>
      </trkpt>
      <trkpt lat="49.07948" lon="7.68174">
        <ele>263.25652720886</ele>
        <time>2016-07-03T07:38:45Z</time>
      </trkpt>
      <trkpt lat="49.07946" lon="7.68168">
        <ele>264.49410833993</ele>
        <time>2016-07-03T07:38:51Z</time>
      </trkpt>
      <trkpt lat="49.07943" lon="7.68164">
        <ele>265.63544770399</ele>
        <time>2016-07-03T07:38:56Z</time>
      </trkpt>
      <trkpt lat="49.07941" lon="7.68159">
        <ele>267.29618635686</ele>
        <time>2016-07-03T07:39:05Z</time>
      </trkpt>
      <trkpt lat="49.07938" lon="7.68153">
        <ele>268.1872561637</ele>
        <time>2016-07-03T07:39:09Z</time>
      </trkpt>
      <trkpt lat="49.07933" lon="7.68148">
        <ele>269.0637739192</ele>
        <time>2016-07-03T07:39:14Z</time>
      </trkpt>
      <trkpt lat="49.07929" lon="7.68142">
        <ele>269.55703948083</ele>
        <time>2016-07-03T07:39:19Z</time>
      </trkpt>
      <trkpt lat="49.07926" lon="7.68147">
        <ele>268.85857974835</ele>
        <time>2016-07-03T07:39:29Z</time>
      </trkpt>
      <trkpt lat="49.07923" lon="7.68142">
        <ele>268.16453767768</ele>
        <time>2016-07-03T07:39:54Z</time>
      </trkpt>
      <trkpt lat="49.07918" lon="7.68139">
        <ele>267.92722067537</ele>
        <time>2016-07-03T07:39:58Z</time>
      </trkpt>
      <trkpt lat="49.07915" lon="7.68137">
        <ele>267.66711721428</ele>
        <time>2016-07-03T07:40:02Z</time>
      </trkpt>
      <trkpt lat="49.07912" lon="7.68142">
        <ele>267.46665062891</ele>
        <time>2016-07-03T07:40:08Z</time>
      </trkpt>
      <trkpt lat="49.07909" lon="7.68147">
        <ele>266.99841388354</ele>
        <time>2016-07-03T07:40:17Z</time>
      </trkpt>
      <trkpt lat="49.07909" lon="7.68153">
        <ele>266.07193258967</ele>
        <time>2016-07-03T07:40:22Z</time>
      </trkpt>
      <trkpt lat="49.07907" lon="7.68148">
        <ele>266.06879912744</ele>
        <time>2016-07-03T07:40:37Z</time>
      </trkpt>
      <trkpt lat="49.07905" lon="7.68141">
        <ele>266.74507795995</ele>
        <time>2016-07-03T07:40:41Z</time>
      </trkpt>
      <trkpt lat="49.07904" lon="7.68132">
        <ele>267.07508666835</ele>
        <time>2016-07-03T07:40:46Z</time>
      </trkpt>
      <trkpt lat="49.07901" lon="7.68128">
        <ele>267.73130901376</ele>
        <time>2016-07-03T07:40:52Z</time>
      </trkpt>
      <trkpt lat="49.07897" lon="7.68125">
        <ele>267.84847827447</ele>
        <time>2016-07-03T07:40:57Z</time>
      </trkpt>
      <trkpt lat="49.0789" lon="7.68119">
        <ele>268.17424519495</ele>
        <time>2016-07-03T07:41:01Z</time>
      </trkpt>
      <trkpt lat="49.07885" lon="7.68116">
        <ele>268.4620280382</ele>
        <time>2016-07-03T07:41:05Z</time>
      </trkpt>
      <trkpt lat="49.07881" lon="7.68115">
        <ele>268.51204905813</ele>
        <time>2016-07-03T07:41:10Z</time>
      </trkpt>
      <trkpt lat="49.07877" lon="7.68113">
        <ele>268.25452539737</ele>
        <time>2016-07-03T07:41:15Z</time>
      </trkpt>
      <trkpt lat="49.07871" lon="7.6811">
        <ele>267.85944883035</ele>
        <time>2016-07-03T07:41:19Z</time>
      </trkpt>
      <trkpt lat="49.07868" lon="7.68104">
        <ele>267.75006936253</ele>
        <time>2016-07-03T07:41:23Z</time>
      </trkpt>
      <trkpt lat="49.07865" lon="7.681">
        <ele>267.82319370728</ele>
        <time>2016-07-03T07:41:28Z</time>
      </trkpt>
      <trkpt lat="49.07862" lon="7.68093">
        <ele>267.91185923055</ele>
        <time>2016-07-03T07:41:32Z</time>
      </trkpt>
      <trkpt lat="49.07858" lon="7.68091">
        <ele>268.24833394055</ele>
        <time>2016-07-03T07:41:37Z</time>
      </trkpt>
      <trkpt lat="49.07853" lon="7.68086">
        <ele>268.48333446177</ele>
        <time>2016-07-03T07:41:41Z</time>
      </trkpt>
      <trkpt lat="49.07849" lon="7.68084">
        <ele>268.66818089096</ele>
        <time>2016-07-03T07:41:46Z</time>
      </trkpt>
      <trkpt lat="49.07844" lon="7.68081">
        <ele>269.2602966462</ele>
        <time>2016-07-03T07:41:51Z</time>
      </trkpt>
      <trkpt lat="49.0784" lon="7.68079">
        <ele>269.38317082858</ele>
        <time>2016-07-03T07:41:55Z</time>
      </trkpt>
      <trkpt lat="49.07835" lon="7.68076">
        <ele>269.36252491962</ele>
        <time>2016-07-03T07:41:59Z</time>
      </trkpt>
      <trkpt lat="49.0783" lon="7.68074">
        <ele>269.59211731773</ele>
        <time>2016-07-03T07:42:04Z</time>
      </trkpt>
      <trkpt lat="49.07826" lon="7.68076">
        <ele>269.57967869877</ele>
        <time>2016-07-03T07:42:10Z</time>
      </trkpt>
      <trkpt lat="49.07822" lon="7.68076">
        <ele>269.69628498284</ele>
        <time>2016-07-03T07:42:16Z</time>
      </trkpt>
      <trkpt lat="49.07818" lon="7.68076">
        <ele>269.57390376799</ele>
        <time>2016-07-03T07:42:21Z</time>
      </trkpt>
      <trkpt lat="49.07814" lon="7.68075">
        <ele>269.41071684512</ele>
        <time>2016-07-03T07:42:25Z</time>
      </trkpt>
      <trkpt lat="49.07809" lon="7.68075">
        <ele>269.12567208243</ele>
        <time>2016-07-03T07:42:29Z</time>
      </trkpt>
      <trkpt lat="49.07804" lon="7.68076">
        <ele>268.51120484147</ele>
        <time>2016-07-03T07:42:34Z</time>
      </trkpt>
      <trkpt lat="49.07801" lon="7.68077">
        <ele>268.15485324073</ele>
        <time>2016-07-03T07:42:38Z</time>
      </trkpt>
      <trkpt lat="49.07794" lon="7.68076">
        <ele>268.07164388664</ele>
        <time>2016-07-03T07:42:43Z</time>
      </trkpt>
      <trkpt lat="49.0779" lon="7.68075">
        <ele>267.60368817107</ele>
        <time>2016-07-03T07:42:47Z</time>
      </trkpt>
      <trkpt lat="49.07785" lon="7.68074">
        <ele>266.94861625714</ele>
        <time>2016-07-03T07:42:51Z</time>
      </trkpt>
      <trkpt lat="49.0778" lon="7.68073">
        <ele>266.40057628962</ele>
        <time>2016-07-03T07:42:55Z</time>
      </trkpt>
      <trkpt lat="49.0777" lon="7.68075">
        <ele>266.6083974251</ele>
        <time>2016-07-03T07:42:59Z</time>
      </trkpt>
      <trkpt lat="49.07768" lon="7.68074">
        <ele>267.72602293495</ele>
        <time>2016-07-03T07:43:04Z</time>
      </trkpt>
      <trkpt lat="49.07764" lon="7.68074">
        <ele>268.73034213889</ele>
        <time>2016-07-03T07:43:08Z</time>
      </trkpt>
      <trkpt lat="49.07758" lon="7.68072">
        <ele>269.46676135267</ele>
        <time>2016-07-03T07:43:12Z</time>
      </trkpt>
      <trkpt lat="49.07754" lon="7.68071">
        <ele>272.02369276148</ele>
        <time>2016-07-03T07:43:28Z</time>
      </trkpt>
      <trkpt lat="49.07747" lon="7.68073">
        <ele>273.35973504033</ele>
        <time>2016-07-03T07:43:33Z</time>
      </trkpt>
      <trkpt lat="49.07744" lon="7.68076">
        <ele>274.06069493987</ele>
        <time>2016-07-03T07:43:40Z</time>
      </trkpt>
      <trkpt lat="49.0774" lon="7.68079">
        <ele>272.6299846747</ele>
        <time>2016-07-03T07:43:47Z</time>
      </trkpt>
      <trkpt lat="49.07739" lon="7.68086">
        <ele>271.57753575091</ele>
        <time>2016-07-03T07:43:51Z</time>
      </trkpt>
      <trkpt lat="49.07734" lon="7.68092">
        <ele>269.49980206696</ele>
        <time>2016-07-03T07:43:56Z</time>
      </trkpt>
      <trkpt lat="49.07731" lon="7.68095">
        <ele>268.41429509557</ele>
        <time>2016-07-03T07:44:01Z</time>
      </trkpt>
      <trkpt lat="49.07728" lon="7.68101">
        <ele>268.24172778087</ele>
        <time>2016-07-03T07:44:06Z</time>
      </trkpt>
      <trkpt lat="49.07725" lon="7.68105">
        <ele>269.50741779168</ele>
        <time>2016-07-03T07:44:14Z</time>
      </trkpt>
      <trkpt lat="49.07722" lon="7.68111">
        <ele>270.15151225401</ele>
        <time>2016-07-03T07:44:18Z</time>
      </trkpt>
      <trkpt lat="49.07716" lon="7.68116">
        <ele>271.23276174536</ele>
        <time>2016-07-03T07:44:23Z</time>
      </trkpt>
      <trkpt lat="49.07713" lon="7.6812">
        <ele>271.55487931155</ele>
        <time>2016-07-03T07:44:29Z</time>
      </trkpt>
      <trkpt lat="49.07711" lon="7.68123">
        <ele>272.02982648926</ele>
        <time>2016-07-03T07:44:34Z</time>
      </trkpt>
      <trkpt lat="49.07704" lon="7.68127">
        <ele>272.48969240687</ele>
        <time>2016-07-03T07:44:38Z</time>
      </trkpt>
      <trkpt lat="49.07699" lon="7.68131">
        <ele>272.99877675207</ele>
        <time>2016-07-03T07:44:42Z</time>
      </trkpt>
      <trkpt lat="49.07687" lon="7.68148">
        <ele>273.34607157424</ele>
        <time>2016-07-03T07:44:47Z</time>
      </trkpt>
      <trkpt lat="49.07684" lon="7.68154">
        <ele>273.38065551181</ele>
        <time>2016-07-03T07:44:51Z</time>
      </trkpt>
      <trkpt lat="49.07679" lon="7.68158">
        <ele>272.92723337876</ele>
        <time>2016-07-03T07:44:56Z</time>
      </trkpt>
      <trkpt lat="49.07672" lon="7.68163">
        <ele>272.3784894504</ele>
        <time>2016-07-03T07:45:01Z</time>
      </trkpt>
      <trkpt lat="49.07665" lon="7.68165">
        <ele>270.99064126796</ele>
        <time>2016-07-03T07:45:06Z</time>
      </trkpt>
      <trkpt lat="49.07661" lon="7.68166">
        <ele>271.04938216998</ele>
        <time>2016-07-03T07:45:10Z</time>
      </trkpt>
      <trkpt lat="49.07655" lon="7.68167">
        <ele>271.40448961487</ele>
        <time>2016-07-03T07:45:14Z</time>
      </trkpt>
      <trkpt lat="49.0765" lon="7.68167">
        <ele>272.25419854076</ele>
        <time>2016-07-03T07:45:18Z</time>
      </trkpt>
      <trkpt lat="49.07643" lon="7.68169">
        <ele>273.47845110075</ele>
        <time>2016-07-03T07:45:23Z</time>
      </trkpt>
      <trkpt lat="49.07637" lon="7.68167">
        <ele>274.30976559907</ele>
        <time>2016-07-03T07:45:27Z</time>
      </trkpt>
      <trkpt lat="49.07632" lon="7.68166">
        <ele>274.65964307466</ele>
        <time>2016-07-03T07:45:31Z</time>
      </trkpt>
      <trkpt lat="49.07628" lon="7.68162">
        <ele>274.95226099966</ele>
        <time>2016-07-03T07:45:35Z</time>
      </trkpt>
      <trkpt lat="49.07624" lon="7.68159">
        <ele>275.4526271344</ele>
        <time>2016-07-03T07:45:39Z</time>
      </trkpt>
      <trkpt lat="49.07621" lon="7.68155">
        <ele>275.80794666638</ele>
        <time>2016-07-03T07:45:46Z</time>
      </trkpt>
      <trkpt lat="49.07618" lon="7.6815">
        <ele>276.8397008246</ele>
        <time>2016-07-03T07:45:54Z</time>
      </trkpt>
      <trkpt lat="49.07615" lon="7.68145">
        <ele>277.52075991454</ele>
        <time>2016-07-03T07:46:00Z</time>
      </trkpt>
      <trkpt lat="49.07612" lon="7.68141">
        <ele>279.25658899877</ele>
        <time>2016-07-03T07:46:10Z</time>
      </trkpt>
      <trkpt lat="49.07606" lon="7.68134">
        <ele>280.90355760525</ele>
        <time>2016-07-03T07:46:15Z</time>
      </trkpt>
      <trkpt lat="49.07603" lon="7.68131">
        <ele>281.83655469267</ele>
        <time>2016-07-03T07:46:19Z</time>
      </trkpt>
      <trkpt lat="49.07598" lon="7.68124">
        <ele>282.72200472946</ele>
        <time>2016-07-03T07:46:24Z</time>
      </trkpt>
      <trkpt lat="49.07596" lon="7.68119">
        <ele>283.55921044981</ele>
        <time>2016-07-03T07:46:30Z</time>
      </trkpt>
      <trkpt lat="49.07593" lon="7.68114">
        <ele>283.72690245399</ele>
        <time>2016-07-03T07:46:35Z</time>
      </trkpt>
      <trkpt lat="49.07589" lon="7.68109">
        <ele>283.89535970202</ele>
        <time>2016-07-03T07:46:40Z</time>
      </trkpt>
      <trkpt lat="49.07587" lon="7.68104">
        <ele>284.70580717708</ele>
        <time>2016-07-03T07:46:51Z</time>
      </trkpt>
      <trkpt lat="49.07582" lon="7.68098">
        <ele>285.22453629953</ele>
        <time>2016-07-03T07:46:56Z</time>
      </trkpt>
      <trkpt lat="49.0758" lon="7.68093">
        <ele>286.55730322466</ele>
        <time>2016-07-03T07:47:03Z</time>
      </trkpt>
      <trkpt lat="49.07583" lon="7.68091">
        <ele>289.24619076266</ele>
        <time>2016-07-03T07:47:31Z</time>
      </trkpt>
      <trkpt lat="49.07587" lon="7.68089">
        <ele>290.64311382874</ele>
        <time>2016-07-03T07:47:37Z</time>
      </trkpt>
      <trkpt lat="49.07591" lon="7.68089">
        <ele>293.16017459405</ele>
        <time>2016-07-03T07:47:51Z</time>
      </trkpt>
      <trkpt lat="49.07595" lon="7.68087">
        <ele>294.26695560556</ele>
        <time>2016-07-03T07:47:56Z</time>
      </trkpt>
      <trkpt lat="49.07599" lon="7.68084">
        <ele>295.15490348939</ele>
        <time>2016-07-03T07:48:01Z</time>
      </trkpt>
      <trkpt lat="49.07598" lon="7.68078">
        <ele>293.81800994792</ele>
        <time>2016-07-03T07:48:18Z</time>
      </trkpt>
      <trkpt lat="49.07595" lon="7.68067">
        <ele>292.90678226675</ele>
        <time>2016-07-03T07:48:23Z</time>
      </trkpt>
      <trkpt lat="49.07594" lon="7.68062">
        <ele>292.39826414453</ele>
        <time>2016-07-03T07:48:30Z</time>
      </trkpt>
      <trkpt lat="49.07591" lon="7.68056">
        <ele>291.85365441443</ele>
        <time>2016-07-03T07:48:34Z</time>
      </trkpt>
      <trkpt lat="49.0759" lon="7.68053">
        <ele>293.84116514409</ele>
        <time>2016-07-03T07:48:52Z</time>
      </trkpt>
      <trkpt lat="49.07583" lon="7.68047">
        <ele>295.13051549714</ele>
        <time>2016-07-03T07:48:57Z</time>
      </trkpt>
      <trkpt lat="49.07581" lon="7.68041">
        <ele>297.3787384844</ele>
        <time>2016-07-03T07:49:03Z</time>
      </trkpt>
      <trkpt lat="49.07575" lon="7.68033">
        <ele>298.68564177793</ele>
        <time>2016-07-03T07:49:07Z</time>
      </trkpt>
      <trkpt lat="49.07573" lon="7.68028">
        <ele>300.9399332851</ele>
        <time>2016-07-03T07:49:20Z</time>
      </trkpt>
      <trkpt lat="49.0757" lon="7.68024">
        <ele>301.1223072312</ele>
        <time>2016-07-03T07:49:31Z</time>
      </trkpt>
      <trkpt lat="49.07573" lon="7.68029">
        <ele>308.1302092997</ele>
        <time>2016-07-03T07:50:00Z</time>
      </trkpt>
      <trkpt lat="49.07577" lon="7.68031">
        <ele>309.058913255</ele>
        <time>2016-07-03T07:50:08Z</time>
      </trkpt>
      <trkpt lat="49.07581" lon="7.68031">
        <ele>310.11988336412</ele>
        <time>2016-07-03T07:50:12Z</time>
      </trkpt>
      <trkpt lat="49.07585" lon="7.68031">
        <ele>311.06065356122</ele>
        <time>2016-07-03T07:50:16Z</time>
      </trkpt>
      <trkpt lat="49.07589" lon="7.68028">
        <ele>311.2414239993</ele>
        <time>2016-07-03T07:50:21Z</time>
      </trkpt>
      <trkpt lat="49.07587" lon="7.68022">
        <ele>311.21323873876</ele>
        <time>2016-07-03T07:50:35Z</time>
      </trkpt>
      <trkpt lat="49.07585" lon="7.68017">
        <ele>311.72894708602</ele>
        <time>2016-07-03T07:50:44Z</time>
      </trkpt>
      <trkpt lat="49.0758" lon="7.68014">
        <ele>313.57069402801</ele>
        <time>2016-07-03T07:50:49Z</time>
      </trkpt>
      <trkpt lat="49.07575" lon="7.68008">
        <ele>315.23882857161</ele>
        <time>2016-07-03T07:50:53Z</time>
      </trkpt>
      <trkpt lat="49.07573" lon="7.68002">
        <ele>318.32229235824</ele>
        <time>2016-07-03T07:51:00Z</time>
      </trkpt>
      <trkpt lat="49.07571" lon="7.67996">
        <ele>320.52686074838</ele>
        <time>2016-07-03T07:51:06Z</time>
      </trkpt>
      <trkpt lat="49.07567" lon="7.67991">
        <ele>320.98069702731</ele>
        <time>2016-07-03T07:51:11Z</time>
      </trkpt>
      <trkpt lat="49.07565" lon="7.67985">
        <ele>320.9891990111</ele>
        <time>2016-07-03T07:51:15Z</time>
      </trkpt>
      <trkpt lat="49.07561" lon="7.6798">
        <ele>320.92348485428</ele>
        <time>2016-07-03T07:51:19Z</time>
      </trkpt>
      <trkpt lat="49.07558" lon="7.67974">
        <ele>321.18245154344</ele>
        <time>2016-07-03T07:51:23Z</time>
      </trkpt>
      <trkpt lat="49.07557" lon="7.67968">
        <ele>321.61135553871</ele>
        <time>2016-07-03T07:51:31Z</time>
      </trkpt>
      <trkpt lat="49.07553" lon="7.67963">
        <ele>322.48366099301</ele>
        <time>2016-07-03T07:51:42Z</time>
      </trkpt>
      <trkpt lat="49.0755" lon="7.6796">
        <ele>322.6472067774</ele>
        <time>2016-07-03T07:51:50Z</time>
      </trkpt>
      <trkpt lat="49.07548" lon="7.67956">
        <ele>322.30725831925</ele>
        <time>2016-07-03T07:51:56Z</time>
      </trkpt>
      <trkpt lat="49.0754" lon="7.67949">
        <ele>320.60126849699</ele>
        <time>2016-07-03T07:52:01Z</time>
      </trkpt>
      <trkpt lat="49.07538" lon="7.67946">
        <ele>319.25779827137</ele>
        <time>2016-07-03T07:52:08Z</time>
      </trkpt>
      <trkpt lat="49.07536" lon="7.67941">
        <ele>319.44556566536</ele>
        <time>2016-07-03T07:52:17Z</time>
      </trkpt>
      <trkpt lat="49.07531" lon="7.67937">
        <ele>320.73912714756</ele>
        <time>2016-07-03T07:52:22Z</time>
      </trkpt>
      <trkpt lat="49.07525" lon="7.67927">
        <ele>321.66288486126</ele>
        <time>2016-07-03T07:52:26Z</time>
      </trkpt>
      <trkpt lat="49.07517" lon="7.67918">
        <ele>323.00621559274</ele>
        <time>2016-07-03T07:52:31Z</time>
      </trkpt>
      <trkpt lat="49.07514" lon="7.67914">
        <ele>323.71695997857</ele>
        <time>2016-07-03T07:52:35Z</time>
      </trkpt>
      <trkpt lat="49.07512" lon="7.67908">
        <ele>324.62764514638</ele>
        <time>2016-07-03T07:52:46Z</time>
      </trkpt>
      <trkpt lat="49.07513" lon="7.67901">
        <ele>327.27092245193</ele>
        <time>2016-07-03T07:53:03Z</time>
      </trkpt>
      <trkpt lat="49.0751" lon="7.67897">
        <ele>328.06640557198</ele>
        <time>2016-07-03T07:53:07Z</time>
      </trkpt>
      <trkpt lat="49.07506" lon="7.67892">
        <ele>328.83164048409</ele>
        <time>2016-07-03T07:53:11Z</time>
      </trkpt>
      <trkpt lat="49.07511" lon="7.67893">
        <ele>330.37794669486</ele>
        <time>2016-07-03T07:53:21Z</time>
      </trkpt>
      <trkpt lat="49.07514" lon="7.67896">
        <ele>330.49202976806</ele>
        <time>2016-07-03T07:53:25Z</time>
      </trkpt>
      <trkpt lat="49.07519" lon="7.67899">
        <ele>331.72455317419</ele>
        <time>2016-07-03T07:53:30Z</time>
      </trkpt>
      <trkpt lat="49.07522" lon="7.67903">
        <ele>332.01816878572</ele>
        <time>2016-07-03T07:53:35Z</time>
      </trkpt>
      <trkpt lat="49.07526" lon="7.67905">
        <ele>331.2926699369</ele>
        <time>2016-07-03T07:53:40Z</time>
      </trkpt>
      <trkpt lat="49.0753" lon="7.67906">
        <ele>330.80558722112</ele>
        <time>2016-07-03T07:53:46Z</time>
      </trkpt>
      <trkpt lat="49.07534" lon="7.67908">
        <ele>331.10167228921</ele>
        <time>2016-07-03T07:53:51Z</time>
      </trkpt>
      <trkpt lat="49.07538" lon="7.67909">
        <ele>331.06701535902</ele>
        <time>2016-07-03T07:53:59Z</time>
      </trkpt>
      <trkpt lat="49.07542" lon="7.67912">
        <ele>331.22079347787</ele>
        <time>2016-07-03T07:54:15Z</time>
      </trkpt>
      <trkpt lat="49.07546" lon="7.67912">
        <ele>334.53192114484</ele>
        <time>2016-07-03T07:54:50Z</time>
      </trkpt>
      <trkpt lat="49.07545" lon="7.67906">
        <ele>343.98782494866</ele>
        <time>2016-07-03T07:55:46Z</time>
      </trkpt>
      <trkpt lat="49.07542" lon="7.67904">
        <ele>346.16781656765</ele>
        <time>2016-07-03T07:56:25Z</time>
      </trkpt>
      <trkpt lat="49.0754" lon="7.67898">
        <ele>347.76910724903</ele>
        <time>2016-07-03T07:57:45Z</time>
      </trkpt>
      <trkpt lat="49.07535" lon="7.67886">
        <ele>347.39051335814</ele>
        <time>2016-07-03T07:57:49Z</time>
      </trkpt>
      <trkpt lat="49.07531" lon="7.67877">
        <ele>346.94325259165</ele>
        <time>2016-07-03T07:57:54Z</time>
      </trkpt>
      <trkpt lat="49.07528" lon="7.67872">
        <ele>346.83454737238</ele>
        <time>2016-07-03T07:57:59Z</time>
      </trkpt>
      <trkpt lat="49.07524" lon="7.67867">
        <ele>346.40471341875</ele>
        <time>2016-07-03T07:58:04Z</time>
      </trkpt>
      <trkpt lat="49.07522" lon="7.67862">
        <ele>346.51480161252</ele>
        <time>2016-07-03T07:58:24Z</time>
      </trkpt>
      <trkpt lat="49.07518" lon="7.67864">
        <ele>342.42028397628</ele>
        <time>2016-07-03T07:59:52Z</time>
      </trkpt>
      <trkpt lat="49.07517" lon="7.6787">
        <ele>340.43056465234</ele>
        <time>2016-07-03T08:00:13Z</time>
      </trkpt>
      <trkpt lat="49.07521" lon="7.67875">
        <ele>342.30839693525</ele>
        <time>2016-07-03T08:00:34Z</time>
      </trkpt>
      <trkpt lat="49.07525" lon="7.67874">
        <ele>342.63593742703</ele>
        <time>2016-07-03T08:00:42Z</time>
      </trkpt>
      <trkpt lat="49.07525" lon="7.67868">
        <ele>341.69268670862</ele>
        <time>2016-07-03T08:01:07Z</time>
      </trkpt>
      <trkpt lat="49.07522" lon="7.67862">
        <ele>343.93679497002</ele>
        <time>2016-07-03T08:01:42Z</time>
      </trkpt>
      <trkpt lat="49.07526" lon="7.6786">
        <ele>344.07000212436</ele>
        <time>2016-07-03T08:02:15Z</time>
      </trkpt>
      <trkpt lat="49.07523" lon="7.67864">
        <ele>347.13430548654</ele>
        <time>2016-07-03T08:02:55Z</time>
      </trkpt>
      <trkpt lat="49.07519" lon="7.67861">
        <ele>346.51004680452</ele>
        <time>2016-07-03T08:03:39Z</time>
      </trkpt>
      <trkpt lat="49.07523" lon="7.67865">
        <ele>345.43477546548</ele>
        <time>2016-07-03T08:04:02Z</time>
      </trkpt>
      <trkpt lat="49.0752" lon="7.67867">
        <ele>345.62378453277</ele>
        <time>2016-07-03T08:04:36Z</time>
      </trkpt>
      <trkpt lat="49.07524" lon="7.6787">
        <ele>343.30631830901</ele>
        <time>2016-07-03T08:05:26Z</time>
      </trkpt>
      <trkpt lat="49.0752" lon="7.67869">
        <ele>342.6657000954</ele>
        <time>2016-07-03T08:05:59Z</time>
      </trkpt>
      <trkpt lat="49.07524" lon="7.67871">
        <ele>343.08064569798</ele>
        <time>2016-07-03T08:06:20Z</time>
      </trkpt>
      <trkpt lat="49.07529" lon="7.67875">
        <ele>343.1591510645</ele>
        <time>2016-07-03T08:06:25Z</time>
      </trkpt>
      <trkpt lat="49.07526" lon="7.67878">
        <ele>343.01413685213</ele>
        <time>2016-07-03T08:06:31Z</time>
      </trkpt>
      <trkpt lat="49.07522" lon="7.67878">
        <ele>341.50462175286</ele>
        <time>2016-07-03T08:06:45Z</time>
      </trkpt>
      <trkpt lat="49.07519" lon="7.67873">
        <ele>340.92059594034</ele>
        <time>2016-07-03T08:06:50Z</time>
      </trkpt>
      <trkpt lat="49.07515" lon="7.6787">
        <ele>340.04479355436</ele>
        <time>2016-07-03T08:07:01Z</time>
      </trkpt>
      <trkpt lat="49.07518" lon="7.67864">
        <ele>340.10304128123</ele>
        <time>2016-07-03T08:07:18Z</time>
      </trkpt>
      <trkpt lat="49.07522" lon="7.67866">
        <ele>340.87787705644</ele>
        <time>2016-07-03T08:07:28Z</time>
      </trkpt>
      <trkpt lat="49.07524" lon="7.6786">
        <ele>341.59398550048</ele>
        <time>2016-07-03T08:07:56Z</time>
      </trkpt>
      <trkpt lat="49.07527" lon="7.67857">
        <ele>343.87932281834</ele>
        <time>2016-07-03T08:08:35Z</time>
      </trkpt>
      <trkpt lat="49.07525" lon="7.67863">
        <ele>343.88840212744</ele>
        <time>2016-07-03T08:09:04Z</time>
      </trkpt>
      <trkpt lat="49.07521" lon="7.67863">
        <ele>343.58045697318</ele>
        <time>2016-07-03T08:09:19Z</time>
      </trkpt>
      <trkpt lat="49.07524" lon="7.67866">
        <ele>344.52806825817</ele>
        <time>2016-07-03T08:10:13Z</time>
      </trkpt>
      <trkpt lat="49.0753" lon="7.67871">
        <ele>344.75059674572</ele>
        <time>2016-07-03T08:10:18Z</time>
      </trkpt>
      <trkpt lat="49.07534" lon="7.67874">
        <ele>344.55616662568</ele>
        <time>2016-07-03T08:10:24Z</time>
      </trkpt>
      <trkpt lat="49.07535" lon="7.6788">
        <ele>343.47190643602</ele>
        <time>2016-07-03T08:10:31Z</time>
      </trkpt>
      <trkpt lat="49.07538" lon="7.67884">
        <ele>343.01747186333</ele>
        <time>2016-07-03T08:10:38Z</time>
      </trkpt>
      <trkpt lat="49.07541" lon="7.67889">
        <ele>343.10697242939</ele>
        <time>2016-07-03T08:10:43Z</time>
      </trkpt>
      <trkpt lat="49.07545" lon="7.67893">
        <ele>342.60917411068</ele>
        <time>2016-07-03T08:10:52Z</time>
      </trkpt>
      <trkpt lat="49.07547" lon="7.67898">
        <ele>341.97779996767</ele>
        <time>2016-07-03T08:11:02Z</time>
      </trkpt>
      <trkpt lat="49.07547" lon="7.67905">
        <ele>341.84374580727</ele>
        <time>2016-07-03T08:11:38Z</time>
      </trkpt>
      <trkpt lat="49.07548" lon="7.6791">
        <ele>344.73103327513</ele>
        <time>2016-07-03T08:12:54Z</time>
      </trkpt>
      <trkpt lat="49.07545" lon="7.67908">
        <ele>344.86894126249</ele>
        <time>2016-07-03T08:14:01Z</time>
      </trkpt>
      <trkpt lat="49.07537" lon="7.67901">
        <ele>344.64907311284</ele>
        <time>2016-07-03T08:14:06Z</time>
      </trkpt>
      <trkpt lat="49.07533" lon="7.67898">
        <ele>345.12353051697</ele>
        <time>2016-07-03T08:14:15Z</time>
      </trkpt>
      <trkpt lat="49.07526" lon="7.67894">
        <ele>344.98343286161</ele>
        <time>2016-07-03T08:14:19Z</time>
      </trkpt>
      <trkpt lat="49.0752" lon="7.6789">
        <ele>344.34356875071</ele>
        <time>2016-07-03T08:14:24Z</time>
      </trkpt>
      <trkpt lat="49.07515" lon="7.67886">
        <ele>344.13219411969</ele>
        <time>2016-07-03T08:14:29Z</time>
      </trkpt>
      <trkpt lat="49.07517" lon="7.67891">
        <ele>343.03098347428</ele>
        <time>2016-07-03T08:14:41Z</time>
      </trkpt>
      <trkpt lat="49.07518" lon="7.67893">
        <ele>342.24511214051</ele>
        <time>2016-07-03T08:14:51Z</time>
      </trkpt>
      <trkpt lat="49.07519" lon="7.67904">
        <ele>341.96186023775</ele>
        <time>2016-07-03T08:14:56Z</time>
      </trkpt>
      <trkpt lat="49.0752" lon="7.6791">
        <ele>341.97718676771</ele>
        <time>2016-07-03T08:15:04Z</time>
      </trkpt>
      <trkpt lat="49.07522" lon="7.67915">
        <ele>341.4748405625</ele>
        <time>2016-07-03T08:15:09Z</time>
      </trkpt>
      <trkpt lat="49.07525" lon="7.67919">
        <ele>340.92883906958</ele>
        <time>2016-07-03T08:15:18Z</time>
      </trkpt>
      <trkpt lat="49.07529" lon="7.67922">
        <ele>337.89856062452</ele>
        <time>2016-07-03T08:15:33Z</time>
      </trkpt>
      <trkpt lat="49.07533" lon="7.67923">
        <ele>338.33644788442</ele>
        <time>2016-07-03T08:15:42Z</time>
      </trkpt>
      <trkpt lat="49.07535" lon="7.67927">
        <ele>338.6608032485</ele>
        <time>2016-07-03T08:15:52Z</time>
      </trkpt>
      <trkpt lat="49.07541" lon="7.67939">
        <ele>338.22815307108</ele>
        <time>2016-07-03T08:15:57Z</time>
      </trkpt>
      <trkpt lat="49.07547" lon="7.67943">
        <ele>337.98339225343</ele>
        <time>2016-07-03T08:16:01Z</time>
      </trkpt>
      <trkpt lat="49.0755" lon="7.67952">
        <ele>337.52361140775</ele>
        <time>2016-07-03T08:16:05Z</time>
      </trkpt>
      <trkpt lat="49.07551" lon="7.67957">
        <ele>337.19098884893</ele>
        <time>2016-07-03T08:16:10Z</time>
      </trkpt>
      <trkpt lat="49.07555" lon="7.67965">
        <ele>336.55413300543</ele>
        <time>2016-07-03T08:16:14Z</time>
      </trkpt>
      <trkpt lat="49.07557" lon="7.6797">
        <ele>335.92555966955</ele>
        <time>2016-07-03T08:16:18Z</time>
      </trkpt>
      <trkpt lat="49.07561" lon="7.67975">
        <ele>334.90032918125</ele>
        <time>2016-07-03T08:16:22Z</time>
      </trkpt>
      <trkpt lat="49.07564" lon="7.6798">
        <ele>333.76988025708</ele>
        <time>2016-07-03T08:16:27Z</time>
      </trkpt>
      <trkpt lat="49.07568" lon="7.67988">
        <ele>332.08189832457</ele>
        <time>2016-07-03T08:16:32Z</time>
      </trkpt>
      <trkpt lat="49.0757" lon="7.67993">
        <ele>330.41694157526</ele>
        <time>2016-07-03T08:16:38Z</time>
      </trkpt>
      <trkpt lat="49.07574" lon="7.67998">
        <ele>329.68852953781</ele>
        <time>2016-07-03T08:16:43Z</time>
      </trkpt>
      <trkpt lat="49.07577" lon="7.68003">
        <ele>328.96504230643</ele>
        <time>2016-07-03T08:16:49Z</time>
      </trkpt>
      <trkpt lat="49.07585" lon="7.68006">
        <ele>328.62163642439</ele>
        <time>2016-07-03T08:16:53Z</time>
      </trkpt>
      <trkpt lat="49.0759" lon="7.6801">
        <ele>327.81549843943</ele>
        <time>2016-07-03T08:16:58Z</time>
      </trkpt>
      <trkpt lat="49.07594" lon="7.68013">
        <ele>327.23946146934</ele>
        <time>2016-07-03T08:17:03Z</time>
      </trkpt>
      <trkpt lat="49.07591" lon="7.68016">
        <ele>325.25445840817</ele>
        <time>2016-07-03T08:17:16Z</time>
      </trkpt>
      <trkpt lat="49.07582" lon="7.68013">
        <ele>323.9188073111</ele>
        <time>2016-07-03T08:17:20Z</time>
      </trkpt>
      <trkpt lat="49.07578" lon="7.68013">
        <ele>322.74842919289</ele>
        <time>2016-07-03T08:17:24Z</time>
      </trkpt>
      <trkpt lat="49.07574" lon="7.6801">
        <ele>321.38918038567</ele>
        <time>2016-07-03T08:17:33Z</time>
      </trkpt>
      <trkpt lat="49.0757" lon="7.6801">
        <ele>320.95942480033</ele>
        <time>2016-07-03T08:17:41Z</time>
      </trkpt>
      <trkpt lat="49.07566" lon="7.68007">
        <ele>319.09498559506</ele>
        <time>2016-07-03T08:17:57Z</time>
      </trkpt>
      <trkpt lat="49.07564" lon="7.68003">
        <ele>318.20683330767</ele>
        <time>2016-07-03T08:18:02Z</time>
      </trkpt>
      <trkpt lat="49.0756" lon="7.67999">
        <ele>318.01225541626</ele>
        <time>2016-07-03T08:18:08Z</time>
      </trkpt>
      <trkpt lat="49.07557" lon="7.67995">
        <ele>318.45797547631</ele>
        <time>2016-07-03T08:18:15Z</time>
      </trkpt>
      <trkpt lat="49.07553" lon="7.67992">
        <ele>318.34549517186</ele>
        <time>2016-07-03T08:18:21Z</time>
      </trkpt>
      <trkpt lat="49.07546" lon="7.67989">
        <ele>317.54473903133</ele>
        <time>2016-07-03T08:18:26Z</time>
      </trkpt>
      <trkpt lat="49.07541" lon="7.67987">
        <ele>316.86367402512</ele>
        <time>2016-07-03T08:18:31Z</time>
      </trkpt>
      <trkpt lat="49.07537" lon="7.67985">
        <ele>316.07219053681</ele>
        <time>2016-07-03T08:18:36Z</time>
      </trkpt>
      <trkpt lat="49.07532" lon="7.67984">
        <ele>315.5556564257</ele>
        <time>2016-07-03T08:18:41Z</time>
      </trkpt>
      <trkpt lat="49.07528" lon="7.67983">
        <ele>315.32022411354</ele>
        <time>2016-07-03T08:18:46Z</time>
      </trkpt>
      <trkpt lat="49.07519" lon="7.67977">
        <ele>315.40969422688</ele>
        <time>2016-07-03T08:18:50Z</time>
      </trkpt>
      <trkpt lat="49.07512" lon="7.67972">
        <ele>315.63894457024</ele>
        <time>2016-07-03T08:18:55Z</time>
      </trkpt>
      <trkpt lat="49.07505" lon="7.67969">
        <ele>315.84876671089</ele>
        <time>2016-07-03T08:18:59Z</time>
      </trkpt>
      <trkpt lat="49.07501" lon="7.67967">
        <ele>315.72757494137</ele>
        <time>2016-07-03T08:19:07Z</time>
      </trkpt>
      <trkpt lat="49.07498" lon="7.67963">
        <ele>314.37453770432</ele>
        <time>2016-07-03T08:19:13Z</time>
      </trkpt>
      <trkpt lat="49.07496" lon="7.67956">
        <ele>313.19807545189</ele>
        <time>2016-07-03T08:19:18Z</time>
      </trkpt>
      <trkpt lat="49.07492" lon="7.67954">
        <ele>310.95961195378</ele>
        <time>2016-07-03T08:19:23Z</time>
      </trkpt>
      <trkpt lat="49.07488" lon="7.67953">
        <ele>307.7120832969</ele>
        <time>2016-07-03T08:19:34Z</time>
      </trkpt>
      <trkpt lat="49.07486" lon="7.67949">
        <ele>306.487116264</ele>
        <time>2016-07-03T08:19:45Z</time>
      </trkpt>
      <trkpt lat="49.07482" lon="7.67945">
        <ele>307.18585666132</ele>
        <time>2016-07-03T08:19:49Z</time>
      </trkpt>
      <trkpt lat="49.07472" lon="7.67938">
        <ele>307.16062786225</ele>
        <time>2016-07-03T08:19:53Z</time>
      </trkpt>
      <trkpt lat="49.07469" lon="7.67935">
        <ele>307.35748490392</ele>
        <time>2016-07-03T08:20:01Z</time>
      </trkpt>
      <trkpt lat="49.07465" lon="7.67931">
        <ele>307.04765296997</ele>
        <time>2016-07-03T08:20:05Z</time>
      </trkpt>
      <trkpt lat="49.07463" lon="7.67929">
        <ele>306.65942946841</ele>
        <time>2016-07-03T08:20:14Z</time>
      </trkpt>
      <trkpt lat="49.07454" lon="7.67915">
        <ele>306.26062519261</ele>
        <time>2016-07-03T08:20:19Z</time>
      </trkpt>
      <trkpt lat="49.0745" lon="7.6791">
        <ele>306.23259805847</ele>
        <time>2016-07-03T08:20:23Z</time>
      </trkpt>
      <trkpt lat="49.07445" lon="7.67904">
        <ele>306.52334045282</ele>
        <time>2016-07-03T08:20:28Z</time>
      </trkpt>
      <trkpt lat="49.07443" lon="7.67896">
        <ele>306.19580673976</ele>
        <time>2016-07-03T08:20:32Z</time>
      </trkpt>
      <trkpt lat="49.07442" lon="7.67893">
        <ele>305.49398614045</ele>
        <time>2016-07-03T08:20:42Z</time>
      </trkpt>
      <trkpt lat="49.07438" lon="7.67881">
        <ele>304.56629240495</ele>
        <time>2016-07-03T08:20:46Z</time>
      </trkpt>
      <trkpt lat="49.07434" lon="7.67874">
        <ele>303.53355843493</ele>
        <time>2016-07-03T08:20:51Z</time>
      </trkpt>
      <trkpt lat="49.0743" lon="7.67857">
        <ele>302.98169379909</ele>
        <time>2016-07-03T08:20:55Z</time>
      </trkpt>
      <trkpt lat="49.07424" lon="7.67847">
        <ele>302.37138315659</ele>
        <time>2016-07-03T08:21:00Z</time>
      </trkpt>
      <trkpt lat="49.07418" lon="7.67844">
        <ele>301.63014152425</ele>
        <time>2016-07-03T08:21:04Z</time>
      </trkpt>
      <trkpt lat="49.07413" lon="7.67842">
        <ele>300.51803525849</ele>
        <time>2016-07-03T08:21:08Z</time>
      </trkpt>
      <trkpt lat="49.0741" lon="7.67837">
        <ele>298.65204607945</ele>
        <time>2016-07-03T08:21:13Z</time>
      </trkpt>
      <trkpt lat="49.07407" lon="7.67831">
        <ele>297.55673686026</ele>
        <time>2016-07-03T08:21:18Z</time>
      </trkpt>
      <trkpt lat="49.07404" lon="7.67829">
        <ele>296.49930510178</ele>
        <time>2016-07-03T08:21:23Z</time>
      </trkpt>
      <trkpt lat="49.07401" lon="7.67825">
        <ele>295.27935437676</ele>
        <time>2016-07-03T08:21:28Z</time>
      </trkpt>
      <trkpt lat="49.07397" lon="7.67821">
        <ele>294.09143650569</ele>
        <time>2016-07-03T08:21:34Z</time>
      </trkpt>
      <trkpt lat="49.07393" lon="7.67819">
        <ele>293.2302239152</ele>
        <time>2016-07-03T08:21:39Z</time>
      </trkpt>
      <trkpt lat="49.07391" lon="7.67814">
        <ele>292.68041612483</ele>
        <time>2016-07-03T08:21:45Z</time>
      </trkpt>
      <trkpt lat="49.07389" lon="7.6781">
        <ele>292.49490146421</ele>
        <time>2016-07-03T08:21:51Z</time>
      </trkpt>
      <trkpt lat="49.07384" lon="7.678">
        <ele>292.32738780355</ele>
        <time>2016-07-03T08:21:55Z</time>
      </trkpt>
      <trkpt lat="49.07382" lon="7.67795">
        <ele>292.28694576234</ele>
        <time>2016-07-03T08:22:01Z</time>
      </trkpt>
      <trkpt lat="49.0738" lon="7.67788">
        <ele>291.82831819553</ele>
        <time>2016-07-03T08:22:05Z</time>
      </trkpt>
      <trkpt lat="49.07379" lon="7.67782">
        <ele>291.01118415343</ele>
        <time>2016-07-03T08:22:10Z</time>
      </trkpt>
      <trkpt lat="49.07377" lon="7.67774">
        <ele>290.3129905521</ele>
        <time>2016-07-03T08:22:15Z</time>
      </trkpt>
      <trkpt lat="49.07375" lon="7.67767">
        <ele>290.54545473321</ele>
        <time>2016-07-03T08:22:20Z</time>
      </trkpt>
      <trkpt lat="49.07373" lon="7.67762">
        <ele>291.09400818739</ele>
        <time>2016-07-03T08:22:25Z</time>
      </trkpt>
      <trkpt lat="49.07369" lon="7.67758">
        <ele>291.1184417519</ele>
        <time>2016-07-03T08:22:29Z</time>
      </trkpt>
      <trkpt lat="49.07365" lon="7.67754">
        <ele>291.15331622665</ele>
        <time>2016-07-03T08:22:34Z</time>
      </trkpt>
      <trkpt lat="49.07362" lon="7.67751">
        <ele>290.89550342086</ele>
        <time>2016-07-03T08:22:39Z</time>
      </trkpt>
      <trkpt lat="49.07358" lon="7.67748">
        <ele>290.21472498095</ele>
        <time>2016-07-03T08:22:44Z</time>
      </trkpt>
      <trkpt lat="49.07354" lon="7.67747">
        <ele>289.47403706901</ele>
        <time>2016-07-03T08:22:48Z</time>
      </trkpt>
      <trkpt lat="49.07349" lon="7.67747">
        <ele>288.80504599076</ele>
        <time>2016-07-03T08:22:52Z</time>
      </trkpt>
      <trkpt lat="49.07346" lon="7.67745">
        <ele>287.53976019271</ele>
        <time>2016-07-03T08:23:00Z</time>
      </trkpt>
      <trkpt lat="49.07341" lon="7.67742">
        <ele>286.84595494541</ele>
        <time>2016-07-03T08:23:04Z</time>
      </trkpt>
      <trkpt lat="49.07337" lon="7.6774">
        <ele>285.85612091145</ele>
        <time>2016-07-03T08:23:08Z</time>
      </trkpt>
      <trkpt lat="49.07333" lon="7.67738">
        <ele>284.61039502821</ele>
        <time>2016-07-03T08:23:14Z</time>
      </trkpt>
      <trkpt lat="49.07329" lon="7.67734">
        <ele>282.02883833251</ele>
        <time>2016-07-03T08:23:29Z</time>
      </trkpt>
      <trkpt lat="49.0733" lon="7.67729">
        <ele>282.0926409033</ele>
        <time>2016-07-03T08:23:34Z</time>
      </trkpt>
      <trkpt lat="49.07327" lon="7.67722">
        <ele>282.25244875605</ele>
        <time>2016-07-03T08:23:39Z</time>
      </trkpt>
      <trkpt lat="49.0733" lon="7.67722">
        <ele>288.0346331613</ele>
        <time>2016-07-03T08:24:43Z</time>
      </trkpt>
      <trkpt lat="49.07334" lon="7.67718">
        <ele>288.70518209943</ele>
        <time>2016-07-03T08:24:50Z</time>
      </trkpt>
      <trkpt lat="49.07336" lon="7.67713">
        <ele>288.51411737234</ele>
        <time>2016-07-03T08:24:54Z</time>
      </trkpt>
      <trkpt lat="49.0734" lon="7.67706">
        <ele>288.14955392352</ele>
        <time>2016-07-03T08:24:58Z</time>
      </trkpt>
      <trkpt lat="49.07344" lon="7.67701">
        <ele>287.2685959984</ele>
        <time>2016-07-03T08:25:02Z</time>
      </trkpt>
      <trkpt lat="49.0735" lon="7.67695">
        <ele>286.07259686185</ele>
        <time>2016-07-03T08:25:07Z</time>
      </trkpt>
      <trkpt lat="49.07355" lon="7.6769">
        <ele>284.75107421261</ele>
        <time>2016-07-03T08:25:11Z</time>
      </trkpt>
      <trkpt lat="49.07359" lon="7.67684">
        <ele>283.37723619649</ele>
        <time>2016-07-03T08:25:15Z</time>
      </trkpt>
      <trkpt lat="49.07362" lon="7.67679">
        <ele>280.78254324563</ele>
        <time>2016-07-03T08:25:23Z</time>
      </trkpt>
      <trkpt lat="49.07365" lon="7.67674">
        <ele>279.42855319163</ele>
        <time>2016-07-03T08:25:28Z</time>
      </trkpt>
      <trkpt lat="49.07366" lon="7.67668">
        <ele>278.73346153121</ele>
        <time>2016-07-03T08:25:33Z</time>
      </trkpt>
      <trkpt lat="49.07372" lon="7.67664">
        <ele>278.1564288208</ele>
        <time>2016-07-03T08:25:38Z</time>
      </trkpt>
      <trkpt lat="49.07376" lon="7.67663">
        <ele>277.07048905577</ele>
        <time>2016-07-03T08:25:45Z</time>
      </trkpt>
      <trkpt lat="49.07382" lon="7.67655">
        <ele>276.28518086421</ele>
        <time>2016-07-03T08:25:50Z</time>
      </trkpt>
      <trkpt lat="49.07385" lon="7.67649">
        <ele>275.52386279198</ele>
        <time>2016-07-03T08:25:54Z</time>
      </trkpt>
      <trkpt lat="49.0739" lon="7.67642">
        <ele>274.84949390069</ele>
        <time>2016-07-03T08:25:59Z</time>
      </trkpt>
      <trkpt lat="49.07395" lon="7.67636">
        <ele>274.59124929289</ele>
        <time>2016-07-03T08:26:04Z</time>
      </trkpt>
      <trkpt lat="49.07398" lon="7.67633">
        <ele>274.62899671072</ele>
        <time>2016-07-03T08:26:08Z</time>
      </trkpt>
      <trkpt lat="49.07402" lon="7.67628">
        <ele>274.51899776653</ele>
        <time>2016-07-03T08:26:13Z</time>
      </trkpt>
      <trkpt lat="49.07407" lon="7.67623">
        <ele>274.16331636623</ele>
        <time>2016-07-03T08:26:17Z</time>
      </trkpt>
      <trkpt lat="49.07414" lon="7.67616">
        <ele>273.27471264136</ele>
        <time>2016-07-03T08:26:22Z</time>
      </trkpt>
      <trkpt lat="49.07417" lon="7.67609">
        <ele>272.87294392953</ele>
        <time>2016-07-03T08:26:26Z</time>
      </trkpt>
      <trkpt lat="49.07419" lon="7.67605">
        <ele>273.07310425386</ele>
        <time>2016-07-03T08:26:30Z</time>
      </trkpt>
      <trkpt lat="49.07425" lon="7.67598">
        <ele>273.55269983538</ele>
        <time>2016-07-03T08:26:35Z</time>
      </trkpt>
      <trkpt lat="49.07428" lon="7.67595">
        <ele>273.7146669384</ele>
        <time>2016-07-03T08:26:40Z</time>
      </trkpt>
      <trkpt lat="49.0743" lon="7.67589">
        <ele>273.62389871058</ele>
        <time>2016-07-03T08:26:45Z</time>
      </trkpt>
      <trkpt lat="49.07433" lon="7.67584">
        <ele>273.45765939431</ele>
        <time>2016-07-03T08:26:49Z</time>
      </trkpt>
      <trkpt lat="49.07437" lon="7.67581">
        <ele>273.41765479517</ele>
        <time>2016-07-03T08:26:53Z</time>
      </trkpt>
      <trkpt lat="49.0744" lon="7.67577">
        <ele>273.20262197975</ele>
        <time>2016-07-03T08:26:59Z</time>
      </trkpt>
      <trkpt lat="49.07442" lon="7.67572">
        <ele>272.93196991855</ele>
        <time>2016-07-03T08:27:04Z</time>
      </trkpt>
      <trkpt lat="49.07445" lon="7.67568">
        <ele>272.43222151393</ele>
        <time>2016-07-03T08:27:10Z</time>
      </trkpt>
      <trkpt lat="49.07448" lon="7.67563">
        <ele>271.38073088568</ele>
        <time>2016-07-03T08:27:16Z</time>
      </trkpt>
      <trkpt lat="49.07455" lon="7.67554">
        <ele>270.22797863491</ele>
        <time>2016-07-03T08:27:20Z</time>
      </trkpt>
      <trkpt lat="49.07458" lon="7.67549">
        <ele>269.56453567188</ele>
        <time>2016-07-03T08:27:24Z</time>
      </trkpt>
      <trkpt lat="49.07463" lon="7.67539">
        <ele>268.96054992505</ele>
        <time>2016-07-03T08:27:29Z</time>
      </trkpt>
      <trkpt lat="49.07465" lon="7.67533">
        <ele>268.3692248454</ele>
        <time>2016-07-03T08:27:37Z</time>
      </trkpt>
      <trkpt lat="49.07468" lon="7.67537">
        <ele>266.7970175786</ele>
        <time>2016-07-03T08:27:48Z</time>
      </trkpt>
      <trkpt lat="49.07469" lon="7.67542">
        <ele>267.02185036355</ele>
        <time>2016-07-03T08:27:52Z</time>
      </trkpt>
      <trkpt lat="49.07471" lon="7.67548">
        <ele>267.34169551269</ele>
        <time>2016-07-03T08:27:56Z</time>
      </trkpt>
      <trkpt lat="49.07471" lon="7.67554">
        <ele>267.65572358636</ele>
        <time>2016-07-03T08:28:00Z</time>
      </trkpt>
      <trkpt lat="49.07472" lon="7.67559">
        <ele>267.39308725275</ele>
        <time>2016-07-03T08:28:04Z</time>
      </trkpt>
      <trkpt lat="49.07474" lon="7.67565">
        <ele>267.40021561223</ele>
        <time>2016-07-03T08:28:08Z</time>
      </trkpt>
      <trkpt lat="49.0747" lon="7.67562">
        <ele>266.86103451108</ele>
        <time>2016-07-03T08:28:29Z</time>
      </trkpt>
      <trkpt lat="49.07466" lon="7.67562">
        <ele>266.77377707171</ele>
        <time>2016-07-03T08:28:37Z</time>
      </trkpt>
      <trkpt lat="49.07464" lon="7.67567">
        <ele>264.30915468694</ele>
        <time>2016-07-03T08:28:55Z</time>
      </trkpt>
      <trkpt lat="49.07465" lon="7.67576">
        <ele>263.30003942822</ele>
        <time>2016-07-03T08:28:59Z</time>
      </trkpt>
      <trkpt lat="49.07465" lon="7.67582">
        <ele>263.58121868946</ele>
        <time>2016-07-03T08:29:05Z</time>
      </trkpt>
      <trkpt lat="49.07467" lon="7.67592">
        <ele>264.76917153798</ele>
        <time>2016-07-03T08:29:10Z</time>
      </trkpt>
      <trkpt lat="49.07468" lon="7.67596">
        <ele>266.07668721427</ele>
        <time>2016-07-03T08:29:19Z</time>
      </trkpt>
      <trkpt lat="49.07473" lon="7.67603">
        <ele>267.46595320666</ele>
        <time>2016-07-03T08:29:23Z</time>
      </trkpt>
      <trkpt lat="49.07478" lon="7.67608">
        <ele>269.2182124903</ele>
        <time>2016-07-03T08:29:27Z</time>
      </trkpt>
      <trkpt lat="49.07481" lon="7.67609">
        <ele>271.56436766512</ele>
        <time>2016-07-03T08:29:34Z</time>
      </trkpt>
      <trkpt lat="49.07487" lon="7.67609">
        <ele>271.93315029162</ele>
        <time>2016-07-03T08:29:38Z</time>
      </trkpt>
      <trkpt lat="49.07498" lon="7.67612">
        <ele>272.08535457114</ele>
        <time>2016-07-03T08:29:42Z</time>
      </trkpt>
      <trkpt lat="49.07507" lon="7.67616">
        <ele>272.53010690879</ele>
        <time>2016-07-03T08:29:47Z</time>
      </trkpt>
      <trkpt lat="49.07511" lon="7.67616">
        <ele>273.0861686108</ele>
        <time>2016-07-03T08:29:52Z</time>
      </trkpt>
      <trkpt lat="49.07515" lon="7.67616">
        <ele>273.31904005181</ele>
        <time>2016-07-03T08:29:57Z</time>
      </trkpt>
      <trkpt lat="49.07519" lon="7.67617">
        <ele>273.3777056589</ele>
        <time>2016-07-03T08:30:02Z</time>
      </trkpt>
      <trkpt lat="49.07523" lon="7.67619">
        <ele>273.69316645299</ele>
        <time>2016-07-03T08:30:07Z</time>
      </trkpt>
      <trkpt lat="49.07527" lon="7.67623">
        <ele>273.31149036739</ele>
        <time>2016-07-03T08:30:12Z</time>
      </trkpt>
      <trkpt lat="49.07531" lon="7.67623">
        <ele>273.22821697273</ele>
        <time>2016-07-03T08:30:16Z</time>
      </trkpt>
      <trkpt lat="49.07535" lon="7.67624">
        <ele>272.97670889475</ele>
        <time>2016-07-03T08:30:20Z</time>
      </trkpt>
      <trkpt lat="49.07539" lon="7.67627">
        <ele>272.73998020706</ele>
        <time>2016-07-03T08:30:24Z</time>
      </trkpt>
      <trkpt lat="49.07543" lon="7.67631">
        <ele>272.71322643967</ele>
        <time>2016-07-03T08:30:28Z</time>
      </trkpt>
      <trkpt lat="49.07545" lon="7.67635">
        <ele>272.98013287809</ele>
        <time>2016-07-03T08:30:32Z</time>
      </trkpt>
      <trkpt lat="49.07553" lon="7.6764">
        <ele>272.26706263884</ele>
        <time>2016-07-03T08:30:37Z</time>
      </trkpt>
      <trkpt lat="49.07557" lon="7.67642">
        <ele>268.86773440097</ele>
        <time>2016-07-03T08:30:55Z</time>
      </trkpt>
      <trkpt lat="49.07561" lon="7.67646">
        <ele>268.35276342816</ele>
        <time>2016-07-03T08:31:01Z</time>
      </trkpt>
      <trkpt lat="49.07565" lon="7.67651">
        <ele>268.67848645212</ele>
        <time>2016-07-03T08:31:06Z</time>
      </trkpt>
      <trkpt lat="49.07571" lon="7.67656">
        <ele>269.01922772651</ele>
        <time>2016-07-03T08:31:10Z</time>
      </trkpt>
      <trkpt lat="49.07574" lon="7.67659">
        <ele>269.27347941023</ele>
        <time>2016-07-03T08:31:16Z</time>
      </trkpt>
      <trkpt lat="49.07581" lon="7.67663">
        <ele>269.03579328486</ele>
        <time>2016-07-03T08:31:21Z</time>
      </trkpt>
      <trkpt lat="49.07586" lon="7.6767">
        <ele>268.25796750388</ele>
        <time>2016-07-03T08:31:26Z</time>
      </trkpt>
      <trkpt lat="49.07594" lon="7.67678">
        <ele>267.41774056396</ele>
        <time>2016-07-03T08:31:31Z</time>
      </trkpt>
      <trkpt lat="49.07599" lon="7.67681">
        <ele>266.72849644574</ele>
        <time>2016-07-03T08:31:35Z</time>
      </trkpt>
      <trkpt lat="49.07602" lon="7.67687">
        <ele>265.8848642895</ele>
        <time>2016-07-03T08:31:39Z</time>
      </trkpt>
      <trkpt lat="49.07605" lon="7.67692">
        <ele>264.80653540681</ele>
        <time>2016-07-03T08:31:45Z</time>
      </trkpt>
      <trkpt lat="49.07609" lon="7.67697">
        <ele>264.27144158969</ele>
        <time>2016-07-03T08:31:49Z</time>
      </trkpt>
      <trkpt lat="49.07613" lon="7.677">
        <ele>264.099439958</ele>
        <time>2016-07-03T08:31:53Z</time>
      </trkpt>
      <trkpt lat="49.07617" lon="7.67704">
        <ele>264.28158958594</ele>
        <time>2016-07-03T08:31:58Z</time>
      </trkpt>
      <trkpt lat="49.0762" lon="7.67707">
        <ele>264.36512066762</ele>
        <time>2016-07-03T08:32:02Z</time>
      </trkpt>
      <trkpt lat="49.07626" lon="7.67711">
        <ele>264.0888619716</ele>
        <time>2016-07-03T08:32:06Z</time>
      </trkpt>
      <trkpt lat="49.07626" lon="7.67719">
        <ele>263.71966257232</ele>
        <time>2016-07-03T08:32:11Z</time>
      </trkpt>
      <trkpt lat="49.07629" lon="7.67726">
        <ele>263.29743788694</ele>
        <time>2016-07-03T08:32:15Z</time>
      </trkpt>
      <trkpt lat="49.07631" lon="7.67733">
        <ele>262.32847091659</ele>
        <time>2016-07-03T08:32:19Z</time>
      </trkpt>
      <trkpt lat="49.07635" lon="7.67737">
        <ele>261.55262605116</ele>
        <time>2016-07-03T08:32:24Z</time>
      </trkpt>
      <trkpt lat="49.07641" lon="7.6774">
        <ele>261.40929946857</ele>
        <time>2016-07-03T08:32:29Z</time>
      </trkpt>
      <trkpt lat="49.07643" lon="7.67745">
        <ele>261.40574503811</ele>
        <time>2016-07-03T08:32:34Z</time>
      </trkpt>
      <trkpt lat="49.07646" lon="7.6775">
        <ele>262.2640605586</ele>
        <time>2016-07-03T08:33:02Z</time>
      </trkpt>
      <trkpt lat="49.07649" lon="7.67753">
        <ele>263.90755964841</ele>
        <time>2016-07-03T08:33:26Z</time>
      </trkpt>
      <trkpt lat="49.07654" lon="7.67759">
        <ele>265.17549715374</ele>
        <time>2016-07-03T08:33:30Z</time>
      </trkpt>
      <trkpt lat="49.07658" lon="7.67762">
        <ele>267.5153390206</ele>
        <time>2016-07-03T08:33:37Z</time>
      </trkpt>
      <trkpt lat="49.07661" lon="7.67769">
        <ele>269.04782586996</ele>
        <time>2016-07-03T08:33:41Z</time>
      </trkpt>
      <trkpt lat="49.07667" lon="7.67773">
        <ele>270.7232715268</ele>
        <time>2016-07-03T08:33:46Z</time>
      </trkpt>
      <trkpt lat="49.0767" lon="7.67775">
        <ele>272.06334874837</ele>
        <time>2016-07-03T08:33:50Z</time>
      </trkpt>
      <trkpt lat="49.07673" lon="7.67782">
        <ele>273.22865123667</ele>
        <time>2016-07-03T08:33:54Z</time>
      </trkpt>
      <trkpt lat="49.07676" lon="7.67791">
        <ele>273.7755116535</ele>
        <time>2016-07-03T08:33:59Z</time>
      </trkpt>
      <trkpt lat="49.07679" lon="7.67798">
        <ele>273.86707534839</ele>
        <time>2016-07-03T08:34:04Z</time>
      </trkpt>
      <trkpt lat="49.07682" lon="7.67806">
        <ele>274.28700848318</ele>
        <time>2016-07-03T08:34:08Z</time>
      </trkpt>
      <trkpt lat="49.07683" lon="7.67814">
        <ele>274.91407084379</ele>
        <time>2016-07-03T08:34:12Z</time>
      </trkpt>
      <trkpt lat="49.07685" lon="7.67821">
        <ele>275.3795242097</ele>
        <time>2016-07-03T08:34:17Z</time>
      </trkpt>
      <trkpt lat="49.07686" lon="7.67826">
        <ele>276.36815345751</ele>
        <time>2016-07-03T08:34:23Z</time>
      </trkpt>
      <trkpt lat="49.07687" lon="7.67832">
        <ele>276.70080635523</ele>
        <time>2016-07-03T08:34:27Z</time>
      </trkpt>
      <trkpt lat="49.0769" lon="7.67841">
        <ele>277.12518459466</ele>
        <time>2016-07-03T08:34:32Z</time>
      </trkpt>
      <trkpt lat="49.07691" lon="7.67846">
        <ele>277.18981033565</ele>
        <time>2016-07-03T08:34:36Z</time>
      </trkpt>
      <trkpt lat="49.07691" lon="7.67855">
        <ele>277.47247742614</ele>
        <time>2016-07-03T08:34:41Z</time>
      </trkpt>
      <trkpt lat="49.07691" lon="7.67862">
        <ele>277.2632848901</ele>
        <time>2016-07-03T08:34:45Z</time>
      </trkpt>
      <trkpt lat="49.07692" lon="7.67868">
        <ele>277.32867286521</ele>
        <time>2016-07-03T08:34:50Z</time>
      </trkpt>
      <trkpt lat="49.07695" lon="7.67872">
        <ele>277.72698680394</ele>
        <time>2016-07-03T08:34:55Z</time>
      </trkpt>
      <trkpt lat="49.07697" lon="7.67878">
        <ele>278.03202550309</ele>
        <time>2016-07-03T08:35:00Z</time>
      </trkpt>
      <trkpt lat="49.07699" lon="7.67883">
        <ele>278.20456265668</ele>
        <time>2016-07-03T08:35:05Z</time>
      </trkpt>
      <trkpt lat="49.07702" lon="7.67887">
        <ele>278.23971448979</ele>
        <time>2016-07-03T08:35:09Z</time>
      </trkpt>
      <trkpt lat="49.07703" lon="7.67896">
        <ele>278.57343773881</ele>
        <time>2016-07-03T08:35:14Z</time>
      </trkpt>
      <trkpt lat="49.07705" lon="7.67902">
        <ele>278.73841756298</ele>
        <time>2016-07-03T08:35:18Z</time>
      </trkpt>
      <trkpt lat="49.07707" lon="7.67907">
        <ele>278.85903776298</ele>
        <time>2016-07-03T08:35:27Z</time>
      </trkpt>
      <trkpt lat="49.07711" lon="7.67911">
        <ele>278.75620733098</ele>
        <time>2016-07-03T08:35:36Z</time>
      </trkpt>
      <trkpt lat="49.07712" lon="7.67917">
        <ele>279.1944143976</ele>
        <time>2016-07-03T08:35:42Z</time>
      </trkpt>
      <trkpt lat="49.07714" lon="7.67925">
        <ele>279.22566805654</ele>
        <time>2016-07-03T08:35:47Z</time>
      </trkpt>
      <trkpt lat="49.07718" lon="7.67934">
        <ele>279.08437987523</ele>
        <time>2016-07-03T08:35:51Z</time>
      </trkpt>
      <trkpt lat="49.07721" lon="7.67938">
        <ele>279.42138590354</ele>
        <time>2016-07-03T08:35:55Z</time>
      </trkpt>
      <trkpt lat="49.07724" lon="7.67945">
        <ele>279.85845208192</ele>
        <time>2016-07-03T08:36:00Z</time>
      </trkpt>
      <trkpt lat="49.07727" lon="7.67951">
        <ele>280.22267955215</ele>
        <time>2016-07-03T08:36:04Z</time>
      </trkpt>
      <trkpt lat="49.07729" lon="7.67956">
        <ele>280.56450233763</ele>
        <time>2016-07-03T08:36:10Z</time>
      </trkpt>
      <trkpt lat="49.07732" lon="7.67961">
        <ele>280.33264912024</ele>
        <time>2016-07-03T08:36:14Z</time>
      </trkpt>
      <trkpt lat="49.07734" lon="7.67967">
        <ele>280.29569898871</ele>
        <time>2016-07-03T08:36:20Z</time>
      </trkpt>
      <trkpt lat="49.07739" lon="7.67973">
        <ele>280.10969332211</ele>
        <time>2016-07-03T08:36:25Z</time>
      </trkpt>
      <trkpt lat="49.07743" lon="7.67976">
        <ele>280.13610837916</ele>
        <time>2016-07-03T08:36:32Z</time>
      </trkpt>
      <trkpt lat="49.07744" lon="7.67982">
        <ele>279.18962649049</ele>
        <time>2016-07-03T08:36:41Z</time>
      </trkpt>
      <trkpt lat="49.07746" lon="7.67986">
        <ele>278.73459255151</ele>
        <time>2016-07-03T08:36:48Z</time>
      </trkpt>
      <trkpt lat="49.07747" lon="7.67993">
        <ele>278.95830456099</ele>
        <time>2016-07-03T08:36:54Z</time>
      </trkpt>
      <trkpt lat="49.07748" lon="7.67997">
        <ele>279.8368769802</ele>
        <time>2016-07-03T08:36:59Z</time>
      </trkpt>
      <trkpt lat="49.07749" lon="7.68005">
        <ele>280.5989895996</ele>
        <time>2016-07-03T08:37:03Z</time>
      </trkpt>
      <trkpt lat="49.07752" lon="7.68015">
        <ele>281.72210012261</ele>
        <time>2016-07-03T08:37:08Z</time>
      </trkpt>
      <trkpt lat="49.07751" lon="7.6802">
        <ele>282.68716555556</ele>
        <time>2016-07-03T08:37:12Z</time>
      </trkpt>
      <trkpt lat="49.07752" lon="7.68031">
        <ele>283.45070240638</ele>
        <time>2016-07-03T08:37:17Z</time>
      </trkpt>
      <trkpt lat="49.07753" lon="7.6804">
        <ele>284.06038191452</ele>
        <time>2016-07-03T08:37:21Z</time>
      </trkpt>
      <trkpt lat="49.07756" lon="7.6805">
        <ele>284.68067292769</ele>
        <time>2016-07-03T08:37:25Z</time>
      </trkpt>
      <trkpt lat="49.07758" lon="7.6806">
        <ele>285.15947620245</ele>
        <time>2016-07-03T08:37:30Z</time>
      </trkpt>
      <trkpt lat="49.07758" lon="7.68066">
        <ele>285.26008532954</ele>
        <time>2016-07-03T08:37:34Z</time>
      </trkpt>
      <trkpt lat="49.07759" lon="7.68072">
        <ele>285.17212900546</ele>
        <time>2016-07-03T08:37:41Z</time>
      </trkpt>
      <trkpt lat="49.07759" lon="7.68078">
        <ele>285.22156771584</ele>
        <time>2016-07-03T08:37:46Z</time>
      </trkpt>
      <trkpt lat="49.07757" lon="7.68084">
        <ele>284.3944725098</ele>
        <time>2016-07-03T08:38:02Z</time>
      </trkpt>
      <trkpt lat="49.07753" lon="7.68085">
        <ele>282.30787881017</ele>
        <time>2016-07-03T08:38:16Z</time>
      </trkpt>
      <trkpt lat="49.07754" lon="7.68091">
        <ele>287.89811168109</ele>
        <time>2016-07-03T08:40:24Z</time>
      </trkpt>
      <trkpt lat="49.07753" lon="7.68097">
        <ele>286.35764369678</ele>
        <time>2016-07-03T08:40:33Z</time>
      </trkpt>
      <trkpt lat="49.07753" lon="7.68106">
        <ele>284.45493297848</ele>
        <time>2016-07-03T08:40:38Z</time>
      </trkpt>
      <trkpt lat="49.07753" lon="7.68112">
        <ele>282.8107775116</ele>
        <time>2016-07-03T08:40:42Z</time>
      </trkpt>
      <trkpt lat="49.07753" lon="7.6813">
        <ele>281.71114794857</ele>
        <time>2016-07-03T08:40:47Z</time>
      </trkpt>
      <trkpt lat="49.07757" lon="7.68141">
        <ele>281.50026140723</ele>
        <time>2016-07-03T08:40:51Z</time>
      </trkpt>
      <trkpt lat="49.07758" lon="7.68145">
        <ele>281.9280796393</ele>
        <time>2016-07-03T08:40:55Z</time>
      </trkpt>
      <trkpt lat="49.07764" lon="7.6816">
        <ele>282.04240422134</ele>
        <time>2016-07-03T08:40:59Z</time>
      </trkpt>
      <trkpt lat="49.07766" lon="7.68166">
        <ele>281.93002497138</ele>
        <time>2016-07-03T08:41:04Z</time>
      </trkpt>
      <trkpt lat="49.07767" lon="7.68172">
        <ele>282.07793701485</ele>
        <time>2016-07-03T08:41:09Z</time>
      </trkpt>
      <trkpt lat="49.07768" lon="7.68178">
        <ele>282.40722119656</ele>
        <time>2016-07-03T08:41:15Z</time>
      </trkpt>
      <trkpt lat="49.07768" lon="7.68184">
        <ele>282.42515888105</ele>
        <time>2016-07-03T08:41:22Z</time>
      </trkpt>
      <trkpt lat="49.07769" lon="7.68192">
        <ele>282.48580334117</ele>
        <time>2016-07-03T08:41:27Z</time>
      </trkpt>
      <trkpt lat="49.07771" lon="7.682">
        <ele>282.20656258887</ele>
        <time>2016-07-03T08:41:32Z</time>
      </trkpt>
      <trkpt lat="49.07774" lon="7.68208">
        <ele>281.44081604379</ele>
        <time>2016-07-03T08:41:36Z</time>
      </trkpt>
      <trkpt lat="49.07778" lon="7.68218">
        <ele>280.05333316734</ele>
        <time>2016-07-03T08:41:41Z</time>
      </trkpt>
      <trkpt lat="49.0778" lon="7.68224">
        <ele>278.25815425747</ele>
        <time>2016-07-03T08:41:48Z</time>
      </trkpt>
      <trkpt lat="49.0778" lon="7.68231">
        <ele>277.04195435331</ele>
        <time>2016-07-03T08:41:53Z</time>
      </trkpt>
      <trkpt lat="49.0778" lon="7.68239">
        <ele>275.92517239771</ele>
        <time>2016-07-03T08:41:58Z</time>
      </trkpt>
      <trkpt lat="49.07779" lon="7.68258">
        <ele>274.37403165167</ele>
        <time>2016-07-03T08:42:03Z</time>
      </trkpt>
      <trkpt lat="49.07778" lon="7.68264">
        <ele>273.33796288348</ele>
        <time>2016-07-03T08:42:07Z</time>
      </trkpt>
      <trkpt lat="49.07779" lon="7.6827">
        <ele>272.65757565961</ele>
        <time>2016-07-03T08:42:11Z</time>
      </trkpt>
      <trkpt lat="49.0778" lon="7.68279">
        <ele>271.87568288241</ele>
        <time>2016-07-03T08:42:15Z</time>
      </trkpt>
      <trkpt lat="49.0778" lon="7.68287">
        <ele>271.22292123866</ele>
        <time>2016-07-03T08:42:19Z</time>
      </trkpt>
      <trkpt lat="49.07781" lon="7.68293">
        <ele>270.75749144216</ele>
        <time>2016-07-03T08:42:23Z</time>
      </trkpt>
      <trkpt lat="49.07781" lon="7.68299">
        <ele>270.04988319352</ele>
        <time>2016-07-03T08:42:27Z</time>
      </trkpt>
      <trkpt lat="49.07782" lon="7.68306">
        <ele>268.94485614144</ele>
        <time>2016-07-03T08:42:32Z</time>
      </trkpt>
      <trkpt lat="49.07784" lon="7.68313">
        <ele>268.50025340879</ele>
        <time>2016-07-03T08:42:36Z</time>
      </trkpt>
      <trkpt lat="49.07784" lon="7.6832">
        <ele>268.3358593727</ele>
        <time>2016-07-03T08:42:41Z</time>
      </trkpt>
      <trkpt lat="49.07787" lon="7.68326">
        <ele>268.44104042608</ele>
        <time>2016-07-03T08:42:45Z</time>
      </trkpt>
      <trkpt lat="49.07792" lon="7.6833">
        <ele>268.17798524085</ele>
        <time>2016-07-03T08:42:50Z</time>
      </trkpt>
      <trkpt lat="49.07797" lon="7.68333">
        <ele>267.77772150117</ele>
        <time>2016-07-03T08:42:54Z</time>
      </trkpt>
      <trkpt lat="49.07803" lon="7.68335">
        <ele>266.92261176569</ele>
        <time>2016-07-03T08:42:59Z</time>
      </trkpt>
      <trkpt lat="49.07806" lon="7.68347">
        <ele>265.56440706587</ele>
        <time>2016-07-03T08:43:03Z</time>
      </trkpt>
      <trkpt lat="49.07807" lon="7.68348">
        <ele>264.60645259316</ele>
        <time>2016-07-03T08:43:07Z</time>
      </trkpt>
      <trkpt lat="49.07811" lon="7.68355">
        <ele>263.04476819404</ele>
        <time>2016-07-03T08:43:11Z</time>
      </trkpt>
      <trkpt lat="49.07809" lon="7.68369">
        <ele>261.85516461837</ele>
        <time>2016-07-03T08:43:15Z</time>
      </trkpt>
      <trkpt lat="49.0781" lon="7.68377">
        <ele>261.4855379886</ele>
        <time>2016-07-03T08:43:19Z</time>
      </trkpt>
      <trkpt lat="49.07814" lon="7.68392">
        <ele>261.08160257601</ele>
        <time>2016-07-03T08:43:24Z</time>
      </trkpt>
      <trkpt lat="49.07817" lon="7.68396">
        <ele>260.70294421223</ele>
        <time>2016-07-03T08:43:31Z</time>
      </trkpt>
      <trkpt lat="49.0782" lon="7.68405">
        <ele>260.75655705047</ele>
        <time>2016-07-03T08:43:35Z</time>
      </trkpt>
      <trkpt lat="49.07823" lon="7.68416">
        <ele>260.73092370774</ele>
        <time>2016-07-03T08:43:40Z</time>
      </trkpt>
      <trkpt lat="49.07825" lon="7.68421">
        <ele>260.94131056723</ele>
        <time>2016-07-03T08:43:44Z</time>
      </trkpt>
      <trkpt lat="49.07829" lon="7.68426">
        <ele>261.56176862155</ele>
        <time>2016-07-03T08:43:48Z</time>
      </trkpt>
      <trkpt lat="49.07832" lon="7.6843">
        <ele>262.65863098446</ele>
        <time>2016-07-03T08:43:52Z</time>
      </trkpt>
      <trkpt lat="49.07843" lon="7.68444">
        <ele>263.82134476752</ele>
        <time>2016-07-03T08:43:56Z</time>
      </trkpt>
      <trkpt lat="49.07848" lon="7.68447">
        <ele>264.13861548526</ele>
        <time>2016-07-03T08:44:01Z</time>
      </trkpt>
      <trkpt lat="49.07851" lon="7.68452">
        <ele>264.16697974568</ele>
        <time>2016-07-03T08:44:08Z</time>
      </trkpt>
      <trkpt lat="49.07852" lon="7.68458">
        <ele>263.8995432139</ele>
        <time>2016-07-03T08:44:13Z</time>
      </trkpt>
      <trkpt lat="49.0785" lon="7.68468">
        <ele>263.0823209977</ele>
        <time>2016-07-03T08:44:17Z</time>
      </trkpt>
      <trkpt lat="49.07852" lon="7.68477">
        <ele>262.45436657118</ele>
        <time>2016-07-03T08:44:21Z</time>
      </trkpt>
      <trkpt lat="49.07852" lon="7.68485">
        <ele>261.79538248207</ele>
        <time>2016-07-03T08:44:25Z</time>
      </trkpt>
      <trkpt lat="49.07853" lon="7.6849">
        <ele>260.74265653263</ele>
        <time>2016-07-03T08:44:30Z</time>
      </trkpt>
      <trkpt lat="49.07857" lon="7.68495">
        <ele>260.10520991641</ele>
        <time>2016-07-03T08:44:35Z</time>
      </trkpt>
      <trkpt lat="49.07861" lon="7.68502">
        <ele>260.15854151784</ele>
        <time>2016-07-03T08:44:39Z</time>
      </trkpt>
      <trkpt lat="49.07862" lon="7.68507">
        <ele>259.83421604045</ele>
        <time>2016-07-03T08:44:43Z</time>
      </trkpt>
      <trkpt lat="49.07865" lon="7.68513">
        <ele>259.11128782594</ele>
        <time>2016-07-03T08:44:47Z</time>
      </trkpt>
      <trkpt lat="49.07866" lon="7.68522">
        <ele>258.1326489972</ele>
        <time>2016-07-03T08:44:52Z</time>
      </trkpt>
      <trkpt lat="49.07867" lon="7.68532">
        <ele>257.35337353809</ele>
        <time>2016-07-03T08:44:57Z</time>
      </trkpt>
      <trkpt lat="49.07869" lon="7.68538">
        <ele>257.10523603714</ele>
        <time>2016-07-03T08:45:02Z</time>
      </trkpt>
      <trkpt lat="49.0787" lon="7.68553">
        <ele>256.37934824643</ele>
        <time>2016-07-03T08:45:06Z</time>
      </trkpt>
      <trkpt lat="49.07869" lon="7.68561">
        <ele>255.76784542768</ele>
        <time>2016-07-03T08:45:10Z</time>
      </trkpt>
      <trkpt lat="49.07875" lon="7.68575">
        <ele>255.05967596845</ele>
        <time>2016-07-03T08:45:15Z</time>
      </trkpt>
      <trkpt lat="49.07878" lon="7.6858">
        <ele>253.9297865197</ele>
        <time>2016-07-03T08:45:22Z</time>
      </trkpt>
      <trkpt lat="49.07881" lon="7.68581">
        <ele>253.99656919261</ele>
        <time>2016-07-03T08:45:27Z</time>
      </trkpt>
      <trkpt lat="49.0789" lon="7.68592">
        <ele>254.72309230883</ele>
        <time>2016-07-03T08:45:32Z</time>
      </trkpt>
      <trkpt lat="49.07891" lon="7.68597">
        <ele>255.25713268687</ele>
        <time>2016-07-03T08:45:36Z</time>
      </trkpt>
      <trkpt lat="49.07894" lon="7.68602">
        <ele>255.30068453394</ele>
        <time>2016-07-03T08:45:42Z</time>
      </trkpt>
      <trkpt lat="49.07897" lon="7.68612">
        <ele>255.36035851731</ele>
        <time>2016-07-03T08:45:46Z</time>
      </trkpt>
      <trkpt lat="49.079" lon="7.68615">
        <ele>256.39476044034</ele>
        <time>2016-07-03T08:45:50Z</time>
      </trkpt>
      <trkpt lat="49.07904" lon="7.6862">
        <ele>257.17115236069</ele>
        <time>2016-07-03T08:45:54Z</time>
      </trkpt>
      <trkpt lat="49.07906" lon="7.68626">
        <ele>256.70429388353</ele>
        <time>2016-07-03T08:45:59Z</time>
      </trkpt>
      <trkpt lat="49.07908" lon="7.68631">
        <ele>255.10013992444</ele>
        <time>2016-07-03T08:46:04Z</time>
      </trkpt>
      <trkpt lat="49.07912" lon="7.68634">
        <ele>254.41198295423</ele>
        <time>2016-07-03T08:46:09Z</time>
      </trkpt>
      <trkpt lat="49.07916" lon="7.68638">
        <ele>254.15550079825</ele>
        <time>2016-07-03T08:46:14Z</time>
      </trkpt>
      <trkpt lat="49.0792" lon="7.68648">
        <ele>253.46916279258</ele>
        <time>2016-07-03T08:46:19Z</time>
      </trkpt>
      <trkpt lat="49.07921" lon="7.68656">
        <ele>253.18782616493</ele>
        <time>2016-07-03T08:46:23Z</time>
      </trkpt>
      <trkpt lat="49.07921" lon="7.68662">
        <ele>252.84746407744</ele>
        <time>2016-07-03T08:46:27Z</time>
      </trkpt>
      <trkpt lat="49.07921" lon="7.6867">
        <ele>253.1379855812</ele>
        <time>2016-07-03T08:46:31Z</time>
      </trkpt>
      <trkpt lat="49.07921" lon="7.68678">
        <ele>254.02552920776</ele>
        <time>2016-07-03T08:46:35Z</time>
      </trkpt>
      <trkpt lat="49.07921" lon="7.68686">
        <ele>254.6674739826</ele>
        <time>2016-07-03T08:46:39Z</time>
      </trkpt>
      <trkpt lat="49.07921" lon="7.68693">
        <ele>255.34726310689</ele>
        <time>2016-07-03T08:46:43Z</time>
      </trkpt>
      <trkpt lat="49.07922" lon="7.68704">
        <ele>255.63957200121</ele>
        <time>2016-07-03T08:46:48Z</time>
      </trkpt>
      <trkpt lat="49.07923" lon="7.68709">
        <ele>255.55306539865</ele>
        <time>2016-07-03T08:46:52Z</time>
      </trkpt>
      <trkpt lat="49.07924" lon="7.68716">
        <ele>254.90407445724</ele>
        <time>2016-07-03T08:46:57Z</time>
      </trkpt>
      <trkpt lat="49.07924" lon="7.68723">
        <ele>253.9645089455</ele>
        <time>2016-07-03T08:47:02Z</time>
      </trkpt>
      <trkpt lat="49.07926" lon="7.68729">
        <ele>253.12189809923</ele>
        <time>2016-07-03T08:47:06Z</time>
      </trkpt>
      <trkpt lat="49.07927" lon="7.68738">
        <ele>251.43765101545</ele>
        <time>2016-07-03T08:47:11Z</time>
      </trkpt>
      <trkpt lat="49.07931" lon="7.68744">
        <ele>250.36728296214</ele>
        <time>2016-07-03T08:47:15Z</time>
      </trkpt>
      <trkpt lat="49.07938" lon="7.68752">
        <ele>248.97675692171</ele>
        <time>2016-07-03T08:47:20Z</time>
      </trkpt>
      <trkpt lat="49.07941" lon="7.68757">
        <ele>248.47658572645</ele>
        <time>2016-07-03T08:47:26Z</time>
      </trkpt>
      <trkpt lat="49.07943" lon="7.68762">
        <ele>247.89676879099</ele>
        <time>2016-07-03T08:47:32Z</time>
      </trkpt>
      <trkpt lat="49.07946" lon="7.68767">
        <ele>246.76841671906</ele>
        <time>2016-07-03T08:47:38Z</time>
      </trkpt>
      <trkpt lat="49.07946" lon="7.68773">
        <ele>246.06304435646</ele>
        <time>2016-07-03T08:47:42Z</time>
      </trkpt>
      <trkpt lat="49.07949" lon="7.68778">
        <ele>245.30546671256</ele>
        <time>2016-07-03T08:47:48Z</time>
      </trkpt>
      <trkpt lat="49.07952" lon="7.68786">
        <ele>244.29068775746</ele>
        <time>2016-07-03T08:47:52Z</time>
      </trkpt>
      <trkpt lat="49.07955" lon="7.68791">
        <ele>242.44862162778</ele>
        <time>2016-07-03T08:47:58Z</time>
      </trkpt>
      <trkpt lat="49.07959" lon="7.68793">
        <ele>240.93539333098</ele>
        <time>2016-07-03T08:48:03Z</time>
      </trkpt>
      <trkpt lat="49.07961" lon="7.68798">
        <ele>239.47622294432</ele>
        <time>2016-07-03T08:48:07Z</time>
      </trkpt>
      <trkpt lat="49.07961" lon="7.68804">
        <ele>237.95425774767</ele>
        <time>2016-07-03T08:48:11Z</time>
      </trkpt>
      <trkpt lat="49.07964" lon="7.68812">
        <ele>237.00980427653</ele>
        <time>2016-07-03T08:48:16Z</time>
      </trkpt>
      <trkpt lat="49.07965" lon="7.68819">
        <ele>235.10764509078</ele>
        <time>2016-07-03T08:48:21Z</time>
      </trkpt>
      <trkpt lat="49.0797" lon="7.68825">
        <ele>233.46344995883</ele>
        <time>2016-07-03T08:48:25Z</time>
      </trkpt>
      <trkpt lat="49.07977" lon="7.68835">
        <ele>231.91553757401</ele>
        <time>2016-07-03T08:48:29Z</time>
      </trkpt>
      <trkpt lat="49.07985" lon="7.68843">
        <ele>230.38128314937</ele>
        <time>2016-07-03T08:48:34Z</time>
      </trkpt>
      <trkpt lat="49.07987" lon="7.68851">
        <ele>229.26247415396</ele>
        <time>2016-07-03T08:48:38Z</time>
      </trkpt>
      <trkpt lat="49.07989" lon="7.68855">
        <ele>228.4689277067</ele>
        <time>2016-07-03T08:48:44Z</time>
      </trkpt>
      <trkpt lat="49.07992" lon="7.6886">
        <ele>228.71544194329</ele>
        <time>2016-07-03T08:48:48Z</time>
      </trkpt>
      <trkpt lat="49.07994" lon="7.6887">
        <ele>229.18397623332</ele>
        <time>2016-07-03T08:48:52Z</time>
      </trkpt>
      <trkpt lat="49.07996" lon="7.68874">
        <ele>229.31123393426</ele>
        <time>2016-07-03T08:48:56Z</time>
      </trkpt>
      <trkpt lat="49.08" lon="7.68879">
        <ele>229.34056793786</ele>
        <time>2016-07-03T08:49:01Z</time>
      </trkpt>
      <trkpt lat="49.08004" lon="7.68887">
        <ele>229.95713513407</ele>
        <time>2016-07-03T08:49:05Z</time>
      </trkpt>
      <trkpt lat="49.08006" lon="7.6889">
        <ele>231.26603472513</ele>
        <time>2016-07-03T08:49:10Z</time>
      </trkpt>
      <trkpt lat="49.08008" lon="7.68898">
        <ele>231.6707570132</ele>
        <time>2016-07-03T08:49:14Z</time>
      </trkpt>
      <trkpt lat="49.08008" lon="7.68902">
        <ele>231.77753766903</ele>
        <time>2016-07-03T08:49:20Z</time>
      </trkpt>
      <trkpt lat="49.08017" lon="7.68912">
        <ele>232.15315908437</ele>
        <time>2016-07-03T08:49:24Z</time>
      </trkpt>
      <trkpt lat="49.08021" lon="7.68934">
        <ele>232.82654619967</ele>
        <time>2016-07-03T08:49:29Z</time>
      </trkpt>
      <trkpt lat="49.08024" lon="7.68938">
        <ele>233.31901580983</ele>
        <time>2016-07-03T08:49:34Z</time>
      </trkpt>
      <trkpt lat="49.08026" lon="7.68944">
        <ele>233.3512562224</ele>
        <time>2016-07-03T08:49:39Z</time>
      </trkpt>
      <trkpt lat="49.08029" lon="7.68952">
        <ele>233.17283038951</ele>
        <time>2016-07-03T08:49:44Z</time>
      </trkpt>
      <trkpt lat="49.08031" lon="7.68957">
        <ele>232.57253976748</ele>
        <time>2016-07-03T08:49:50Z</time>
      </trkpt>
      <trkpt lat="49.08033" lon="7.68962">
        <ele>232.44529654538</ele>
        <time>2016-07-03T08:49:54Z</time>
      </trkpt>
      <trkpt lat="49.0804" lon="7.68974">
        <ele>232.4055858446</ele>
        <time>2016-07-03T08:49:59Z</time>
      </trkpt>
      <trkpt lat="49.08041" lon="7.6898">
        <ele>232.2852329838</ele>
        <time>2016-07-03T08:50:03Z</time>
      </trkpt>
      <trkpt lat="49.08044" lon="7.68984">
        <ele>232.37039273274</ele>
        <time>2016-07-03T08:50:10Z</time>
      </trkpt>
      <trkpt lat="49.08048" lon="7.68991">
        <ele>233.17182513303</ele>
        <time>2016-07-03T08:50:14Z</time>
      </trkpt>
      <trkpt lat="49.08051" lon="7.68999">
        <ele>234.6794940435</ele>
        <time>2016-07-03T08:50:19Z</time>
      </trkpt>
      <trkpt lat="49.08052" lon="7.69004">
        <ele>237.30559116451</ele>
        <time>2016-07-03T08:50:27Z</time>
      </trkpt>
      <trkpt lat="49.08053" lon="7.69013">
        <ele>238.40765357759</ele>
        <time>2016-07-03T08:50:31Z</time>
      </trkpt>
      <trkpt lat="49.08052" lon="7.69019">
        <ele>241.91874513029</ele>
        <time>2016-07-03T08:50:45Z</time>
      </trkpt>
      <trkpt lat="49.08048" lon="7.69022">
        <ele>243.41422277243</ele>
        <time>2016-07-03T08:51:00Z</time>
      </trkpt>
      <trkpt lat="49.0805" lon="7.69028">
        <ele>238.61455295925</ele>
        <time>2016-07-03T08:53:27Z</time>
      </trkpt>
      <trkpt lat="49.08053" lon="7.69033">
        <ele>237.70730518425</ele>
        <time>2016-07-03T08:53:31Z</time>
      </trkpt>
      <trkpt lat="49.08057" lon="7.69043">
        <ele>237.31953109867</ele>
        <time>2016-07-03T08:53:36Z</time>
      </trkpt>
      <trkpt lat="49.08061" lon="7.69049">
        <ele>237.47894009688</ele>
        <time>2016-07-03T08:53:40Z</time>
      </trkpt>
      <trkpt lat="49.08067" lon="7.69059">
        <ele>237.7735148875</ele>
        <time>2016-07-03T08:53:45Z</time>
      </trkpt>
      <trkpt lat="49.08074" lon="7.69069">
        <ele>237.74747988092</ele>
        <time>2016-07-03T08:53:49Z</time>
      </trkpt>
      <trkpt lat="49.08078" lon="7.69072">
        <ele>237.6998456963</ele>
        <time>2016-07-03T08:53:54Z</time>
      </trkpt>
      <trkpt lat="49.08081" lon="7.69076">
        <ele>237.55170191626</ele>
        <time>2016-07-03T08:54:00Z</time>
      </trkpt>
      <trkpt lat="49.08083" lon="7.69082">
        <ele>238.09803527859</ele>
        <time>2016-07-03T08:54:07Z</time>
      </trkpt>
      <trkpt lat="49.08083" lon="7.69087">
        <ele>239.21962890746</ele>
        <time>2016-07-03T08:54:12Z</time>
      </trkpt>
      <trkpt lat="49.08085" lon="7.69097">
        <ele>240.71908214937</ele>
        <time>2016-07-03T08:54:17Z</time>
      </trkpt>
      <trkpt lat="49.08087" lon="7.69103">
        <ele>241.19267651774</ele>
        <time>2016-07-03T08:54:21Z</time>
      </trkpt>
      <trkpt lat="49.08089" lon="7.6912">
        <ele>242.09704764051</ele>
        <time>2016-07-03T08:54:25Z</time>
      </trkpt>
      <trkpt lat="49.08092" lon="7.69133">
        <ele>242.99486553057</ele>
        <time>2016-07-03T08:54:30Z</time>
      </trkpt>
      <trkpt lat="49.08092" lon="7.69139">
        <ele>243.54981003861</ele>
        <time>2016-07-03T08:54:35Z</time>
      </trkpt>
      <trkpt lat="49.08094" lon="7.69145">
        <ele>244.11139354355</ele>
        <time>2016-07-03T08:54:39Z</time>
      </trkpt>
      <trkpt lat="49.08096" lon="7.69156">
        <ele>244.80791891376</ele>
        <time>2016-07-03T08:54:44Z</time>
      </trkpt>
      <trkpt lat="49.08096" lon="7.69162">
        <ele>246.15423554738</ele>
        <time>2016-07-03T08:54:51Z</time>
      </trkpt>
      <trkpt lat="49.08098" lon="7.69167">
        <ele>246.22182183902</ele>
        <time>2016-07-03T08:54:55Z</time>
      </trkpt>
      <trkpt lat="49.08101" lon="7.69177">
        <ele>246.17463179843</ele>
        <time>2016-07-03T08:55:00Z</time>
      </trkpt>
      <trkpt lat="49.08099" lon="7.69179">
        <ele>245.51483923338</ele>
        <time>2016-07-03T08:55:06Z</time>
      </trkpt>
      <trkpt lat="49.08096" lon="7.69182">
        <ele>243.26827469344</ele>
        <time>2016-07-03T08:55:20Z</time>
      </trkpt>
      <trkpt lat="49.08098" lon="7.69186">
        <ele>240.74906695672</ele>
        <time>2016-07-03T08:55:27Z</time>
      </trkpt>
      <trkpt lat="49.08104" lon="7.692">
        <ele>238.4276526585</ele>
        <time>2016-07-03T08:55:32Z</time>
      </trkpt>
      <trkpt lat="49.08106" lon="7.6921">
        <ele>236.68286331442</ele>
        <time>2016-07-03T08:55:36Z</time>
      </trkpt>
      <trkpt lat="49.08108" lon="7.69216">
        <ele>234.58805738687</ele>
        <time>2016-07-03T08:55:41Z</time>
      </trkpt>
      <trkpt lat="49.08108" lon="7.69221">
        <ele>232.39562458812</ele>
        <time>2016-07-03T08:55:47Z</time>
      </trkpt>
      <trkpt lat="49.08106" lon="7.69227">
        <ele>231.23516217879</ele>
        <time>2016-07-03T08:55:52Z</time>
      </trkpt>
      <trkpt lat="49.08102" lon="7.69229">
        <ele>231.72693125148</ele>
        <time>2016-07-03T08:56:01Z</time>
      </trkpt>
      <trkpt lat="49.08097" lon="7.69231">
        <ele>232.23602640887</ele>
        <time>2016-07-03T08:56:05Z</time>
      </trkpt>
      <trkpt lat="49.08094" lon="7.69235">
        <ele>233.2413426109</ele>
        <time>2016-07-03T08:56:10Z</time>
      </trkpt>
      <trkpt lat="49.08091" lon="7.69237">
        <ele>234.71393469201</ele>
        <time>2016-07-03T08:56:22Z</time>
      </trkpt>
      <trkpt lat="49.08088" lon="7.69241">
        <ele>235.01509953764</ele>
        <time>2016-07-03T08:56:27Z</time>
      </trkpt>
      <trkpt lat="49.08079" lon="7.69251">
        <ele>235.05220062462</ele>
        <time>2016-07-03T08:56:31Z</time>
      </trkpt>
      <trkpt lat="49.08073" lon="7.69251">
        <ele>235.00142748253</ele>
        <time>2016-07-03T08:56:35Z</time>
      </trkpt>
      <trkpt lat="49.08068" lon="7.69253">
        <ele>235.2020246481</ele>
        <time>2016-07-03T08:56:39Z</time>
      </trkpt>
      <trkpt lat="49.08065" lon="7.69255">
        <ele>235.70995662421</ele>
        <time>2016-07-03T08:56:47Z</time>
      </trkpt>
      <trkpt lat="49.08058" lon="7.69262">
        <ele>236.09199022408</ele>
        <time>2016-07-03T08:56:51Z</time>
      </trkpt>
      <trkpt lat="49.08047" lon="7.69269">
        <ele>236.43589014622</ele>
        <time>2016-07-03T08:56:55Z</time>
      </trkpt>
      <trkpt lat="49.08041" lon="7.69273">
        <ele>237.35817231479</ele>
        <time>2016-07-03T08:57:00Z</time>
      </trkpt>
      <trkpt lat="49.08037" lon="7.69276">
        <ele>237.94811783848</ele>
        <time>2016-07-03T08:57:04Z</time>
      </trkpt>
      <trkpt lat="49.08034" lon="7.69278">
        <ele>238.71548075693</ele>
        <time>2016-07-03T08:57:09Z</time>
      </trkpt>
      <trkpt lat="49.08031" lon="7.69286">
        <ele>238.86619864297</ele>
        <time>2016-07-03T08:57:13Z</time>
      </trkpt>
      <trkpt lat="49.08028" lon="7.69289">
        <ele>239.34673596128</ele>
        <time>2016-07-03T08:57:17Z</time>
      </trkpt>
      <trkpt lat="49.08024" lon="7.69291">
        <ele>239.69046661422</ele>
        <time>2016-07-03T08:57:21Z</time>
      </trkpt>
      <trkpt lat="49.08017" lon="7.69295">
        <ele>239.63924055365</ele>
        <time>2016-07-03T08:57:25Z</time>
      </trkpt>
      <trkpt lat="49.08013" lon="7.69296">
        <ele>239.50749510389</ele>
        <time>2016-07-03T08:57:29Z</time>
      </trkpt>
      <trkpt lat="49.08008" lon="7.69299">
        <ele>239.33339958816</ele>
        <time>2016-07-03T08:57:33Z</time>
      </trkpt>
      <trkpt lat="49.08004" lon="7.69301">
        <ele>239.27481951942</ele>
        <time>2016-07-03T08:57:38Z</time>
      </trkpt>
      <trkpt lat="49.08" lon="7.69304">
        <ele>239.6333016495</ele>
        <time>2016-07-03T08:57:43Z</time>
      </trkpt>
      <trkpt lat="49.07996" lon="7.69307">
        <ele>239.74375013822</ele>
        <time>2016-07-03T08:57:48Z</time>
      </trkpt>
      <trkpt lat="49.07992" lon="7.69307">
        <ele>239.88105014771</ele>
        <time>2016-07-03T08:57:54Z</time>
      </trkpt>
      <trkpt lat="49.07988" lon="7.69311">
        <ele>239.65580628914</ele>
        <time>2016-07-03T08:57:58Z</time>
      </trkpt>
      <trkpt lat="49.07977" lon="7.69319">
        <ele>239.15236801458</ele>
        <time>2016-07-03T08:58:03Z</time>
      </trkpt>
      <trkpt lat="49.07973" lon="7.69319">
        <ele>238.70419579682</ele>
        <time>2016-07-03T08:58:08Z</time>
      </trkpt>
      <trkpt lat="49.0797" lon="7.69323">
        <ele>238.74117662498</ele>
        <time>2016-07-03T08:58:13Z</time>
      </trkpt>
      <trkpt lat="49.07967" lon="7.69327">
        <ele>239.43515042105</ele>
        <time>2016-07-03T08:58:17Z</time>
      </trkpt>
      <trkpt lat="49.07962" lon="7.6933">
        <ele>240.0239025845</ele>
        <time>2016-07-03T08:58:21Z</time>
      </trkpt>
      <trkpt lat="49.07958" lon="7.6934">
        <ele>240.03211128121</ele>
        <time>2016-07-03T08:58:25Z</time>
      </trkpt>
      <trkpt lat="49.07959" lon="7.69347">
        <ele>240.11222758281</ele>
        <time>2016-07-03T08:58:29Z</time>
      </trkpt>
      <trkpt lat="49.0796" lon="7.69353">
        <ele>239.74293438524</ele>
        <time>2016-07-03T08:58:35Z</time>
      </trkpt>
      <trkpt lat="49.07962" lon="7.69357">
        <ele>238.91049636339</ele>
        <time>2016-07-03T08:58:41Z</time>
      </trkpt>
      <trkpt lat="49.07964" lon="7.69362">
        <ele>238.46874319408</ele>
        <time>2016-07-03T08:58:45Z</time>
      </trkpt>
      <trkpt lat="49.07967" lon="7.69369">
        <ele>238.00247444569</ele>
        <time>2016-07-03T08:58:50Z</time>
      </trkpt>
      <trkpt lat="49.07971" lon="7.69378">
        <ele>238.01285451348</ele>
        <time>2016-07-03T08:58:55Z</time>
      </trkpt>
      <trkpt lat="49.07973" lon="7.69385">
        <ele>237.65166253628</ele>
        <time>2016-07-03T08:59:00Z</time>
      </trkpt>
      <trkpt lat="49.07974" lon="7.6939">
        <ele>237.42289853307</ele>
        <time>2016-07-03T08:59:05Z</time>
      </trkpt>
      <trkpt lat="49.07977" lon="7.69398">
        <ele>237.30691480106</ele>
        <time>2016-07-03T08:59:10Z</time>
      </trkpt>
      <trkpt lat="49.07979" lon="7.69403">
        <ele>237.21636004615</ele>
        <time>2016-07-03T08:59:15Z</time>
      </trkpt>
      <trkpt lat="49.07981" lon="7.69409">
        <ele>237.00167835736</ele>
        <time>2016-07-03T08:59:19Z</time>
      </trkpt>
      <trkpt lat="49.07983" lon="7.69416">
        <ele>236.71317754915</ele>
        <time>2016-07-03T08:59:23Z</time>
      </trkpt>
      <trkpt lat="49.07987" lon="7.69423">
        <ele>236.65213456824</ele>
        <time>2016-07-03T08:59:27Z</time>
      </trkpt>
      <trkpt lat="49.07987" lon="7.69429">
        <ele>236.70889402047</ele>
        <time>2016-07-03T08:59:31Z</time>
      </trkpt>
      <trkpt lat="49.0799" lon="7.69439">
        <ele>237.02952156915</ele>
        <time>2016-07-03T08:59:36Z</time>
      </trkpt>
      <trkpt lat="49.07994" lon="7.69445">
        <ele>237.11375760741</ele>
        <time>2016-07-03T08:59:40Z</time>
      </trkpt>
      <trkpt lat="49.07997" lon="7.69452">
        <ele>237.50040329662</ele>
        <time>2016-07-03T08:59:45Z</time>
      </trkpt>
      <trkpt lat="49.07999" lon="7.69458">
        <ele>237.71717562292</ele>
        <time>2016-07-03T08:59:50Z</time>
      </trkpt>
      <trkpt lat="49.08002" lon="7.69468">
        <ele>237.94506558061</ele>
        <time>2016-07-03T08:59:55Z</time>
      </trkpt>
      <trkpt lat="49.08004" lon="7.69475">
        <ele>238.30364789195</ele>
        <time>2016-07-03T09:00:00Z</time>
      </trkpt>
      <trkpt lat="49.08007" lon="7.69479">
        <ele>238.54554361864</ele>
        <time>2016-07-03T09:00:06Z</time>
      </trkpt>
      <trkpt lat="49.08009" lon="7.69486">
        <ele>238.03858224682</ele>
        <time>2016-07-03T09:00:11Z</time>
      </trkpt>
      <trkpt lat="49.08013" lon="7.69497">
        <ele>237.46673940498</ele>
        <time>2016-07-03T09:00:16Z</time>
      </trkpt>
      <trkpt lat="49.08015" lon="7.69503">
        <ele>237.33299369161</ele>
        <time>2016-07-03T09:00:20Z</time>
      </trkpt>
      <trkpt lat="49.08016" lon="7.6951">
        <ele>237.08101937711</ele>
        <time>2016-07-03T09:00:25Z</time>
      </trkpt>
      <trkpt lat="49.08016" lon="7.69516">
        <ele>236.43602346665</ele>
        <time>2016-07-03T09:00:32Z</time>
      </trkpt>
      <trkpt lat="49.08022" lon="7.69528">
        <ele>236.07820746688</ele>
        <time>2016-07-03T09:00:37Z</time>
      </trkpt>
      <trkpt lat="49.08023" lon="7.69537">
        <ele>236.20997649858</ele>
        <time>2016-07-03T09:00:42Z</time>
      </trkpt>
      <trkpt lat="49.08024" lon="7.69544">
        <ele>235.6510116203</ele>
        <time>2016-07-03T09:00:50Z</time>
      </trkpt>
      <trkpt lat="49.08027" lon="7.69551">
        <ele>235.3925925851</ele>
        <time>2016-07-03T09:00:55Z</time>
      </trkpt>
      <trkpt lat="49.08032" lon="7.69558">
        <ele>234.61908960333</ele>
        <time>2016-07-03T09:00:59Z</time>
      </trkpt>
      <trkpt lat="49.08035" lon="7.69567">
        <ele>233.78055133365</ele>
        <time>2016-07-03T09:01:03Z</time>
      </trkpt>
      <trkpt lat="49.08036" lon="7.69575">
        <ele>232.7989508134</ele>
        <time>2016-07-03T09:01:07Z</time>
      </trkpt>
      <trkpt lat="49.08039" lon="7.6958">
        <ele>232.16176814743</ele>
        <time>2016-07-03T09:01:12Z</time>
      </trkpt>
      <trkpt lat="49.0804" lon="7.69588">
        <ele>231.75035740019</ele>
        <time>2016-07-03T09:01:17Z</time>
      </trkpt>
      <trkpt lat="49.0804" lon="7.69594">
        <ele>231.68612173442</ele>
        <time>2016-07-03T09:01:22Z</time>
      </trkpt>
      <trkpt lat="49.08041" lon="7.696">
        <ele>231.12522117127</ele>
        <time>2016-07-03T09:01:28Z</time>
      </trkpt>
      <trkpt lat="49.08045" lon="7.69607">
        <ele>229.78495430002</ele>
        <time>2016-07-03T09:01:33Z</time>
      </trkpt>
      <trkpt lat="49.08046" lon="7.69619">
        <ele>229.22014075774</ele>
        <time>2016-07-03T09:01:37Z</time>
      </trkpt>
      <trkpt lat="49.08052" lon="7.69625">
        <ele>227.79597145143</ele>
        <time>2016-07-03T09:01:41Z</time>
      </trkpt>
      <trkpt lat="49.08058" lon="7.69633">
        <ele>226.73168615752</ele>
        <time>2016-07-03T09:01:45Z</time>
      </trkpt>
      <trkpt lat="49.08059" lon="7.69647">
        <ele>226.31046193049</ele>
        <time>2016-07-03T09:01:50Z</time>
      </trkpt>
      <trkpt lat="49.08062" lon="7.69652">
        <ele>226.89052986855</ele>
        <time>2016-07-03T09:01:54Z</time>
      </trkpt>
      <trkpt lat="49.08063" lon="7.69659">
        <ele>227.72904531048</ele>
        <time>2016-07-03T09:01:59Z</time>
      </trkpt>
      <trkpt lat="49.08067" lon="7.69665">
        <ele>228.92376797475</ele>
        <time>2016-07-03T09:02:04Z</time>
      </trkpt>
      <trkpt lat="49.08069" lon="7.6967">
        <ele>230.24825455663</ele>
        <time>2016-07-03T09:02:09Z</time>
      </trkpt>
      <trkpt lat="49.08072" lon="7.69676">
        <ele>231.57985643631</ele>
        <time>2016-07-03T09:02:14Z</time>
      </trkpt>
      <trkpt lat="49.08073" lon="7.69683">
        <ele>231.92699424586</ele>
        <time>2016-07-03T09:02:18Z</time>
      </trkpt>
      <trkpt lat="49.08074" lon="7.6969">
        <ele>232.06769237869</ele>
        <time>2016-07-03T09:02:22Z</time>
      </trkpt>
      <trkpt lat="49.08076" lon="7.69697">
        <ele>232.0670392206</ele>
        <time>2016-07-03T09:02:26Z</time>
      </trkpt>
      <trkpt lat="49.08078" lon="7.69702">
        <ele>232.78190067223</ele>
        <time>2016-07-03T09:02:30Z</time>
      </trkpt>
      <trkpt lat="49.08079" lon="7.69708">
        <ele>233.71022584234</ele>
        <time>2016-07-03T09:02:35Z</time>
      </trkpt>
      <trkpt lat="49.08081" lon="7.69715">
        <ele>234.75383927042</ele>
        <time>2016-07-03T09:02:39Z</time>
      </trkpt>
      <trkpt lat="49.08081" lon="7.69722">
        <ele>236.1474054424</ele>
        <time>2016-07-03T09:02:43Z</time>
      </trkpt>
      <trkpt lat="49.08079" lon="7.6973">
        <ele>237.80931177509</ele>
        <time>2016-07-03T09:02:48Z</time>
      </trkpt>
      <trkpt lat="49.08076" lon="7.69738">
        <ele>239.21765804181</ele>
        <time>2016-07-03T09:02:52Z</time>
      </trkpt>
      <trkpt lat="49.08073" lon="7.69749">
        <ele>241.18453811129</ele>
        <time>2016-07-03T09:02:57Z</time>
      </trkpt>
      <trkpt lat="49.08071" lon="7.69755">
        <ele>242.86304872969</ele>
        <time>2016-07-03T09:03:03Z</time>
      </trkpt>
      <trkpt lat="49.0807" lon="7.69761">
        <ele>244.17735844655</ele>
        <time>2016-07-03T09:03:08Z</time>
      </trkpt>
      <trkpt lat="49.08068" lon="7.69766">
        <ele>244.97706063284</ele>
        <time>2016-07-03T09:03:12Z</time>
      </trkpt>
      <trkpt lat="49.08065" lon="7.69773">
        <ele>245.79549142687</ele>
        <time>2016-07-03T09:03:16Z</time>
      </trkpt>
      <trkpt lat="49.08064" lon="7.6978">
        <ele>246.58294792472</ele>
        <time>2016-07-03T09:03:21Z</time>
      </trkpt>
      <trkpt lat="49.08063" lon="7.69787">
        <ele>247.03566485751</ele>
        <time>2016-07-03T09:03:25Z</time>
      </trkpt>
      <trkpt lat="49.0806" lon="7.69796">
        <ele>247.16650046879</ele>
        <time>2016-07-03T09:03:29Z</time>
      </trkpt>
      <trkpt lat="49.0806" lon="7.69803">
        <ele>246.94431409647</ele>
        <time>2016-07-03T09:03:35Z</time>
      </trkpt>
      <trkpt lat="49.08059" lon="7.69809">
        <ele>246.28974260067</ele>
        <time>2016-07-03T09:03:41Z</time>
      </trkpt>
      <trkpt lat="49.08059" lon="7.69814">
        <ele>245.95261494851</ele>
        <time>2016-07-03T09:03:46Z</time>
      </trkpt>
      <trkpt lat="49.08059" lon="7.69821">
        <ele>246.39115528081</ele>
        <time>2016-07-03T09:03:51Z</time>
      </trkpt>
      <trkpt lat="49.08061" lon="7.69833">
        <ele>246.52116631128</ele>
        <time>2016-07-03T09:03:55Z</time>
      </trkpt>
      <trkpt lat="49.08061" lon="7.6984">
        <ele>245.69928674245</ele>
        <time>2016-07-03T09:03:59Z</time>
      </trkpt>
      <trkpt lat="49.08059" lon="7.69847">
        <ele>244.10257047819</ele>
        <time>2016-07-03T09:04:04Z</time>
      </trkpt>
      <trkpt lat="49.0806" lon="7.69853">
        <ele>242.42369577621</ele>
        <time>2016-07-03T09:04:09Z</time>
      </trkpt>
      <trkpt lat="49.0806" lon="7.6986">
        <ele>239.53482090083</ele>
        <time>2016-07-03T09:04:19Z</time>
      </trkpt>
      <trkpt lat="49.08063" lon="7.69863">
        <ele>239.50336090165</ele>
        <time>2016-07-03T09:04:29Z</time>
      </trkpt>
      <trkpt lat="49.08065" lon="7.69868">
        <ele>237.6810473668</ele>
        <time>2016-07-03T09:04:59Z</time>
      </trkpt>
      <trkpt lat="49.08065" lon="7.69874">
        <ele>236.73370176996</ele>
        <time>2016-07-03T09:05:07Z</time>
      </trkpt>
      <trkpt lat="49.08065" lon="7.6988">
        <ele>237.01622536702</ele>
        <time>2016-07-03T09:05:12Z</time>
      </trkpt>
      <trkpt lat="49.08065" lon="7.69892">
        <ele>237.82407240521</ele>
        <time>2016-07-03T09:05:17Z</time>
      </trkpt>
      <trkpt lat="49.08063" lon="7.69901">
        <ele>238.6385039249</ele>
        <time>2016-07-03T09:05:21Z</time>
      </trkpt>
      <trkpt lat="49.08062" lon="7.69905">
        <ele>240.02896502013</ele>
        <time>2016-07-03T09:05:27Z</time>
      </trkpt>
      <trkpt lat="49.0806" lon="7.69914">
        <ele>241.02617157478</ele>
        <time>2016-07-03T09:05:31Z</time>
      </trkpt>
      <trkpt lat="49.08057" lon="7.69921">
        <ele>241.2176061457</ele>
        <time>2016-07-03T09:05:35Z</time>
      </trkpt>
      <trkpt lat="49.08055" lon="7.69931">
        <ele>240.53065055031</ele>
        <time>2016-07-03T09:05:40Z</time>
      </trkpt>
      <trkpt lat="49.08054" lon="7.69938">
        <ele>239.86500542391</ele>
        <time>2016-07-03T09:05:45Z</time>
      </trkpt>
      <trkpt lat="49.08054" lon="7.69948">
        <ele>239.84387449907</ele>
        <time>2016-07-03T09:05:50Z</time>
      </trkpt>
      <trkpt lat="49.08054" lon="7.69964">
        <ele>239.66851880712</ele>
        <time>2016-07-03T09:05:54Z</time>
      </trkpt>
      <trkpt lat="49.0805" lon="7.69966">
        <ele>238.87025955099</ele>
        <time>2016-07-03T09:06:08Z</time>
      </trkpt>
      <trkpt lat="49.08044" lon="7.69973">
        <ele>238.54772099676</ele>
        <time>2016-07-03T09:06:13Z</time>
      </trkpt>
      <trkpt lat="49.08042" lon="7.69979">
        <ele>239.09531668059</ele>
        <time>2016-07-03T09:06:21Z</time>
      </trkpt>
      <trkpt lat="49.0804" lon="7.69984">
        <ele>239.74682440203</ele>
        <time>2016-07-03T09:06:28Z</time>
      </trkpt>
      <trkpt lat="49.08037" lon="7.69988">
        <ele>240.51662904129</ele>
        <time>2016-07-03T09:06:34Z</time>
      </trkpt>
      <trkpt lat="49.08034" lon="7.69995">
        <ele>240.75902080521</ele>
        <time>2016-07-03T09:06:38Z</time>
      </trkpt>
      <trkpt lat="49.08026" lon="7.7001">
        <ele>242.01618211759</ele>
        <time>2016-07-03T09:06:43Z</time>
      </trkpt>
      <trkpt lat="49.08022" lon="7.70016">
        <ele>242.56141406948</ele>
        <time>2016-07-03T09:06:47Z</time>
      </trkpt>
      <trkpt lat="49.08018" lon="7.7002">
        <ele>243.51386570773</ele>
        <time>2016-07-03T09:06:55Z</time>
      </trkpt>
      <trkpt lat="49.08016" lon="7.70023">
        <ele>244.02983210243</ele>
        <time>2016-07-03T09:06:59Z</time>
      </trkpt>
      <trkpt lat="49.0801" lon="7.70033">
        <ele>244.31152672936</ele>
        <time>2016-07-03T09:07:03Z</time>
      </trkpt>
      <trkpt lat="49.08005" lon="7.70041">
        <ele>244.01045657807</ele>
        <time>2016-07-03T09:07:07Z</time>
      </trkpt>
      <trkpt lat="49.08003" lon="7.70045">
        <ele>244.59703529105</ele>
        <time>2016-07-03T09:07:12Z</time>
      </trkpt>
      <trkpt lat="49.07998" lon="7.70052">
        <ele>245.35953612742</ele>
        <time>2016-07-03T09:07:17Z</time>
      </trkpt>
      <trkpt lat="49.07995" lon="7.70056">
        <ele>245.7197502957</ele>
        <time>2016-07-03T09:07:23Z</time>
      </trkpt>
      <trkpt lat="49.07992" lon="7.70061">
        <ele>245.93264580669</ele>
        <time>2016-07-03T09:07:30Z</time>
      </trkpt>
      <trkpt lat="49.07988" lon="7.70071">
        <ele>246.11238473944</ele>
        <time>2016-07-03T09:07:35Z</time>
      </trkpt>
      <trkpt lat="49.07986" lon="7.70078">
        <ele>246.61569580359</ele>
        <time>2016-07-03T09:07:39Z</time>
      </trkpt>
      <trkpt lat="49.07981" lon="7.70084">
        <ele>247.03344410057</ele>
        <time>2016-07-03T09:07:43Z</time>
      </trkpt>
      <trkpt lat="49.07977" lon="7.70097">
        <ele>247.24217014229</ele>
        <time>2016-07-03T09:07:47Z</time>
      </trkpt>
      <trkpt lat="49.0797" lon="7.70107">
        <ele>248.0890558302</ele>
        <time>2016-07-03T09:07:52Z</time>
      </trkpt>
      <trkpt lat="49.07967" lon="7.70117">
        <ele>248.37207707749</ele>
        <time>2016-07-03T09:07:56Z</time>
      </trkpt>
      <trkpt lat="49.07965" lon="7.70123">
        <ele>249.58966876856</ele>
        <time>2016-07-03T09:08:07Z</time>
      </trkpt>
      <trkpt lat="49.07958" lon="7.70126">
        <ele>249.87751094929</ele>
        <time>2016-07-03T09:08:12Z</time>
      </trkpt>
      <trkpt lat="49.07957" lon="7.70131">
        <ele>250.14341385322</ele>
        <time>2016-07-03T09:08:17Z</time>
      </trkpt>
      <trkpt lat="49.07954" lon="7.70135">
        <ele>250.43628077698</ele>
        <time>2016-07-03T09:08:22Z</time>
      </trkpt>
      <trkpt lat="49.07949" lon="7.70139">
        <ele>250.46807296389</ele>
        <time>2016-07-03T09:08:27Z</time>
      </trkpt>
      <trkpt lat="49.07942" lon="7.70144">
        <ele>250.66260536531</ele>
        <time>2016-07-03T09:08:31Z</time>
      </trkpt>
      <trkpt lat="49.07936" lon="7.70148">
        <ele>250.74741815908</ele>
        <time>2016-07-03T09:08:36Z</time>
      </trkpt>
      <trkpt lat="49.07931" lon="7.70156">
        <ele>251.65965285888</ele>
        <time>2016-07-03T09:08:41Z</time>
      </trkpt>
      <trkpt lat="49.07929" lon="7.70161">
        <ele>252.92049047175</ele>
        <time>2016-07-03T09:08:45Z</time>
      </trkpt>
      <trkpt lat="49.07923" lon="7.70166">
        <ele>254.04905799667</ele>
        <time>2016-07-03T09:08:49Z</time>
      </trkpt>
      <trkpt lat="49.07918" lon="7.7017">
        <ele>254.78503645087</ele>
        <time>2016-07-03T09:08:53Z</time>
      </trkpt>
      <trkpt lat="49.07912" lon="7.70174">
        <ele>255.0249144581</ele>
        <time>2016-07-03T09:08:58Z</time>
      </trkpt>
      <trkpt lat="49.07906" lon="7.70181">
        <ele>254.85024503597</ele>
        <time>2016-07-03T09:09:03Z</time>
      </trkpt>
      <trkpt lat="49.07901" lon="7.70186">
        <ele>254.75402393614</ele>
        <time>2016-07-03T09:09:07Z</time>
      </trkpt>
      <trkpt lat="49.07899" lon="7.70191">
        <ele>253.87854199345</ele>
        <time>2016-07-03T09:09:17Z</time>
      </trkpt>
      <trkpt lat="49.07895" lon="7.70192">
        <ele>251.3477062064</ele>
        <time>2016-07-03T09:09:22Z</time>
      </trkpt>
      <trkpt lat="49.07894" lon="7.70199">
        <ele>244.15529130102</ele>
        <time>2016-07-03T09:09:33Z</time>
      </trkpt>
      <trkpt lat="49.07898" lon="7.70201">
        <ele>244.64844690364</ele>
        <time>2016-07-03T09:09:40Z</time>
      </trkpt>
      <trkpt lat="49.07902" lon="7.702">
        <ele>254.4461832391</ele>
        <time>2016-07-03T09:10:19Z</time>
      </trkpt>
      <trkpt lat="49.07898" lon="7.70201">
        <ele>258.29080522334</ele>
        <time>2016-07-03T09:10:56Z</time>
      </trkpt>
      <trkpt lat="49.07893" lon="7.70209">
        <ele>260.2005874577</ele>
        <time>2016-07-03T09:11:01Z</time>
      </trkpt>
      <trkpt lat="49.07892" lon="7.70214">
        <ele>260.73205685902</ele>
        <time>2016-07-03T09:11:11Z</time>
      </trkpt>
      <trkpt lat="49.07891" lon="7.7022">
        <ele>261.17668571861</ele>
        <time>2016-07-03T09:11:16Z</time>
      </trkpt>
      <trkpt lat="49.07888" lon="7.70233">
        <ele>261.14130938064</ele>
        <time>2016-07-03T09:11:21Z</time>
      </trkpt>
      <trkpt lat="49.07885" lon="7.70238">
        <ele>260.91827939757</ele>
        <time>2016-07-03T09:11:25Z</time>
      </trkpt>
      <trkpt lat="49.07881" lon="7.70239">
        <ele>259.2085009425</ele>
        <time>2016-07-03T09:11:34Z</time>
      </trkpt>
      <trkpt lat="49.07877" lon="7.70232">
        <ele>258.17849194191</ele>
        <time>2016-07-03T09:11:39Z</time>
      </trkpt>
      <trkpt lat="49.07873" lon="7.70226">
        <ele>257.38206691633</ele>
        <time>2016-07-03T09:11:44Z</time>
      </trkpt>
      <trkpt lat="49.07871" lon="7.70222">
        <ele>256.3599915001</ele>
        <time>2016-07-03T09:11:49Z</time>
      </trkpt>
      <trkpt lat="49.07867" lon="7.70219">
        <ele>254.81238088501</ele>
        <time>2016-07-03T09:11:56Z</time>
      </trkpt>
      <trkpt lat="49.07864" lon="7.70215">
        <ele>253.60323855522</ele>
        <time>2016-07-03T09:12:02Z</time>
      </trkpt>
      <trkpt lat="49.07859" lon="7.70207">
        <ele>252.85683127476</ele>
        <time>2016-07-03T09:12:06Z</time>
      </trkpt>
      <trkpt lat="49.07854" lon="7.702">
        <ele>252.12381668578</ele>
        <time>2016-07-03T09:12:11Z</time>
      </trkpt>
      <trkpt lat="49.07854" lon="7.70194">
        <ele>249.71867048862</ele>
        <time>2016-07-03T09:12:24Z</time>
      </trkpt>
      <trkpt lat="49.07849" lon="7.7019">
        <ele>248.92268161419</ele>
        <time>2016-07-03T09:12:28Z</time>
      </trkpt>
      <trkpt lat="49.0784" lon="7.70183">
        <ele>248.71954813771</ele>
        <time>2016-07-03T09:12:33Z</time>
      </trkpt>
      <trkpt lat="49.07837" lon="7.7018">
        <ele>248.50889737244</ele>
        <time>2016-07-03T09:12:38Z</time>
      </trkpt>
      <trkpt lat="49.07834" lon="7.70176">
        <ele>248.02314945345</ele>
        <time>2016-07-03T09:12:42Z</time>
      </trkpt>
      <trkpt lat="49.07828" lon="7.7017">
        <ele>247.80001121633</ele>
        <time>2016-07-03T09:12:47Z</time>
      </trkpt>
      <trkpt lat="49.07824" lon="7.70166">
        <ele>247.37877132561</ele>
        <time>2016-07-03T09:12:51Z</time>
      </trkpt>
      <trkpt lat="49.07819" lon="7.70164">
        <ele>247.0339733125</ele>
        <time>2016-07-03T09:12:55Z</time>
      </trkpt>
      <trkpt lat="49.07814" lon="7.70161">
        <ele>246.91969360698</ele>
        <time>2016-07-03T09:13:00Z</time>
      </trkpt>
      <trkpt lat="49.07811" lon="7.7016">
        <ele>247.17464472499</ele>
        <time>2016-07-03T09:13:06Z</time>
      </trkpt>
      <trkpt lat="49.07806" lon="7.70155">
        <ele>247.49662882572</ele>
        <time>2016-07-03T09:13:10Z</time>
      </trkpt>
      <trkpt lat="49.07802" lon="7.70151">
        <ele>247.42202719842</ele>
        <time>2016-07-03T09:13:14Z</time>
      </trkpt>
      <trkpt lat="49.07798" lon="7.70144">
        <ele>247.59577439836</ele>
        <time>2016-07-03T09:13:19Z</time>
      </trkpt>
      <trkpt lat="49.07795" lon="7.70141">
        <ele>247.81886681654</ele>
        <time>2016-07-03T09:13:24Z</time>
      </trkpt>
      <trkpt lat="49.0779" lon="7.70139">
        <ele>247.74784681429</ele>
        <time>2016-07-03T09:13:29Z</time>
      </trkpt>
      <trkpt lat="49.07786" lon="7.70137">
        <ele>247.63145058465</ele>
        <time>2016-07-03T09:13:33Z</time>
      </trkpt>
      <trkpt lat="49.07783" lon="7.70132">
        <ele>247.3427289973</ele>
        <time>2016-07-03T09:13:37Z</time>
      </trkpt>
      <trkpt lat="49.07779" lon="7.70127">
        <ele>247.29846879562</ele>
        <time>2016-07-03T09:13:42Z</time>
      </trkpt>
      <trkpt lat="49.07775" lon="7.70125">
        <ele>246.63648317765</ele>
        <time>2016-07-03T09:13:58Z</time>
      </trkpt>
      <trkpt lat="49.0777" lon="7.7012">
        <ele>246.37546767303</ele>
        <time>2016-07-03T09:14:02Z</time>
      </trkpt>
      <trkpt lat="49.07766" lon="7.70113">
        <ele>245.91691968046</ele>
        <time>2016-07-03T09:14:07Z</time>
      </trkpt>
      <trkpt lat="49.0776" lon="7.70104">
        <ele>245.98021013233</ele>
        <time>2016-07-03T09:14:12Z</time>
      </trkpt>
      <trkpt lat="49.07756" lon="7.70101">
        <ele>245.59358098788</ele>
        <time>2016-07-03T09:14:16Z</time>
      </trkpt>
      <trkpt lat="49.07753" lon="7.70099">
        <ele>244.94918818503</ele>
        <time>2016-07-03T09:14:21Z</time>
      </trkpt>
      <trkpt lat="49.07746" lon="7.70091">
        <ele>244.76001052723</ele>
        <time>2016-07-03T09:14:26Z</time>
      </trkpt>
      <trkpt lat="49.07742" lon="7.70084">
        <ele>245.33908600781</ele>
        <time>2016-07-03T09:14:30Z</time>
      </trkpt>
      <trkpt lat="49.07739" lon="7.70077">
        <ele>245.77145301658</ele>
        <time>2016-07-03T09:14:34Z</time>
      </trkpt>
      <trkpt lat="49.07734" lon="7.70074">
        <ele>246.76377106697</ele>
        <time>2016-07-03T09:14:38Z</time>
      </trkpt>
      <trkpt lat="49.07731" lon="7.7007">
        <ele>247.37827143156</ele>
        <time>2016-07-03T09:14:44Z</time>
      </trkpt>
      <trkpt lat="49.07729" lon="7.70065">
        <ele>247.26648012078</ele>
        <time>2016-07-03T09:14:48Z</time>
      </trkpt>
      <trkpt lat="49.07727" lon="7.70059">
        <ele>246.92071942195</ele>
        <time>2016-07-03T09:14:54Z</time>
      </trkpt>
      <trkpt lat="49.07721" lon="7.70047">
        <ele>246.98317633743</ele>
        <time>2016-07-03T09:14:58Z</time>
      </trkpt>
      <trkpt lat="49.07715" lon="7.70041">
        <ele>246.76690630413</ele>
        <time>2016-07-03T09:15:02Z</time>
      </trkpt>
      <trkpt lat="49.07711" lon="7.70039">
        <ele>245.948427339</ele>
        <time>2016-07-03T09:15:07Z</time>
      </trkpt>
      <trkpt lat="49.07707" lon="7.70036">
        <ele>245.41324357046</ele>
        <time>2016-07-03T09:15:13Z</time>
      </trkpt>
      <trkpt lat="49.07706" lon="7.70031">
        <ele>244.04974449043</ele>
        <time>2016-07-03T09:15:25Z</time>
      </trkpt>
      <trkpt lat="49.07697" lon="7.70015">
        <ele>243.74717232444</ele>
        <time>2016-07-03T09:15:29Z</time>
      </trkpt>
      <trkpt lat="49.07694" lon="7.70015">
        <ele>243.38044633141</ele>
        <time>2016-07-03T09:15:47Z</time>
      </trkpt>
      <trkpt lat="49.0768" lon="7.70002">
        <ele>242.8687836484</ele>
        <time>2016-07-03T09:15:51Z</time>
      </trkpt>
      <trkpt lat="49.07673" lon="7.7">
        <ele>243.84062817768</ele>
        <time>2016-07-03T09:15:56Z</time>
      </trkpt>
      <trkpt lat="49.0767" lon="7.69999">
        <ele>244.62378058896</ele>
        <time>2016-07-03T09:16:01Z</time>
      </trkpt>
      <trkpt lat="49.07664" lon="7.69993">
        <ele>245.27777561369</ele>
        <time>2016-07-03T09:16:05Z</time>
      </trkpt>
      <trkpt lat="49.07661" lon="7.6999">
        <ele>245.96800819087</ele>
        <time>2016-07-03T09:16:13Z</time>
      </trkpt>
      <trkpt lat="49.07656" lon="7.69981">
        <ele>246.84214597589</ele>
        <time>2016-07-03T09:16:17Z</time>
      </trkpt>
      <trkpt lat="49.07647" lon="7.69975">
        <ele>248.03789307326</ele>
        <time>2016-07-03T09:16:21Z</time>
      </trkpt>
      <trkpt lat="49.0764" lon="7.69973">
        <ele>248.8066182984</ele>
        <time>2016-07-03T09:16:25Z</time>
      </trkpt>
      <trkpt lat="49.07635" lon="7.69971">
        <ele>251.9002910018</ele>
        <time>2016-07-03T09:16:47Z</time>
      </trkpt>
      <trkpt lat="49.07632" lon="7.69969">
        <ele>252.09490301575</ele>
        <time>2016-07-03T09:16:51Z</time>
      </trkpt>
      <trkpt lat="49.07627" lon="7.69964">
        <ele>252.11760983425</ele>
        <time>2016-07-03T09:16:56Z</time>
      </trkpt>
      <trkpt lat="49.07626" lon="7.69963">
        <ele>253.15059497704</ele>
        <time>2016-07-03T09:17:22Z</time>
      </trkpt>
      <trkpt lat="49.0762" lon="7.69958">
        <ele>253.00039456861</ele>
        <time>2016-07-03T09:17:26Z</time>
      </trkpt>
      <trkpt lat="49.07616" lon="7.69955">
        <ele>252.51014273548</ele>
        <time>2016-07-03T09:17:31Z</time>
      </trkpt>
      <trkpt lat="49.07591" lon="7.69936">
        <ele>252.72088796685</ele>
        <time>2016-07-03T09:17:35Z</time>
      </trkpt>
      <trkpt lat="49.0757" lon="7.69918">
        <ele>253.23548231882</ele>
        <time>2016-07-03T09:17:40Z</time>
      </trkpt>
      <trkpt lat="49.0756" lon="7.69909">
        <ele>253.49458436892</ele>
        <time>2016-07-03T09:17:44Z</time>
      </trkpt>
      <trkpt lat="49.07554" lon="7.69907">
        <ele>254.06514058782</ele>
        <time>2016-07-03T09:17:49Z</time>
      </trkpt>
      <trkpt lat="49.0755" lon="7.69905">
        <ele>254.89247112324</ele>
        <time>2016-07-03T09:17:54Z</time>
      </trkpt>
      <trkpt lat="49.07546" lon="7.69902">
        <ele>255.98802065242</ele>
        <time>2016-07-03T09:18:00Z</time>
      </trkpt>
      <trkpt lat="49.07538" lon="7.69895">
        <ele>257.09006321198</ele>
        <time>2016-07-03T09:18:05Z</time>
      </trkpt>
      <trkpt lat="49.07535" lon="7.69895">
        <ele>257.70790256152</ele>
        <time>2016-07-03T09:18:09Z</time>
      </trkpt>
      <trkpt lat="49.07529" lon="7.69896">
        <ele>258.18935858582</ele>
        <time>2016-07-03T09:18:13Z</time>
      </trkpt>
      <trkpt lat="49.07521" lon="7.69888">
        <ele>259.02102002535</ele>
        <time>2016-07-03T09:18:18Z</time>
      </trkpt>
      <trkpt lat="49.0752" lon="7.69883">
        <ele>259.58732016422</ele>
        <time>2016-07-03T09:18:22Z</time>
      </trkpt>
      <trkpt lat="49.07516" lon="7.69878">
        <ele>260.32118845087</ele>
        <time>2016-07-03T09:18:27Z</time>
      </trkpt>
      <trkpt lat="49.07513" lon="7.69875">
        <ele>260.95866429284</ele>
        <time>2016-07-03T09:18:31Z</time>
      </trkpt>
      <trkpt lat="49.07509" lon="7.69872">
        <ele>261.38451771139</ele>
        <time>2016-07-03T09:18:36Z</time>
      </trkpt>
      <trkpt lat="49.07505" lon="7.69872">
        <ele>262.15029144832</ele>
        <time>2016-07-03T09:18:45Z</time>
      </trkpt>
      <trkpt lat="49.07501" lon="7.6987">
        <ele>262.62702767761</ele>
        <time>2016-07-03T09:18:52Z</time>
      </trkpt>
      <trkpt lat="49.07498" lon="7.69868">
        <ele>262.26690521521</ele>
        <time>2016-07-03T09:18:58Z</time>
      </trkpt>
      <trkpt lat="49.07492" lon="7.69861">
        <ele>262.36654274066</ele>
        <time>2016-07-03T09:19:02Z</time>
      </trkpt>
      <trkpt lat="49.07488" lon="7.69858">
        <ele>262.67661191646</ele>
        <time>2016-07-03T09:19:07Z</time>
      </trkpt>
      <trkpt lat="49.07486" lon="7.69854">
        <ele>261.71695799399</ele>
        <time>2016-07-03T09:19:16Z</time>
      </trkpt>
      <trkpt lat="49.07477" lon="7.69853">
        <ele>260.39594773551</ele>
        <time>2016-07-03T09:19:20Z</time>
      </trkpt>
      <trkpt lat="49.07475" lon="7.69852">
        <ele>259.26104353129</ele>
        <time>2016-07-03T09:19:30Z</time>
      </trkpt>
      <trkpt lat="49.07462" lon="7.69845">
        <ele>258.04492962944</ele>
        <time>2016-07-03T09:19:34Z</time>
      </trkpt>
      <trkpt lat="49.07458" lon="7.69842">
        <ele>257.16951290165</ele>
        <time>2016-07-03T09:19:38Z</time>
      </trkpt>
      <trkpt lat="49.0745" lon="7.69835">
        <ele>256.49603078244</ele>
        <time>2016-07-03T09:19:43Z</time>
      </trkpt>
      <trkpt lat="49.07444" lon="7.69837">
        <ele>256.50077724599</ele>
        <time>2016-07-03T09:19:47Z</time>
      </trkpt>
      <trkpt lat="49.07435" lon="7.69833">
        <ele>256.25185936968</ele>
        <time>2016-07-03T09:19:51Z</time>
      </trkpt>
      <trkpt lat="49.07431" lon="7.6983">
        <ele>255.80148881083</ele>
        <time>2016-07-03T09:19:55Z</time>
      </trkpt>
      <trkpt lat="49.07427" lon="7.69828">
        <ele>255.56668857776</ele>
        <time>2016-07-03T09:19:59Z</time>
      </trkpt>
      <trkpt lat="49.07423" lon="7.69824">
        <ele>255.04400111601</ele>
        <time>2016-07-03T09:20:04Z</time>
      </trkpt>
      <trkpt lat="49.0742" lon="7.69823">
        <ele>254.82505913356</ele>
        <time>2016-07-03T09:20:09Z</time>
      </trkpt>
      <trkpt lat="49.07416" lon="7.69822">
        <ele>253.99405407589</ele>
        <time>2016-07-03T09:20:16Z</time>
      </trkpt>
      <trkpt lat="49.07411" lon="7.69819">
        <ele>254.66844848913</ele>
        <time>2016-07-03T09:20:20Z</time>
      </trkpt>
      <trkpt lat="49.07407" lon="7.69815">
        <ele>255.16903694062</ele>
        <time>2016-07-03T09:20:25Z</time>
      </trkpt>
      <trkpt lat="49.07403" lon="7.6981">
        <ele>255.4417728603</ele>
        <time>2016-07-03T09:20:29Z</time>
      </trkpt>
      <trkpt lat="49.07398" lon="7.69807">
        <ele>256.49714062038</ele>
        <time>2016-07-03T09:20:33Z</time>
      </trkpt>
      <trkpt lat="49.07391" lon="7.69804">
        <ele>257.6166585846</ele>
        <time>2016-07-03T09:20:38Z</time>
      </trkpt>
      <trkpt lat="49.07385" lon="7.69802">
        <ele>258.56855773644</ele>
        <time>2016-07-03T09:20:43Z</time>
      </trkpt>
      <trkpt lat="49.0738" lon="7.69798">
        <ele>259.13442015598</ele>
        <time>2016-07-03T09:20:47Z</time>
      </trkpt>
      <trkpt lat="49.07377" lon="7.69795">
        <ele>259.70741103874</ele>
        <time>2016-07-03T09:20:51Z</time>
      </trkpt>
      <trkpt lat="49.07373" lon="7.69793">
        <ele>260.00711650506</ele>
        <time>2016-07-03T09:20:55Z</time>
      </trkpt>
      <trkpt lat="49.07368" lon="7.6979">
        <ele>259.77714570199</ele>
        <time>2016-07-03T09:20:59Z</time>
      </trkpt>
      <trkpt lat="49.07364" lon="7.69789">
        <ele>259.62742375299</ele>
        <time>2016-07-03T09:21:04Z</time>
      </trkpt>
      <trkpt lat="49.07359" lon="7.69787">
        <ele>259.64688720017</ele>
        <time>2016-07-03T09:21:08Z</time>
      </trkpt>
      <trkpt lat="49.07356" lon="7.69784">
        <ele>259.57076008125</ele>
        <time>2016-07-03T09:21:12Z</time>
      </trkpt>
      <trkpt lat="49.07351" lon="7.69782">
        <ele>259.60052606471</ele>
        <time>2016-07-03T09:21:16Z</time>
      </trkpt>
      <trkpt lat="49.07349" lon="7.69779">
        <ele>259.43185393583</ele>
        <time>2016-07-03T09:21:21Z</time>
      </trkpt>
      <trkpt lat="49.0734" lon="7.69774">
        <ele>259.11958835223</ele>
        <time>2016-07-03T09:21:25Z</time>
      </trkpt>
      <trkpt lat="49.07332" lon="7.69769">
        <ele>258.97136804578</ele>
        <time>2016-07-03T09:21:30Z</time>
      </trkpt>
      <trkpt lat="49.07327" lon="7.69766">
        <ele>258.83699684567</ele>
        <time>2016-07-03T09:21:34Z</time>
      </trkpt>
      <trkpt lat="49.07323" lon="7.69765">
        <ele>258.69499330431</ele>
        <time>2016-07-03T09:21:38Z</time>
      </trkpt>
      <trkpt lat="49.0732" lon="7.69764">
        <ele>259.32462561086</ele>
        <time>2016-07-03T09:21:43Z</time>
      </trkpt>
      <trkpt lat="49.07315" lon="7.6976">
        <ele>259.5179022009</ele>
        <time>2016-07-03T09:21:48Z</time>
      </trkpt>
      <trkpt lat="49.07312" lon="7.69757">
        <ele>259.80365979866</ele>
        <time>2016-07-03T09:21:52Z</time>
      </trkpt>
      <trkpt lat="49.07309" lon="7.69756">
        <ele>260.42146589412</ele>
        <time>2016-07-03T09:21:57Z</time>
      </trkpt>
      <trkpt lat="49.07301" lon="7.69756">
        <ele>261.20978212332</ele>
        <time>2016-07-03T09:22:01Z</time>
      </trkpt>
      <trkpt lat="49.07297" lon="7.69756">
        <ele>261.79656218926</ele>
        <time>2016-07-03T09:22:05Z</time>
      </trkpt>
      <trkpt lat="49.0729" lon="7.69751">
        <ele>262.15602279293</ele>
        <time>2016-07-03T09:22:09Z</time>
      </trkpt>
      <trkpt lat="49.07286" lon="7.69746">
        <ele>262.27702183749</ele>
        <time>2016-07-03T09:22:13Z</time>
      </trkpt>
      <trkpt lat="49.07279" lon="7.6974">
        <ele>262.45916624437</ele>
        <time>2016-07-03T09:22:17Z</time>
      </trkpt>
      <trkpt lat="49.07275" lon="7.6974">
        <ele>262.87150522375</ele>
        <time>2016-07-03T09:22:22Z</time>
      </trkpt>
      <trkpt lat="49.07272" lon="7.69736">
        <ele>263.57624493756</ele>
        <time>2016-07-03T09:22:31Z</time>
      </trkpt>
      <trkpt lat="49.07268" lon="7.69733">
        <ele>263.95610265559</ele>
        <time>2016-07-03T09:22:35Z</time>
      </trkpt>
      <trkpt lat="49.07261" lon="7.69728">
        <ele>264.5998330389</ele>
        <time>2016-07-03T09:22:40Z</time>
      </trkpt>
      <trkpt lat="49.07253" lon="7.69728">
        <ele>264.61557447396</ele>
        <time>2016-07-03T09:22:45Z</time>
      </trkpt>
      <trkpt lat="49.0725" lon="7.69731">
        <ele>264.41061435643</ele>
        <time>2016-07-03T09:22:49Z</time>
      </trkpt>
      <trkpt lat="49.07246" lon="7.6973">
        <ele>264.08505829822</ele>
        <time>2016-07-03T09:22:54Z</time>
      </trkpt>
      <trkpt lat="49.07243" lon="7.69726">
        <ele>262.33833467526</ele>
        <time>2016-07-03T09:23:04Z</time>
      </trkpt>
      <trkpt lat="49.0724" lon="7.6972">
        <ele>260.81092219076</ele>
        <time>2016-07-03T09:23:09Z</time>
      </trkpt>
      <trkpt lat="49.07239" lon="7.69713">
        <ele>258.73036638658</ele>
        <time>2016-07-03T09:23:17Z</time>
      </trkpt>
      <trkpt lat="49.07242" lon="7.69709">
        <ele>258.30775256667</ele>
        <time>2016-07-03T09:23:21Z</time>
      </trkpt>
      <trkpt lat="49.07238" lon="7.69712">
        <ele>257.62490691857</ele>
        <time>2016-07-03T09:23:32Z</time>
      </trkpt>
      <trkpt lat="49.07233" lon="7.6972">
        <ele>257.99236077167</ele>
        <time>2016-07-03T09:23:36Z</time>
      </trkpt>
      <trkpt lat="49.07228" lon="7.69724">
        <ele>258.2598373311</ele>
        <time>2016-07-03T09:23:40Z</time>
      </trkpt>
      <trkpt lat="49.07227" lon="7.69715">
        <ele>258.8385911436</ele>
        <time>2016-07-03T09:23:44Z</time>
      </trkpt>
      <trkpt lat="49.07225" lon="7.69707">
        <ele>259.77545418968</ele>
        <time>2016-07-03T09:23:48Z</time>
      </trkpt>
      <trkpt lat="49.07224" lon="7.69699">
        <ele>259.92752799145</ele>
        <time>2016-07-03T09:23:53Z</time>
      </trkpt>
      <trkpt lat="49.07225" lon="7.69692">
        <ele>259.87635828179</ele>
        <time>2016-07-03T09:23:57Z</time>
      </trkpt>
      <trkpt lat="49.07225" lon="7.69685">
        <ele>259.83143038488</ele>
        <time>2016-07-03T09:24:01Z</time>
      </trkpt>
      <trkpt lat="49.07225" lon="7.69678">
        <ele>260.10731011593</ele>
        <time>2016-07-03T09:24:05Z</time>
      </trkpt>
      <trkpt lat="49.07225" lon="7.6967">
        <ele>260.27656009442</ele>
        <time>2016-07-03T09:24:09Z</time>
      </trkpt>
      <trkpt lat="49.07228" lon="7.69664">
        <ele>260.76632651226</ele>
        <time>2016-07-03T09:24:15Z</time>
      </trkpt>
      <trkpt lat="49.07227" lon="7.69658">
        <ele>260.86243091409</ele>
        <time>2016-07-03T09:24:19Z</time>
      </trkpt>
      <trkpt lat="49.07227" lon="7.6965">
        <ele>260.85076276289</ele>
        <time>2016-07-03T09:24:24Z</time>
      </trkpt>
      <trkpt lat="49.07228" lon="7.69643">
        <ele>260.66081471543</ele>
        <time>2016-07-03T09:24:28Z</time>
      </trkpt>
      <trkpt lat="49.07228" lon="7.69636">
        <ele>260.43589696798</ele>
        <time>2016-07-03T09:24:32Z</time>
      </trkpt>
      <trkpt lat="49.07226" lon="7.69631">
        <ele>259.74677461113</ele>
        <time>2016-07-03T09:24:38Z</time>
      </trkpt>
      <trkpt lat="49.07224" lon="7.69623">
        <ele>259.13746173518</ele>
        <time>2016-07-03T09:24:42Z</time>
      </trkpt>
      <trkpt lat="49.07223" lon="7.69618">
        <ele>258.81618042538</ele>
        <time>2016-07-03T09:24:46Z</time>
      </trkpt>
      <trkpt lat="49.07217" lon="7.69608">
        <ele>258.81297545578</ele>
        <time>2016-07-03T09:24:51Z</time>
      </trkpt>
      <trkpt lat="49.07214" lon="7.69602">
        <ele>258.95336616235</ele>
        <time>2016-07-03T09:24:55Z</time>
      </trkpt>
      <trkpt lat="49.07208" lon="7.69592">
        <ele>258.92546344563</ele>
        <time>2016-07-03T09:25:00Z</time>
      </trkpt>
      <trkpt lat="49.07202" lon="7.69585">
        <ele>258.64675502454</ele>
        <time>2016-07-03T09:25:05Z</time>
      </trkpt>
      <trkpt lat="49.072" lon="7.6958">
        <ele>258.48715573444</ele>
        <time>2016-07-03T09:25:11Z</time>
      </trkpt>
      <trkpt lat="49.07199" lon="7.69572">
        <ele>258.28514582106</ele>
        <time>2016-07-03T09:25:16Z</time>
      </trkpt>
      <trkpt lat="49.07196" lon="7.69568">
        <ele>257.58992756274</ele>
        <time>2016-07-03T09:25:21Z</time>
      </trkpt>
      <trkpt lat="49.07193" lon="7.69563">
        <ele>257.04769452586</ele>
        <time>2016-07-03T09:25:25Z</time>
      </trkpt>
      <trkpt lat="49.07189" lon="7.69558">
        <ele>256.27494806965</ele>
        <time>2016-07-03T09:25:30Z</time>
      </trkpt>
      <trkpt lat="49.07187" lon="7.69553">
        <ele>254.98708684724</ele>
        <time>2016-07-03T09:25:35Z</time>
      </trkpt>
      <trkpt lat="49.07185" lon="7.69548">
        <ele>254.06435495082</ele>
        <time>2016-07-03T09:25:39Z</time>
      </trkpt>
      <trkpt lat="49.07182" lon="7.69542">
        <ele>253.28352469996</ele>
        <time>2016-07-03T09:25:44Z</time>
      </trkpt>
      <trkpt lat="49.0718" lon="7.69537">
        <ele>252.64576617111</ele>
        <time>2016-07-03T09:25:48Z</time>
      </trkpt>
      <trkpt lat="49.0718" lon="7.69531">
        <ele>252.11593395833</ele>
        <time>2016-07-03T09:25:52Z</time>
      </trkpt>
      <trkpt lat="49.07178" lon="7.69524">
        <ele>251.72345272613</ele>
        <time>2016-07-03T09:25:56Z</time>
      </trkpt>
      <trkpt lat="49.07173" lon="7.69513">
        <ele>251.05240341122</ele>
        <time>2016-07-03T09:26:01Z</time>
      </trkpt>
      <trkpt lat="49.0717" lon="7.69506">
        <ele>250.97355410875</ele>
        <time>2016-07-03T09:26:05Z</time>
      </trkpt>
      <trkpt lat="49.07167" lon="7.69498">
        <ele>249.11652180897</ele>
        <time>2016-07-03T09:26:10Z</time>
      </trkpt>
      <trkpt lat="49.07166" lon="7.69493">
        <ele>247.43052775716</ele>
        <time>2016-07-03T09:26:16Z</time>
      </trkpt>
      <trkpt lat="49.07164" lon="7.69485">
        <ele>247.35146436524</ele>
        <time>2016-07-03T09:26:20Z</time>
      </trkpt>
      <trkpt lat="49.07164" lon="7.69481">
        <ele>246.64343434835</ele>
        <time>2016-07-03T09:26:27Z</time>
      </trkpt>
      <trkpt lat="49.07165" lon="7.69467">
        <ele>245.07076090644</ele>
        <time>2016-07-03T09:26:31Z</time>
      </trkpt>
      <trkpt lat="49.07165" lon="7.69462">
        <ele>244.20715367051</ele>
        <time>2016-07-03T09:26:35Z</time>
      </trkpt>
      <trkpt lat="49.07166" lon="7.69455">
        <ele>244.08105643267</ele>
        <time>2016-07-03T09:26:39Z</time>
      </trkpt>
      <trkpt lat="49.07166" lon="7.69446">
        <ele>243.95553462502</ele>
        <time>2016-07-03T09:26:43Z</time>
      </trkpt>
      <trkpt lat="49.07163" lon="7.69439">
        <ele>243.07208656779</ele>
        <time>2016-07-03T09:26:47Z</time>
      </trkpt>
      <trkpt lat="49.0716" lon="7.69428">
        <ele>241.88256348715</ele>
        <time>2016-07-03T09:26:51Z</time>
      </trkpt>
      <trkpt lat="49.07159" lon="7.69423">
        <ele>240.57147001446</ele>
        <time>2016-07-03T09:26:59Z</time>
      </trkpt>
      <trkpt lat="49.07157" lon="7.69411">
        <ele>239.28890106262</ele>
        <time>2016-07-03T09:27:04Z</time>
      </trkpt>
      <trkpt lat="49.07158" lon="7.69402">
        <ele>238.58809559213</ele>
        <time>2016-07-03T09:27:09Z</time>
      </trkpt>
      <trkpt lat="49.07157" lon="7.69397">
        <ele>237.79151272989</ele>
        <time>2016-07-03T09:27:13Z</time>
      </trkpt>
      <trkpt lat="49.07152" lon="7.69381">
        <ele>236.99581305673</ele>
        <time>2016-07-03T09:27:18Z</time>
      </trkpt>
      <trkpt lat="49.0715" lon="7.69375">
        <ele>236.52926825779</ele>
        <time>2016-07-03T09:27:24Z</time>
      </trkpt>
      <trkpt lat="49.07149" lon="7.69366">
        <ele>236.50606294949</ele>
        <time>2016-07-03T09:27:28Z</time>
      </trkpt>
      <trkpt lat="49.07149" lon="7.69361">
        <ele>236.13541629857</ele>
        <time>2016-07-03T09:27:33Z</time>
      </trkpt>
      <trkpt lat="49.07148" lon="7.69355">
        <ele>235.89504526702</ele>
        <time>2016-07-03T09:27:35Z</time>
      </trkpt>
      <trkpt lat="49.07148" lon="7.69347">
        <ele>235.79655751262</ele>
        <time>2016-07-03T09:27:40Z</time>
      </trkpt>
      <trkpt lat="49.07147" lon="7.69342">
        <ele>235.43571815424</ele>
        <time>2016-07-03T09:27:43Z</time>
      </trkpt>
      <trkpt lat="49.07147" lon="7.69339">
        <ele>235.39806523407</ele>
        <time>2016-07-03T09:27:47Z</time>
      </trkpt>
      <trkpt lat="49.07142" lon="7.69329">
        <ele>234.90818089077</ele>
        <time>2016-07-03T09:27:52Z</time>
      </trkpt>
      <trkpt lat="49.07138" lon="7.69318">
        <ele>234.67856185577</ele>
        <time>2016-07-03T09:27:57Z</time>
      </trkpt>
      <trkpt lat="49.07135" lon="7.69312">
        <ele>234.71284334739</ele>
        <time>2016-07-03T09:28:01Z</time>
      </trkpt>
      <trkpt lat="49.07136" lon="7.69307">
        <ele>235.17793126089</ele>
        <time>2016-07-03T09:28:05Z</time>
      </trkpt>
      <trkpt lat="49.07135" lon="7.69289">
        <ele>235.83166158865</ele>
        <time>2016-07-03T09:28:10Z</time>
      </trkpt>
      <trkpt lat="49.07129" lon="7.69275">
        <ele>236.72685925666</ele>
        <time>2016-07-03T09:28:15Z</time>
      </trkpt>
      <trkpt lat="49.07128" lon="7.69267">
        <ele>236.70534896171</ele>
        <time>2016-07-03T09:28:19Z</time>
      </trkpt>
      <trkpt lat="49.07129" lon="7.69262">
        <ele>236.70835059391</ele>
        <time>2016-07-03T09:28:25Z</time>
      </trkpt>
      <trkpt lat="49.07127" lon="7.69255">
        <ele>237.04452640358</ele>
        <time>2016-07-03T09:28:29Z</time>
      </trkpt>
      <trkpt lat="49.07128" lon="7.69249">
        <ele>237.4193749968</ele>
        <time>2016-07-03T09:28:34Z</time>
      </trkpt>
      <trkpt lat="49.07131" lon="7.69244">
        <ele>238.10322946705</ele>
        <time>2016-07-03T09:28:39Z</time>
      </trkpt>
      <trkpt lat="49.07129" lon="7.69232">
        <ele>238.06799042725</ele>
        <time>2016-07-03T09:28:44Z</time>
      </trkpt>
      <trkpt lat="49.07128" lon="7.69222">
        <ele>237.83837868066</ele>
        <time>2016-07-03T09:28:48Z</time>
      </trkpt>
      <trkpt lat="49.07128" lon="7.69216">
        <ele>237.78925958567</ele>
        <time>2016-07-03T09:28:52Z</time>
      </trkpt>
      <trkpt lat="49.07129" lon="7.69205">
        <ele>237.56487184327</ele>
        <time>2016-07-03T09:28:56Z</time>
      </trkpt>
      <trkpt lat="49.07129" lon="7.69196">
        <ele>237.06571230077</ele>
        <time>2016-07-03T09:29:01Z</time>
      </trkpt>
      <trkpt lat="49.07128" lon="7.69186">
        <ele>236.7991729585</ele>
        <time>2016-07-03T09:29:05Z</time>
      </trkpt>
      <trkpt lat="49.07126" lon="7.69178">
        <ele>236.81438990695</ele>
        <time>2016-07-03T09:29:10Z</time>
      </trkpt>
      <trkpt lat="49.07127" lon="7.69167">
        <ele>237.07926162634</ele>
        <time>2016-07-03T09:29:14Z</time>
      </trkpt>
      <trkpt lat="49.07127" lon="7.69162">
        <ele>237.45158274682</ele>
        <time>2016-07-03T09:29:18Z</time>
      </trkpt>
      <trkpt lat="49.07129" lon="7.69151">
        <ele>237.86166911723</ele>
        <time>2016-07-03T09:29:22Z</time>
      </trkpt>
      <trkpt lat="49.07131" lon="7.69138">
        <ele>238.39337584672</ele>
        <time>2016-07-03T09:29:27Z</time>
      </trkpt>
      <trkpt lat="49.07129" lon="7.69125">
        <ele>238.54723832304</ele>
        <time>2016-07-03T09:29:32Z</time>
      </trkpt>
      <trkpt lat="49.07127" lon="7.69119">
        <ele>239.89423761176</ele>
        <time>2016-07-03T09:29:42Z</time>
      </trkpt>
      <trkpt lat="49.07128" lon="7.6911">
        <ele>240.81214617471</ele>
        <time>2016-07-03T09:29:46Z</time>
      </trkpt>
      <trkpt lat="49.07127" lon="7.69102">
        <ele>241.67427751028</ele>
        <time>2016-07-03T09:29:51Z</time>
      </trkpt>
      <trkpt lat="49.07126" lon="7.69097">
        <ele>242.87988953113</ele>
        <time>2016-07-03T09:29:58Z</time>
      </trkpt>
      <trkpt lat="49.07122" lon="7.69088">
        <ele>243.93927447141</ele>
        <time>2016-07-03T09:30:02Z</time>
      </trkpt>
      <trkpt lat="49.07119" lon="7.69079">
        <ele>246.07419929862</ele>
        <time>2016-07-03T09:30:07Z</time>
      </trkpt>
      <trkpt lat="49.07118" lon="7.69074">
        <ele>247.54693468312</ele>
        <time>2016-07-03T09:30:11Z</time>
      </trkpt>
      <trkpt lat="49.07117" lon="7.69066">
        <ele>248.68748293426</ele>
        <time>2016-07-03T09:30:15Z</time>
      </trkpt>
      <trkpt lat="49.07115" lon="7.69059">
        <ele>249.42682469775</ele>
        <time>2016-07-03T09:30:19Z</time>
      </trkpt>
      <trkpt lat="49.07114" lon="7.69051">
        <ele>250.01577783905</ele>
        <time>2016-07-03T09:30:23Z</time>
      </trkpt>
      <trkpt lat="49.07114" lon="7.69044">
        <ele>250.28922524773</ele>
        <time>2016-07-03T09:30:29Z</time>
      </trkpt>
      <trkpt lat="49.07114" lon="7.69033">
        <ele>250.48925438709</ele>
        <time>2016-07-03T09:30:34Z</time>
      </trkpt>
      <trkpt lat="49.07114" lon="7.69027">
        <ele>250.37241642206</ele>
        <time>2016-07-03T09:30:38Z</time>
      </trkpt>
      <trkpt lat="49.07114" lon="7.69015">
        <ele>250.34366931864</ele>
        <time>2016-07-03T09:30:43Z</time>
      </trkpt>
      <trkpt lat="49.07113" lon="7.69009">
        <ele>250.00502634487</ele>
        <time>2016-07-03T09:30:48Z</time>
      </trkpt>
      <trkpt lat="49.07113" lon="7.69002">
        <ele>249.79049874078</ele>
        <time>2016-07-03T09:30:52Z</time>
      </trkpt>
      <trkpt lat="49.07112" lon="7.68993">
        <ele>248.96347725293</ele>
        <time>2016-07-03T09:30:56Z</time>
      </trkpt>
      <trkpt lat="49.07111" lon="7.68985">
        <ele>248.31484423775</ele>
        <time>2016-07-03T09:31:00Z</time>
      </trkpt>
      <trkpt lat="49.07109" lon="7.68978">
        <ele>248.16488572798</ele>
        <time>2016-07-03T09:31:04Z</time>
      </trkpt>
      <trkpt lat="49.07107" lon="7.68972">
        <ele>248.42434729094</ele>
        <time>2016-07-03T09:31:08Z</time>
      </trkpt>
      <trkpt lat="49.07105" lon="7.68966">
        <ele>248.61366405166</ele>
        <time>2016-07-03T09:31:12Z</time>
      </trkpt>
      <trkpt lat="49.07104" lon="7.68957">
        <ele>249.04672061827</ele>
        <time>2016-07-03T09:31:16Z</time>
      </trkpt>
      <trkpt lat="49.07107" lon="7.68944">
        <ele>249.75330716595</ele>
        <time>2016-07-03T09:31:21Z</time>
      </trkpt>
      <trkpt lat="49.07108" lon="7.68937">
        <ele>250.25229913978</ele>
        <time>2016-07-03T09:31:25Z</time>
      </trkpt>
      <trkpt lat="49.07109" lon="7.6893">
        <ele>250.61093257793</ele>
        <time>2016-07-03T09:31:30Z</time>
      </trkpt>
      <trkpt lat="49.07109" lon="7.68923">
        <ele>250.64969087776</ele>
        <time>2016-07-03T09:31:34Z</time>
      </trkpt>
      <trkpt lat="49.07109" lon="7.68911">
        <ele>250.33541530975</ele>
        <time>2016-07-03T09:31:39Z</time>
      </trkpt>
      <trkpt lat="49.07109" lon="7.68906">
        <ele>250.71005078934</ele>
        <time>2016-07-03T09:31:44Z</time>
      </trkpt>
      <trkpt lat="49.07107" lon="7.689">
        <ele>250.5672650988</ele>
        <time>2016-07-03T09:31:48Z</time>
      </trkpt>
      <trkpt lat="49.07104" lon="7.68891">
        <ele>250.69200760349</ele>
        <time>2016-07-03T09:31:53Z</time>
      </trkpt>
      <trkpt lat="49.07102" lon="7.68878">
        <ele>251.21392606807</ele>
        <time>2016-07-03T09:31:57Z</time>
      </trkpt>
      <trkpt lat="49.07103" lon="7.68871">
        <ele>251.82485013205</ele>
        <time>2016-07-03T09:32:03Z</time>
      </trkpt>
      <trkpt lat="49.07105" lon="7.68864">
        <ele>250.84368245771</ele>
        <time>2016-07-03T09:32:08Z</time>
      </trkpt>
      <trkpt lat="49.07108" lon="7.68859">
        <ele>250.06902456296</ele>
        <time>2016-07-03T09:32:12Z</time>
      </trkpt>
      <trkpt lat="49.0711" lon="7.68853">
        <ele>249.07617584887</ele>
        <time>2016-07-03T09:32:17Z</time>
      </trkpt>
      <trkpt lat="49.07113" lon="7.68848">
        <ele>248.20695971781</ele>
        <time>2016-07-03T09:32:21Z</time>
      </trkpt>
      <trkpt lat="49.07118" lon="7.68842">
        <ele>247.50285838104</ele>
        <time>2016-07-03T09:32:25Z</time>
      </trkpt>
      <trkpt lat="49.07119" lon="7.68832">
        <ele>246.53501978999</ele>
        <time>2016-07-03T09:32:29Z</time>
      </trkpt>
      <trkpt lat="49.07123" lon="7.68825">
        <ele>245.59794075984</ele>
        <time>2016-07-03T09:32:33Z</time>
      </trkpt>
      <trkpt lat="49.07126" lon="7.6882">
        <ele>244.82614585835</ele>
        <time>2016-07-03T09:32:37Z</time>
      </trkpt>
      <trkpt lat="49.0713" lon="7.68811">
        <ele>244.12586121622</ele>
        <time>2016-07-03T09:32:41Z</time>
      </trkpt>
      <trkpt lat="49.07133" lon="7.68805">
        <ele>243.52740264595</ele>
        <time>2016-07-03T09:32:46Z</time>
      </trkpt>
      <trkpt lat="49.0714" lon="7.68801">
        <ele>243.75662667869</ele>
        <time>2016-07-03T09:32:50Z</time>
      </trkpt>
      <trkpt lat="49.07142" lon="7.68796">
        <ele>243.84427203823</ele>
        <time>2016-07-03T09:32:57Z</time>
      </trkpt>
      <trkpt lat="49.07146" lon="7.68788">
        <ele>243.76573310773</ele>
        <time>2016-07-03T09:33:01Z</time>
      </trkpt>
      <trkpt lat="49.07152" lon="7.68773">
        <ele>243.78181630009</ele>
        <time>2016-07-03T09:33:06Z</time>
      </trkpt>
      <trkpt lat="49.07151" lon="7.68759">
        <ele>243.67811079806</ele>
        <time>2016-07-03T09:33:11Z</time>
      </trkpt>
      <trkpt lat="49.07152" lon="7.68753">
        <ele>243.09006990027</ele>
        <time>2016-07-03T09:33:15Z</time>
      </trkpt>
      <trkpt lat="49.07154" lon="7.68747">
        <ele>242.21110285476</ele>
        <time>2016-07-03T09:33:23Z</time>
      </trkpt>
      <trkpt lat="49.07157" lon="7.68743">
        <ele>240.47488645397</ele>
        <time>2016-07-03T09:33:31Z</time>
      </trkpt>
      <trkpt lat="49.07159" lon="7.6874">
        <ele>238.9078502524</ele>
        <time>2016-07-03T09:33:38Z</time>
      </trkpt>
      <trkpt lat="49.07164" lon="7.68735">
        <ele>238.4452121746</ele>
        <time>2016-07-03T09:33:43Z</time>
      </trkpt>
      <trkpt lat="49.07167" lon="7.68728">
        <ele>237.49219563306</ele>
        <time>2016-07-03T09:33:47Z</time>
      </trkpt>
      <trkpt lat="49.07168" lon="7.68716">
        <ele>235.92920498043</ele>
        <time>2016-07-03T09:33:51Z</time>
      </trkpt>
      <trkpt lat="49.07171" lon="7.68711">
        <ele>234.16195440264</ele>
        <time>2016-07-03T09:33:55Z</time>
      </trkpt>
      <trkpt lat="49.07177" lon="7.68699">
        <ele>232.91921621822</ele>
        <time>2016-07-03T09:33:59Z</time>
      </trkpt>
      <trkpt lat="49.07182" lon="7.68694">
        <ele>232.08961016531</ele>
        <time>2016-07-03T09:34:03Z</time>
      </trkpt>
      <trkpt lat="49.07187" lon="7.68686">
        <ele>231.82027827128</ele>
        <time>2016-07-03T09:34:07Z</time>
      </trkpt>
      <trkpt lat="49.07192" lon="7.68682">
        <ele>231.63628482181</ele>
        <time>2016-07-03T09:34:11Z</time>
      </trkpt>
      <trkpt lat="49.07195" lon="7.68676">
        <ele>231.48453940379</ele>
        <time>2016-07-03T09:34:16Z</time>
      </trkpt>
      <trkpt lat="49.07201" lon="7.68664">
        <ele>231.52477959124</ele>
        <time>2016-07-03T09:34:21Z</time>
      </trkpt>
      <trkpt lat="49.07203" lon="7.6866">
        <ele>231.45645352597</ele>
        <time>2016-07-03T09:34:25Z</time>
      </trkpt>
      <trkpt lat="49.07205" lon="7.68654">
        <ele>232.43765571138</ele>
        <time>2016-07-03T09:34:29Z</time>
      </trkpt>
      <trkpt lat="49.07209" lon="7.68652">
        <ele>235.38301709963</ele>
        <time>2016-07-03T09:34:39Z</time>
      </trkpt>
      <trkpt lat="49.0721" lon="7.68645">
        <ele>240.88937118826</ele>
        <time>2016-07-03T09:34:54Z</time>
      </trkpt>
      <trkpt lat="49.07213" lon="7.68647">
        <ele>244.13538786439</ele>
        <time>2016-07-03T09:35:20Z</time>
      </trkpt>
      <trkpt lat="49.07216" lon="7.68653">
        <ele>244.3280938759</ele>
        <time>2016-07-03T09:35:25Z</time>
      </trkpt>
      <trkpt lat="49.07218" lon="7.68658">
        <ele>246.54222305664</ele>
        <time>2016-07-03T09:36:30Z</time>
      </trkpt>
      <trkpt lat="49.07214" lon="7.68662">
        <ele>243.81520279599</ele>
        <time>2016-07-03T09:36:47Z</time>
      </trkpt>
      <trkpt lat="49.07211" lon="7.68659">
        <ele>237.08728042101</ele>
        <time>2016-07-03T09:38:02Z</time>
      </trkpt>
      <trkpt lat="49.07208" lon="7.68654">
        <ele>235.579658979</ele>
        <time>2016-07-03T09:38:10Z</time>
      </trkpt>
      <trkpt lat="49.07204" lon="7.68654">
        <ele>235.22116983596</ele>
        <time>2016-07-03T09:38:32Z</time>
      </trkpt>
      <trkpt lat="49.07206" lon="7.68648">
        <ele>237.07853073934</ele>
        <time>2016-07-03T09:39:48Z</time>
      </trkpt>
      <trkpt lat="49.072" lon="7.68636">
        <ele>236.7818341707</ele>
        <time>2016-07-03T09:39:53Z</time>
      </trkpt>
      <trkpt lat="49.07202" lon="7.68626">
        <ele>237.91001776182</ele>
        <time>2016-07-03T09:39:58Z</time>
      </trkpt>
      <trkpt lat="49.07204" lon="7.68617">
        <ele>239.48930839864</ele>
        <time>2016-07-03T09:40:03Z</time>
      </trkpt>
      <trkpt lat="49.07207" lon="7.6861">
        <ele>240.38490116613</ele>
        <time>2016-07-03T09:40:07Z</time>
      </trkpt>
      <trkpt lat="49.07209" lon="7.68603">
        <ele>240.83302623527</ele>
        <time>2016-07-03T09:40:11Z</time>
      </trkpt>
      <trkpt lat="49.07211" lon="7.68598">
        <ele>241.7614344452</ele>
        <time>2016-07-03T09:40:16Z</time>
      </trkpt>
      <trkpt lat="49.07214" lon="7.6859">
        <ele>242.8212804739</ele>
        <time>2016-07-03T09:40:21Z</time>
      </trkpt>
      <trkpt lat="49.07217" lon="7.68585">
        <ele>243.57540614827</ele>
        <time>2016-07-03T09:40:26Z</time>
      </trkpt>
      <trkpt lat="49.0722" lon="7.68578">
        <ele>244.03146154699</ele>
        <time>2016-07-03T09:40:30Z</time>
      </trkpt>
      <trkpt lat="49.07223" lon="7.6857">
        <ele>244.37729579934</ele>
        <time>2016-07-03T09:40:34Z</time>
      </trkpt>
      <trkpt lat="49.07225" lon="7.68564">
        <ele>244.80393505943</ele>
        <time>2016-07-03T09:40:38Z</time>
      </trkpt>
      <trkpt lat="49.07228" lon="7.68555">
        <ele>245.34056637481</ele>
        <time>2016-07-03T09:40:43Z</time>
      </trkpt>
      <trkpt lat="49.07229" lon="7.68548">
        <ele>245.839484055</ele>
        <time>2016-07-03T09:40:47Z</time>
      </trkpt>
      <trkpt lat="49.07232" lon="7.6854">
        <ele>246.20477284903</ele>
        <time>2016-07-03T09:40:51Z</time>
      </trkpt>
      <trkpt lat="49.07235" lon="7.68535">
        <ele>246.41722685167</ele>
        <time>2016-07-03T09:40:56Z</time>
      </trkpt>
      <trkpt lat="49.07236" lon="7.6853">
        <ele>246.12764705177</ele>
        <time>2016-07-03T09:41:01Z</time>
      </trkpt>
      <trkpt lat="49.07242" lon="7.68526">
        <ele>245.77801050649</ele>
        <time>2016-07-03T09:41:06Z</time>
      </trkpt>
      <trkpt lat="49.07245" lon="7.68518">
        <ele>244.62998247094</ele>
        <time>2016-07-03T09:41:10Z</time>
      </trkpt>
      <trkpt lat="49.07247" lon="7.68506">
        <ele>242.76478414835</ele>
        <time>2016-07-03T09:41:15Z</time>
      </trkpt>
      <trkpt lat="49.07246" lon="7.68493">
        <ele>241.11895238327</ele>
        <time>2016-07-03T09:41:19Z</time>
      </trkpt>
      <trkpt lat="49.07249" lon="7.68485">
        <ele>240.0824683715</ele>
        <time>2016-07-03T09:41:23Z</time>
      </trkpt>
      <trkpt lat="49.07251" lon="7.68472">
        <ele>240.00912665187</ele>
        <time>2016-07-03T09:41:27Z</time>
      </trkpt>
      <trkpt lat="49.07253" lon="7.68461">
        <ele>240.17464831985</ele>
        <time>2016-07-03T09:41:31Z</time>
      </trkpt>
      <trkpt lat="49.07257" lon="7.68456">
        <ele>240.57382953764</ele>
        <time>2016-07-03T09:41:36Z</time>
      </trkpt>
      <trkpt lat="49.07259" lon="7.68436">
        <ele>241.17065106117</ele>
        <time>2016-07-03T09:41:41Z</time>
      </trkpt>
      <trkpt lat="49.07256" lon="7.68431">
        <ele>241.84881939238</ele>
        <time>2016-07-03T09:41:45Z</time>
      </trkpt>
      <trkpt lat="49.07257" lon="7.68424">
        <ele>242.94666221032</ele>
        <time>2016-07-03T09:41:52Z</time>
      </trkpt>
      <trkpt lat="49.07263" lon="7.68421">
        <ele>243.28744190946</ele>
        <time>2016-07-03T09:41:56Z</time>
      </trkpt>
      <trkpt lat="49.07268" lon="7.68414">
        <ele>243.41707583867</ele>
        <time>2016-07-03T09:42:00Z</time>
      </trkpt>
      <trkpt lat="49.07269" lon="7.68406">
        <ele>243.56531489505</ele>
        <time>2016-07-03T09:42:04Z</time>
      </trkpt>
      <trkpt lat="49.07271" lon="7.68401">
        <ele>243.98007157659</ele>
        <time>2016-07-03T09:42:08Z</time>
      </trkpt>
      <trkpt lat="49.07274" lon="7.68394">
        <ele>244.98328941155</ele>
        <time>2016-07-03T09:42:13Z</time>
      </trkpt>
      <trkpt lat="49.07275" lon="7.68388">
        <ele>245.3734084693</ele>
        <time>2016-07-03T09:42:20Z</time>
      </trkpt>
      <trkpt lat="49.07279" lon="7.68385">
        <ele>245.03993558819</ele>
        <time>2016-07-03T09:42:24Z</time>
      </trkpt>
      <trkpt lat="49.07278" lon="7.68369">
        <ele>244.82715280822</ele>
        <time>2016-07-03T09:42:29Z</time>
      </trkpt>
      <trkpt lat="49.0728" lon="7.68363">
        <ele>244.54914288545</ele>
        <time>2016-07-03T09:42:33Z</time>
      </trkpt>
      <trkpt lat="49.07288" lon="7.68354">
        <ele>244.63646522419</ele>
        <time>2016-07-03T09:42:37Z</time>
      </trkpt>
      <trkpt lat="49.07287" lon="7.68345">
        <ele>244.59327319225</ele>
        <time>2016-07-03T09:42:41Z</time>
      </trkpt>
      <trkpt lat="49.07291" lon="7.6834">
        <ele>244.83634027775</ele>
        <time>2016-07-03T09:42:46Z</time>
      </trkpt>
      <trkpt lat="49.07293" lon="7.68334">
        <ele>247.05488409529</ele>
        <time>2016-07-03T09:43:04Z</time>
      </trkpt>
      <trkpt lat="49.0729" lon="7.6833">
        <ele>247.2588969847</ele>
        <time>2016-07-03T09:43:09Z</time>
      </trkpt>
      <trkpt lat="49.07288" lon="7.68325">
        <ele>247.21975615174</ele>
        <time>2016-07-03T09:43:14Z</time>
      </trkpt>
      <trkpt lat="49.07285" lon="7.68318">
        <ele>247.36195524325</ele>
        <time>2016-07-03T09:43:18Z</time>
      </trkpt>
      <trkpt lat="49.07281" lon="7.68309">
        <ele>247.52797587882</ele>
        <time>2016-07-03T09:43:23Z</time>
      </trkpt>
      <trkpt lat="49.0728" lon="7.68303">
        <ele>247.02122769369</ele>
        <time>2016-07-03T09:43:32Z</time>
      </trkpt>
      <trkpt lat="49.07276" lon="7.68299">
        <ele>246.55148870055</ele>
        <time>2016-07-03T09:43:38Z</time>
      </trkpt>
      <trkpt lat="49.07273" lon="7.68297">
        <ele>246.05071464934</ele>
        <time>2016-07-03T09:43:43Z</time>
      </trkpt>
      <trkpt lat="49.07266" lon="7.68287">
        <ele>245.81825240474</ele>
        <time>2016-07-03T09:43:47Z</time>
      </trkpt>
      <trkpt lat="49.0726" lon="7.68279">
        <ele>245.62938739372</ele>
        <time>2016-07-03T09:43:51Z</time>
      </trkpt>
      <trkpt lat="49.07256" lon="7.68273">
        <ele>245.4007500471</ele>
        <time>2016-07-03T09:43:55Z</time>
      </trkpt>
      <trkpt lat="49.07245" lon="7.68253">
        <ele>245.50625296514</ele>
        <time>2016-07-03T09:44:08Z</time>
      </trkpt>
      <trkpt lat="49.07235" lon="7.68231">
        <ele>243.74911594759</ele>
        <time>2016-07-03T09:44:23Z</time>
      </trkpt>
      <trkpt lat="49.07233" lon="7.68226">
        <ele>243.10739278151</ele>
        <time>2016-07-03T09:44:27Z</time>
      </trkpt>
      <trkpt lat="49.07231" lon="7.68221">
        <ele>242.2583738565</ele>
        <time>2016-07-03T09:44:39Z</time>
      </trkpt>
      <trkpt lat="49.07228" lon="7.68218">
        <ele>240.83863696675</ele>
        <time>2016-07-03T09:44:44Z</time>
      </trkpt>
      <trkpt lat="49.07223" lon="7.68214">
        <ele>240.05027741155</ele>
        <time>2016-07-03T09:44:49Z</time>
      </trkpt>
      <trkpt lat="49.07222" lon="7.68206">
        <ele>240.68234365767</ele>
        <time>2016-07-03T09:44:53Z</time>
      </trkpt>
      <trkpt lat="49.07216" lon="7.68196">
        <ele>241.4684729892</ele>
        <time>2016-07-03T09:44:58Z</time>
      </trkpt>
      <trkpt lat="49.07211" lon="7.68184">
        <ele>242.95762780591</ele>
        <time>2016-07-03T09:45:03Z</time>
      </trkpt>
      <trkpt lat="49.07206" lon="7.68176">
        <ele>244.07928086259</ele>
        <time>2016-07-03T09:45:07Z</time>
      </trkpt>
      <trkpt lat="49.07203" lon="7.68168">
        <ele>245.53529872785</ele>
        <time>2016-07-03T09:45:12Z</time>
      </trkpt>
      <trkpt lat="49.07201" lon="7.68158">
        <ele>246.51509174699</ele>
        <time>2016-07-03T09:45:16Z</time>
      </trkpt>
      <trkpt lat="49.072" lon="7.6815">
        <ele>247.11143216755</ele>
        <time>2016-07-03T09:45:20Z</time>
      </trkpt>
      <trkpt lat="49.072" lon="7.68146">
        <ele>247.25531332784</ele>
        <time>2016-07-03T09:45:24Z</time>
      </trkpt>
      <trkpt lat="49.07192" lon="7.68102">
        <ele>247.0593592344</ele>
        <time>2016-07-03T09:45:48Z</time>
      </trkpt>
      <trkpt lat="49.07189" lon="7.68088">
        <ele>245.98855501142</ele>
        <time>2016-07-03T09:45:53Z</time>
      </trkpt>
      <trkpt lat="49.07187" lon="7.6808">
        <ele>245.38838692991</ele>
        <time>2016-07-03T09:45:57Z</time>
      </trkpt>
      <trkpt lat="49.07185" lon="7.68074">
        <ele>244.65708877565</ele>
        <time>2016-07-03T09:46:01Z</time>
      </trkpt>
      <trkpt lat="49.07184" lon="7.6807">
        <ele>244.48146258539</ele>
        <time>2016-07-03T09:46:06Z</time>
      </trkpt>
      <trkpt lat="49.07184" lon="7.68063">
        <ele>243.58951286969</ele>
        <time>2016-07-03T09:46:12Z</time>
      </trkpt>
      <trkpt lat="49.07183" lon="7.68055">
        <ele>242.91335477258</ele>
        <time>2016-07-03T09:46:17Z</time>
      </trkpt>
      <trkpt lat="49.07174" lon="7.68039">
        <ele>242.52124001069</ele>
        <time>2016-07-03T09:46:21Z</time>
      </trkpt>
      <trkpt lat="49.07171" lon="7.68035">
        <ele>242.36871624524</ele>
        <time>2016-07-03T09:46:25Z</time>
      </trkpt>
      <trkpt lat="49.07168" lon="7.6803">
        <ele>242.13613503544</ele>
        <time>2016-07-03T09:46:30Z</time>
      </trkpt>
      <trkpt lat="49.07164" lon="7.68025">
        <ele>242.07540270824</ele>
        <time>2016-07-03T09:46:34Z</time>
      </trkpt>
      <trkpt lat="49.07161" lon="7.68016">
        <ele>242.81295217431</ele>
        <time>2016-07-03T09:46:39Z</time>
      </trkpt>
      <trkpt lat="49.07165" lon="7.68019">
        <ele>244.50300642502</ele>
        <time>2016-07-03T09:46:54Z</time>
      </trkpt>
      <trkpt lat="49.07169" lon="7.68024">
        <ele>245.49187281638</ele>
        <time>2016-07-03T09:46:59Z</time>
      </trkpt>
      <trkpt lat="49.07172" lon="7.68029">
        <ele>246.82816297494</ele>
        <time>2016-07-03T09:47:04Z</time>
      </trkpt>
      <trkpt lat="49.07176" lon="7.68027">
        <ele>248.16395510143</ele>
        <time>2016-07-03T09:47:08Z</time>
      </trkpt>
      <trkpt lat="49.0718" lon="7.68024">
        <ele>249.69064265874</ele>
        <time>2016-07-03T09:47:16Z</time>
      </trkpt>
      <trkpt lat="49.07184" lon="7.68022">
        <ele>250.78368888632</ele>
        <time>2016-07-03T09:47:23Z</time>
      </trkpt>
      <trkpt lat="49.07193" lon="7.68021">
        <ele>251.40093250485</ele>
        <time>2016-07-03T09:47:28Z</time>
      </trkpt>
      <trkpt lat="49.07202" lon="7.68013">
        <ele>252.00801124466</ele>
        <time>2016-07-03T09:47:33Z</time>
      </trkpt>
      <trkpt lat="49.07206" lon="7.68008">
        <ele>251.93128678378</ele>
        <time>2016-07-03T09:47:37Z</time>
      </trkpt>
      <trkpt lat="49.07209" lon="7.68004">
        <ele>251.94567681487</ele>
        <time>2016-07-03T09:47:43Z</time>
      </trkpt>
      <trkpt lat="49.07212" lon="7.67997">
        <ele>252.07959453315</ele>
        <time>2016-07-03T09:47:48Z</time>
      </trkpt>
      <trkpt lat="49.07215" lon="7.67989">
        <ele>252.4496196003</ele>
        <time>2016-07-03T09:47:52Z</time>
      </trkpt>
      <trkpt lat="49.07217" lon="7.67983">
        <ele>252.83516626479</ele>
        <time>2016-07-03T09:47:57Z</time>
      </trkpt>
      <trkpt lat="49.0722" lon="7.6798">
        <ele>253.4795608212</ele>
        <time>2016-07-03T09:48:02Z</time>
      </trkpt>
      <trkpt lat="49.07224" lon="7.67974">
        <ele>253.49621738244</ele>
        <time>2016-07-03T09:48:07Z</time>
      </trkpt>
      <trkpt lat="49.07232" lon="7.67957">
        <ele>253.37835132694</ele>
        <time>2016-07-03T09:48:12Z</time>
      </trkpt>
      <trkpt lat="49.07235" lon="7.6795">
        <ele>253.31462372708</ele>
        <time>2016-07-03T09:48:16Z</time>
      </trkpt>
      <trkpt lat="49.07238" lon="7.67942">
        <ele>253.35096133738</ele>
        <time>2016-07-03T09:48:20Z</time>
      </trkpt>
      <trkpt lat="49.07241" lon="7.67938">
        <ele>253.62384459578</ele>
        <time>2016-07-03T09:48:24Z</time>
      </trkpt>
      <trkpt lat="49.0724" lon="7.67931">
        <ele>254.13313438009</ele>
        <time>2016-07-03T09:48:28Z</time>
      </trkpt>
      <trkpt lat="49.07241" lon="7.67926">
        <ele>254.65289746431</ele>
        <time>2016-07-03T09:48:32Z</time>
      </trkpt>
      <trkpt lat="49.07243" lon="7.67918">
        <ele>255.13379603555</ele>
        <time>2016-07-03T09:48:37Z</time>
      </trkpt>
      <trkpt lat="49.07244" lon="7.67911">
        <ele>255.74768697957</ele>
        <time>2016-07-03T09:48:41Z</time>
      </trkpt>
      <trkpt lat="49.07247" lon="7.67906">
        <ele>256.48788959</ele>
        <time>2016-07-03T09:48:48Z</time>
      </trkpt>
      <trkpt lat="49.0725" lon="7.67903">
        <ele>256.34631882201</ele>
        <time>2016-07-03T09:48:52Z</time>
      </trkpt>
      <trkpt lat="49.07254" lon="7.679">
        <ele>255.64500219733</ele>
        <time>2016-07-03T09:48:56Z</time>
      </trkpt>
      <trkpt lat="49.07257" lon="7.67896">
        <ele>254.75007960142</ele>
        <time>2016-07-03T09:49:01Z</time>
      </trkpt>
      <trkpt lat="49.0726" lon="7.67889">
        <ele>254.15221748035</ele>
        <time>2016-07-03T09:49:06Z</time>
      </trkpt>
      <trkpt lat="49.07262" lon="7.67885">
        <ele>253.62379874132</ele>
        <time>2016-07-03T09:49:10Z</time>
      </trkpt>
      <trkpt lat="49.07268" lon="7.67871">
        <ele>253.65182240362</ele>
        <time>2016-07-03T09:49:14Z</time>
      </trkpt>
      <trkpt lat="49.07268" lon="7.67865">
        <ele>253.85535234723</ele>
        <time>2016-07-03T09:49:20Z</time>
      </trkpt>
      <trkpt lat="49.07268" lon="7.67857">
        <ele>254.01146375592</ele>
        <time>2016-07-03T09:49:24Z</time>
      </trkpt>
      <trkpt lat="49.07267" lon="7.67851">
        <ele>254.73800226443</ele>
        <time>2016-07-03T09:49:29Z</time>
      </trkpt>
      <trkpt lat="49.07268" lon="7.67845">
        <ele>255.59691245158</ele>
        <time>2016-07-03T09:49:34Z</time>
      </trkpt>
      <trkpt lat="49.07268" lon="7.67839">
        <ele>255.75648717136</ele>
        <time>2016-07-03T09:49:38Z</time>
      </trkpt>
      <trkpt lat="49.07269" lon="7.67833">
        <ele>256.63827515865</ele>
        <time>2016-07-03T09:49:44Z</time>
      </trkpt>
      <trkpt lat="49.0727" lon="7.67827">
        <ele>257.98251375687</ele>
        <time>2016-07-03T09:49:49Z</time>
      </trkpt>
      <trkpt lat="49.07272" lon="7.67819">
        <ele>258.80739045673</ele>
        <time>2016-07-03T09:49:53Z</time>
      </trkpt>
      <trkpt lat="49.07273" lon="7.67809">
        <ele>259.39047433168</ele>
        <time>2016-07-03T09:49:58Z</time>
      </trkpt>
      <trkpt lat="49.07274" lon="7.67803">
        <ele>259.94983959252</ele>
        <time>2016-07-03T09:50:02Z</time>
      </trkpt>
      <trkpt lat="49.07276" lon="7.67796">
        <ele>260.34124437675</ele>
        <time>2016-07-03T09:50:07Z</time>
      </trkpt>
      <trkpt lat="49.07277" lon="7.6779">
        <ele>260.50071914381</ele>
        <time>2016-07-03T09:50:12Z</time>
      </trkpt>
      <trkpt lat="49.07277" lon="7.67784">
        <ele>261.04829284925</ele>
        <time>2016-07-03T09:50:17Z</time>
      </trkpt>
      <trkpt lat="49.0728" lon="7.67777">
        <ele>261.53811219347</ele>
        <time>2016-07-03T09:50:22Z</time>
      </trkpt>
      <trkpt lat="49.07283" lon="7.67772">
        <ele>262.32644783836</ele>
        <time>2016-07-03T09:50:28Z</time>
      </trkpt>
      <trkpt lat="49.07286" lon="7.67767">
        <ele>262.95710776294</ele>
        <time>2016-07-03T09:50:32Z</time>
      </trkpt>
      <trkpt lat="49.0729" lon="7.67764">
        <ele>263.26498045892</ele>
        <time>2016-07-03T09:50:36Z</time>
      </trkpt>
      <trkpt lat="49.07293" lon="7.67762">
        <ele>264.31563064991</ele>
        <time>2016-07-03T09:50:42Z</time>
      </trkpt>
      <trkpt lat="49.073" lon="7.67758">
        <ele>264.3993950068</ele>
        <time>2016-07-03T09:50:47Z</time>
      </trkpt>
      <trkpt lat="49.07304" lon="7.67753">
        <ele>264.47924579166</ele>
        <time>2016-07-03T09:50:51Z</time>
      </trkpt>
      <trkpt lat="49.07308" lon="7.6775">
        <ele>264.647514127</ele>
        <time>2016-07-03T09:50:57Z</time>
      </trkpt>
      <trkpt lat="49.07313" lon="7.67748">
        <ele>264.48458251112</ele>
        <time>2016-07-03T09:51:02Z</time>
      </trkpt>
      <trkpt lat="49.07315" lon="7.67744">
        <ele>264.9345573444</ele>
        <time>2016-07-03T09:51:08Z</time>
      </trkpt>
      <trkpt lat="49.07318" lon="7.6774">
        <ele>265.7513461331</ele>
        <time>2016-07-03T09:51:12Z</time>
      </trkpt>
      <trkpt lat="49.07323" lon="7.67735">
        <ele>266.12887567448</ele>
        <time>2016-07-03T09:51:17Z</time>
      </trkpt>
      <trkpt lat="49.07327" lon="7.67732">
        <ele>269.24281485165</ele>
        <time>2016-07-03T09:51:54Z</time>
      </trkpt>
      <trkpt lat="49.07329" lon="7.67727">
        <ele>272.34347589831</ele>
        <time>2016-07-03T09:52:40Z</time>
      </trkpt>
      <trkpt lat="49.07332" lon="7.67723">
        <ele>272.14802703555</ele>
        <time>2016-07-03T09:52:52Z</time>
      </trkpt>
      <trkpt lat="49.07335" lon="7.6772">
        <ele>272.01683500006</ele>
        <time>2016-07-03T09:53:06Z</time>
      </trkpt>
      <trkpt lat="49.07339" lon="7.67712">
        <ele>271.67559240824</ele>
        <time>2016-07-03T09:53:11Z</time>
      </trkpt>
      <trkpt lat="49.07342" lon="7.67707">
        <ele>271.59289788131</ele>
        <time>2016-07-03T09:53:16Z</time>
      </trkpt>
      <trkpt lat="49.07346" lon="7.67699">
        <ele>271.70235492648</ele>
        <time>2016-07-03T09:53:21Z</time>
      </trkpt>
      <trkpt lat="49.07349" lon="7.67689">
        <ele>272.19594050238</ele>
        <time>2016-07-03T09:53:25Z</time>
      </trkpt>
      <trkpt lat="49.07351" lon="7.67684">
        <ele>272.74560078326</ele>
        <time>2016-07-03T09:53:30Z</time>
      </trkpt>
      <trkpt lat="49.07355" lon="7.6768">
        <ele>273.39857459275</ele>
        <time>2016-07-03T09:53:35Z</time>
      </trkpt>
      <trkpt lat="49.07358" lon="7.67675">
        <ele>273.90593701614</ele>
        <time>2016-07-03T09:53:39Z</time>
      </trkpt>
      <trkpt lat="49.07362" lon="7.67669">
        <ele>274.47392631994</ele>
        <time>2016-07-03T09:53:44Z</time>
      </trkpt>
      <trkpt lat="49.07366" lon="7.67666">
        <ele>274.70010569293</ele>
        <time>2016-07-03T09:53:48Z</time>
      </trkpt>
      <trkpt lat="49.07368" lon="7.67663">
        <ele>274.55134002855</ele>
        <time>2016-07-03T09:53:52Z</time>
      </trkpt>
      <trkpt lat="49.07374" lon="7.67651">
        <ele>274.41121103329</ele>
        <time>2016-07-03T09:53:56Z</time>
      </trkpt>
      <trkpt lat="49.07377" lon="7.67647">
        <ele>274.51507739059</ele>
        <time>2016-07-03T09:54:01Z</time>
      </trkpt>
      <trkpt lat="49.07381" lon="7.67645">
        <ele>274.39264706377</ele>
        <time>2016-07-03T09:54:05Z</time>
      </trkpt>
      <trkpt lat="49.07385" lon="7.67646">
        <ele>274.0650512685</ele>
        <time>2016-07-03T09:54:10Z</time>
      </trkpt>
      <trkpt lat="49.07389" lon="7.67644">
        <ele>273.50910795466</ele>
        <time>2016-07-03T09:54:15Z</time>
      </trkpt>
      <trkpt lat="49.07392" lon="7.67642">
        <ele>272.22514365659</ele>
        <time>2016-07-03T09:54:22Z</time>
      </trkpt>
      <trkpt lat="49.07394" lon="7.67637">
        <ele>271.42289076618</ele>
        <time>2016-07-03T09:54:26Z</time>
      </trkpt>
      <trkpt lat="49.07398" lon="7.67631">
        <ele>270.03221279921</ele>
        <time>2016-07-03T09:54:30Z</time>
      </trkpt>
      <trkpt lat="49.07402" lon="7.6763">
        <ele>268.88082762994</ele>
        <time>2016-07-03T09:54:34Z</time>
      </trkpt>
      <trkpt lat="49.07404" lon="7.67625">
        <ele>267.84334773381</ele>
        <time>2016-07-03T09:54:39Z</time>
      </trkpt>
      <trkpt lat="49.07407" lon="7.67621">
        <ele>267.04696839844</ele>
        <time>2016-07-03T09:54:44Z</time>
      </trkpt>
      <trkpt lat="49.0741" lon="7.67617">
        <ele>266.38581140317</ele>
        <time>2016-07-03T09:54:50Z</time>
      </trkpt>
      <trkpt lat="49.07413" lon="7.67611">
        <ele>266.2179348554</ele>
        <time>2016-07-03T09:54:54Z</time>
      </trkpt>
      <trkpt lat="49.07417" lon="7.67606">
        <ele>266.14381540745</ele>
        <time>2016-07-03T09:54:59Z</time>
      </trkpt>
      <trkpt lat="49.07422" lon="7.67596">
        <ele>265.99566905412</ele>
        <time>2016-07-03T09:55:03Z</time>
      </trkpt>
      <trkpt lat="49.07427" lon="7.67588">
        <ele>265.87497179713</ele>
        <time>2016-07-03T09:55:07Z</time>
      </trkpt>
      <trkpt lat="49.07432" lon="7.67586">
        <ele>265.84259280359</ele>
        <time>2016-07-03T09:55:12Z</time>
      </trkpt>
      <trkpt lat="49.07436" lon="7.67584">
        <ele>264.92291393175</ele>
        <time>2016-07-03T09:55:16Z</time>
      </trkpt>
      <trkpt lat="49.0744" lon="7.67579">
        <ele>264.01813434626</ele>
        <time>2016-07-03T09:55:21Z</time>
      </trkpt>
      <trkpt lat="49.07443" lon="7.6757">
        <ele>263.39005894847</ele>
        <time>2016-07-03T09:55:25Z</time>
      </trkpt>
      <trkpt lat="49.07446" lon="7.67566">
        <ele>262.63269729337</ele>
        <time>2016-07-03T09:55:29Z</time>
      </trkpt>
      <trkpt lat="49.07451" lon="7.67559">
        <ele>261.89718309024</ele>
        <time>2016-07-03T09:55:34Z</time>
      </trkpt>
      <trkpt lat="49.07454" lon="7.67553">
        <ele>261.2118546354</ele>
        <time>2016-07-03T09:55:38Z</time>
      </trkpt>
      <trkpt lat="49.07457" lon="7.67548">
        <ele>260.45423319004</ele>
        <time>2016-07-03T09:55:43Z</time>
      </trkpt>
      <trkpt lat="49.07459" lon="7.67545">
        <ele>260.01799523826</ele>
        <time>2016-07-03T09:55:47Z</time>
      </trkpt>
      <trkpt lat="49.07463" lon="7.67535">
        <ele>260.08169754287</ele>
        <time>2016-07-03T09:55:52Z</time>
      </trkpt>
      <trkpt lat="49.07463" lon="7.67525">
        <ele>259.67652973024</ele>
        <time>2016-07-03T09:55:57Z</time>
      </trkpt>
      <trkpt lat="49.07464" lon="7.67513">
        <ele>259.45311720926</ele>
        <time>2016-07-03T09:56:01Z</time>
      </trkpt>
      <trkpt lat="49.07463" lon="7.67508">
        <ele>259.33717385265</ele>
        <time>2016-07-03T09:56:05Z</time>
      </trkpt>
      <trkpt lat="49.07463" lon="7.67502">
        <ele>258.61732685809</ele>
        <time>2016-07-03T09:56:10Z</time>
      </trkpt>
      <trkpt lat="49.07461" lon="7.67494">
        <ele>257.85085599982</ele>
        <time>2016-07-03T09:56:14Z</time>
      </trkpt>
      <trkpt lat="49.07459" lon="7.67485">
        <ele>258.38774024044</ele>
        <time>2016-07-03T09:56:19Z</time>
      </trkpt>
      <trkpt lat="49.07457" lon="7.67477">
        <ele>259.33544155318</ele>
        <time>2016-07-03T09:56:24Z</time>
      </trkpt>
      <trkpt lat="49.07456" lon="7.67471">
        <ele>260.17859393181</ele>
        <time>2016-07-03T09:56:30Z</time>
      </trkpt>
      <trkpt lat="49.07455" lon="7.67462">
        <ele>260.37332405769</ele>
        <time>2016-07-03T09:56:35Z</time>
      </trkpt>
      <trkpt lat="49.07454" lon="7.67457">
        <ele>260.13544880139</ele>
        <time>2016-07-03T09:56:39Z</time>
      </trkpt>
      <trkpt lat="49.07451" lon="7.67448">
        <ele>259.67617360972</ele>
        <time>2016-07-03T09:56:44Z</time>
      </trkpt>
      <trkpt lat="49.07451" lon="7.67442">
        <ele>259.31798858687</ele>
        <time>2016-07-03T09:56:48Z</time>
      </trkpt>
      <trkpt lat="49.07449" lon="7.67434">
        <ele>259.0331336567</ele>
        <time>2016-07-03T09:56:52Z</time>
      </trkpt>
      <trkpt lat="49.07448" lon="7.67426">
        <ele>258.98164823173</ele>
        <time>2016-07-03T09:56:56Z</time>
      </trkpt>
      <trkpt lat="49.07452" lon="7.67422">
        <ele>259.40208349502</ele>
        <time>2016-07-03T09:57:06Z</time>
      </trkpt>
      <trkpt lat="49.07455" lon="7.67422">
        <ele>259.86662233157</ele>
        <time>2016-07-03T09:57:11Z</time>
      </trkpt>
      <trkpt lat="49.0746" lon="7.67425">
        <ele>260.30667553006</ele>
        <time>2016-07-03T09:57:16Z</time>
      </trkpt>
      <trkpt lat="49.07466" lon="7.67429">
        <ele>260.32845866304</ele>
        <time>2016-07-03T09:57:20Z</time>
      </trkpt>
      <trkpt lat="49.0747" lon="7.67428">
        <ele>259.68103073793</ele>
        <time>2016-07-03T09:57:29Z</time>
      </trkpt>
      <trkpt lat="49.07475" lon="7.67432">
        <ele>259.30728282838</ele>
        <time>2016-07-03T09:57:33Z</time>
      </trkpt>
      <trkpt lat="49.0748" lon="7.67438">
        <ele>258.97954487221</ele>
        <time>2016-07-03T09:57:38Z</time>
      </trkpt>
      <trkpt lat="49.07483" lon="7.6744">
        <ele>258.84132852672</ele>
        <time>2016-07-03T09:57:42Z</time>
      </trkpt>
      <trkpt lat="49.07488" lon="7.67442">
        <ele>258.21024000482</ele>
        <time>2016-07-03T09:57:47Z</time>
      </trkpt>
      <trkpt lat="49.07492" lon="7.67444">
        <ele>258.20588501963</ele>
        <time>2016-07-03T09:57:51Z</time>
      </trkpt>
      <trkpt lat="49.07498" lon="7.67448">
        <ele>258.13090804873</ele>
        <time>2016-07-03T09:57:56Z</time>
      </trkpt>
      <trkpt lat="49.07502" lon="7.67449">
        <ele>258.33137142841</ele>
        <time>2016-07-03T09:58:00Z</time>
      </trkpt>
      <trkpt lat="49.07506" lon="7.6745">
        <ele>258.11765485084</ele>
        <time>2016-07-03T09:58:04Z</time>
      </trkpt>
      <trkpt lat="49.07509" lon="7.67453">
        <ele>257.74235098888</ele>
        <time>2016-07-03T09:58:08Z</time>
      </trkpt>
      <trkpt lat="49.07512" lon="7.67458">
        <ele>257.43780282922</ele>
        <time>2016-07-03T09:58:12Z</time>
      </trkpt>
      <trkpt lat="49.07514" lon="7.67464">
        <ele>253.56843614455</ele>
        <time>2016-07-03T09:58:31Z</time>
      </trkpt>
      <trkpt lat="49.07517" lon="7.67465">
        <ele>253.03319956964</ele>
        <time>2016-07-03T09:58:36Z</time>
      </trkpt>
      <trkpt lat="49.0752" lon="7.67467">
        <ele>252.58155877507</ele>
        <time>2016-07-03T09:58:40Z</time>
      </trkpt>
      <trkpt lat="49.07523" lon="7.6747">
        <ele>252.40380450082</ele>
        <time>2016-07-03T09:58:44Z</time>
      </trkpt>
      <trkpt lat="49.07532" lon="7.67476">
        <ele>252.5245660461</ele>
        <time>2016-07-03T09:58:49Z</time>
      </trkpt>
      <trkpt lat="49.07538" lon="7.67478">
        <ele>252.67594952192</ele>
        <time>2016-07-03T09:58:53Z</time>
      </trkpt>
      <trkpt lat="49.07541" lon="7.67483">
        <ele>251.81191521899</ele>
        <time>2016-07-03T09:59:01Z</time>
      </trkpt>
      <trkpt lat="49.07552" lon="7.67484">
        <ele>252.07102806144</ele>
        <time>2016-07-03T09:59:05Z</time>
      </trkpt>
      <trkpt lat="49.07558" lon="7.67485">
        <ele>252.32240149602</ele>
        <time>2016-07-03T09:59:09Z</time>
      </trkpt>
      <trkpt lat="49.07567" lon="7.6749">
        <ele>253.46510485115</ele>
        <time>2016-07-03T09:59:13Z</time>
      </trkpt>
      <trkpt lat="49.07576" lon="7.67496">
        <ele>254.71244683483</ele>
        <time>2016-07-03T09:59:18Z</time>
      </trkpt>
      <trkpt lat="49.07579" lon="7.67498">
        <ele>255.14381599251</ele>
        <time>2016-07-03T09:59:20Z</time>
      </trkpt>
      <trkpt lat="49.07586" lon="7.67502">
        <ele>256.28515772724</ele>
        <time>2016-07-03T09:59:25Z</time>
      </trkpt>
      <trkpt lat="49.0759" lon="7.67503">
        <ele>256.68484650392</ele>
        <time>2016-07-03T09:59:32Z</time>
      </trkpt>
      <trkpt lat="49.07599" lon="7.6751">
        <ele>256.86385163813</ele>
        <time>2016-07-03T09:59:37Z</time>
      </trkpt>
      <trkpt lat="49.07603" lon="7.67507">
        <ele>257.01684113045</ele>
        <time>2016-07-03T09:59:42Z</time>
      </trkpt>
      <trkpt lat="49.07606" lon="7.67511">
        <ele>256.95665161793</ele>
        <time>2016-07-03T10:00:05Z</time>
      </trkpt>
      <trkpt lat="49.0761" lon="7.67514">
        <ele>257.27926681499</ele>
        <time>2016-07-03T10:00:13Z</time>
      </trkpt>
      <trkpt lat="49.07617" lon="7.6752">
        <ele>257.13661443527</ele>
        <time>2016-07-03T10:00:18Z</time>
      </trkpt>
      <trkpt lat="49.0762" lon="7.67523">
        <ele>255.95317591297</ele>
        <time>2016-07-03T10:00:35Z</time>
      </trkpt>
      <trkpt lat="49.07625" lon="7.67522">
        <ele>253.54190320896</ele>
        <time>2016-07-03T10:00:48Z</time>
      </trkpt>
      <trkpt lat="49.07627" lon="7.67518">
        <ele>248.88393730713</ele>
        <time>2016-07-03T10:01:11Z</time>
      </trkpt>
      <trkpt lat="49.0763" lon="7.67515">
        <ele>245.03034164375</ele>
        <time>2016-07-03T10:01:30Z</time>
      </trkpt>
      <trkpt lat="49.07631" lon="7.6752">
        <ele>244.83950928303</ele>
        <time>2016-07-03T10:02:48Z</time>
      </trkpt>
      <trkpt lat="49.07631" lon="7.67527">
        <ele>244.23059044452</ele>
        <time>2016-07-03T10:03:08Z</time>
      </trkpt>
      <trkpt lat="49.07631" lon="7.67533">
        <ele>243.22059336987</ele>
        <time>2016-07-03T10:03:30Z</time>
      </trkpt>
      <trkpt lat="49.07633" lon="7.67538">
        <ele>239.98339391156</ele>
        <time>2016-07-03T10:03:56Z</time>
      </trkpt>
      <trkpt lat="49.07635" lon="7.67543">
        <ele>241.0669828071</ele>
        <time>2016-07-03T10:04:07Z</time>
      </trkpt>
      <trkpt lat="49.07637" lon="7.67548">
        <ele>242.25564857712</ele>
        <time>2016-07-03T10:04:14Z</time>
      </trkpt>
      <trkpt lat="49.0764" lon="7.67552">
        <ele>242.66204049149</ele>
        <time>2016-07-03T10:04:19Z</time>
      </trkpt>
      <trkpt lat="49.07644" lon="7.67557">
        <ele>242.80995740655</ele>
        <time>2016-07-03T10:04:25Z</time>
      </trkpt>
      <trkpt lat="49.07648" lon="7.67558">
        <ele>242.92597222394</ele>
        <time>2016-07-03T10:04:31Z</time>
      </trkpt>
      <trkpt lat="49.07652" lon="7.67559">
        <ele>243.21720507438</ele>
        <time>2016-07-03T10:04:35Z</time>
      </trkpt>
      <trkpt lat="49.07657" lon="7.67562">
        <ele>243.91863033698</ele>
        <time>2016-07-03T10:04:40Z</time>
      </trkpt>
      <trkpt lat="49.07664" lon="7.6757">
        <ele>244.93983510085</ele>
        <time>2016-07-03T10:04:45Z</time>
      </trkpt>
      <trkpt lat="49.07667" lon="7.67574">
        <ele>245.32053751072</ele>
        <time>2016-07-03T10:04:50Z</time>
      </trkpt>
      <trkpt lat="49.07678" lon="7.67579">
        <ele>245.39477526657</ele>
        <time>2016-07-03T10:04:55Z</time>
      </trkpt>
      <trkpt lat="49.0768" lon="7.67581">
        <ele>245.48280707557</ele>
        <time>2016-07-03T10:04:59Z</time>
      </trkpt>
      <trkpt lat="49.07683" lon="7.67585">
        <ele>246.31487343964</ele>
        <time>2016-07-03T10:05:12Z</time>
      </trkpt>
      <trkpt lat="49.07684" lon="7.6759">
        <ele>247.56411114417</ele>
        <time>2016-07-03T10:05:23Z</time>
      </trkpt>
      <trkpt lat="49.0769" lon="7.67593">
        <ele>247.8610335501</ele>
        <time>2016-07-03T10:05:27Z</time>
      </trkpt>
      <trkpt lat="49.07693" lon="7.67594">
        <ele>247.07755062861</ele>
        <time>2016-07-03T10:05:40Z</time>
      </trkpt>
      <trkpt lat="49.07698" lon="7.67591">
        <ele>245.21126635589</ele>
        <time>2016-07-03T10:05:44Z</time>
      </trkpt>
      <trkpt lat="49.07711" lon="7.67575">
        <ele>243.55497130411</ele>
        <time>2016-07-03T10:05:48Z</time>
      </trkpt>
      <trkpt lat="49.07716" lon="7.67565">
        <ele>241.97947522367</ele>
        <time>2016-07-03T10:05:53Z</time>
      </trkpt>
      <trkpt lat="49.07719" lon="7.6756">
        <ele>241.16027391666</ele>
        <time>2016-07-03T10:05:58Z</time>
      </trkpt>
      <trkpt lat="49.07725" lon="7.67554">
        <ele>240.58130223318</ele>
        <time>2016-07-03T10:06:02Z</time>
      </trkpt>
      <trkpt lat="49.07726" lon="7.67548">
        <ele>240.76408151372</ele>
        <time>2016-07-03T10:06:09Z</time>
      </trkpt>
      <trkpt lat="49.0773" lon="7.67535">
        <ele>241.36360118419</ele>
        <time>2016-07-03T10:06:14Z</time>
      </trkpt>
      <trkpt lat="49.07732" lon="7.67529">
        <ele>241.92119040326</ele>
        <time>2016-07-03T10:06:23Z</time>
      </trkpt>
      <trkpt lat="49.07734" lon="7.67525">
        <ele>241.49244814488</ele>
        <time>2016-07-03T10:06:31Z</time>
      </trkpt>
      <trkpt lat="49.07741" lon="7.67519">
        <ele>241.11192497352</ele>
        <time>2016-07-03T10:06:35Z</time>
      </trkpt>
      <trkpt lat="49.07746" lon="7.67508">
        <ele>241.35164430818</ele>
        <time>2016-07-03T10:06:39Z</time>
      </trkpt>
      <trkpt lat="49.07747" lon="7.67499">
        <ele>241.91294227408</ele>
        <time>2016-07-03T10:06:44Z</time>
      </trkpt>
      <trkpt lat="49.07751" lon="7.67483">
        <ele>242.28104646115</ele>
        <time>2016-07-03T10:06:48Z</time>
      </trkpt>
      <trkpt lat="49.07752" lon="7.67475">
        <ele>242.9664413225</ele>
        <time>2016-07-03T10:06:52Z</time>
      </trkpt>
      <trkpt lat="49.07754" lon="7.67467">
        <ele>243.35599582962</ele>
        <time>2016-07-03T10:06:57Z</time>
      </trkpt>
      <trkpt lat="49.07755" lon="7.67463">
        <ele>243.98522777594</ele>
        <time>2016-07-03T10:07:02Z</time>
      </trkpt>
      <trkpt lat="49.07755" lon="7.67452">
        <ele>244.28318693095</ele>
        <time>2016-07-03T10:07:07Z</time>
      </trkpt>
      <trkpt lat="49.07758" lon="7.67446">
        <ele>244.02280641226</ele>
        <time>2016-07-03T10:07:11Z</time>
      </trkpt>
      <trkpt lat="49.07763" lon="7.67439">
        <ele>243.07129814161</ele>
        <time>2016-07-03T10:07:16Z</time>
      </trkpt>
      <trkpt lat="49.07766" lon="7.67431">
        <ele>242.54708025808</ele>
        <time>2016-07-03T10:07:21Z</time>
      </trkpt>
      <trkpt lat="49.0777" lon="7.67429">
        <ele>241.89926959084</ele>
        <time>2016-07-03T10:07:25Z</time>
      </trkpt>
      <trkpt lat="49.07771" lon="7.67423">
        <ele>241.30813868905</ele>
        <time>2016-07-03T10:07:32Z</time>
      </trkpt>
      <trkpt lat="49.07774" lon="7.67419">
        <ele>240.40893791859</ele>
        <time>2016-07-03T10:07:37Z</time>
      </trkpt>
      <trkpt lat="49.07777" lon="7.67421">
        <ele>238.13653154754</ele>
        <time>2016-07-03T10:08:02Z</time>
      </trkpt>
      <trkpt lat="49.07779" lon="7.67426">
        <ele>236.92650260238</ele>
        <time>2016-07-03T10:08:09Z</time>
      </trkpt>
      <trkpt lat="49.0778" lon="7.6742">
        <ele>236.35301691676</ele>
        <time>2016-07-03T10:08:31Z</time>
      </trkpt>
      <trkpt lat="49.07782" lon="7.67414">
        <ele>236.06580885709</ele>
        <time>2016-07-03T10:08:35Z</time>
      </trkpt>
      <trkpt lat="49.0778" lon="7.67404">
        <ele>235.24767116028</ele>
        <time>2016-07-03T10:08:40Z</time>
      </trkpt>
      <trkpt lat="49.07771" lon="7.67397">
        <ele>234.46631122339</ele>
        <time>2016-07-03T10:08:44Z</time>
      </trkpt>
      <trkpt lat="49.07767" lon="7.67393">
        <ele>234.34810697345</ele>
        <time>2016-07-03T10:08:48Z</time>
      </trkpt>
      <trkpt lat="49.07764" lon="7.6739">
        <ele>234.05811870069</ele>
        <time>2016-07-03T10:08:53Z</time>
      </trkpt>
      <trkpt lat="49.0776" lon="7.67388">
        <ele>233.98932002323</ele>
        <time>2016-07-03T10:08:57Z</time>
      </trkpt>
      <trkpt lat="49.07755" lon="7.67385">
        <ele>233.9176297886</ele>
        <time>2016-07-03T10:09:02Z</time>
      </trkpt>
      <trkpt lat="49.07749" lon="7.6738">
        <ele>234.05821955006</ele>
        <time>2016-07-03T10:09:06Z</time>
      </trkpt>
      <trkpt lat="49.07748" lon="7.67374">
        <ele>233.83542031174</ele>
        <time>2016-07-03T10:09:13Z</time>
      </trkpt>
      <trkpt lat="49.07749" lon="7.6737">
        <ele>233.15972370933</ele>
        <time>2016-07-03T10:09:19Z</time>
      </trkpt>
      <trkpt lat="49.07745" lon="7.67353">
        <ele>232.7485380384</ele>
        <time>2016-07-03T10:09:24Z</time>
      </trkpt>
      <trkpt lat="49.07743" lon="7.67345">
        <ele>231.58573584208</ele>
        <time>2016-07-03T10:09:29Z</time>
      </trkpt>
      <trkpt lat="49.07742" lon="7.67339">
        <ele>230.3929188669</ele>
        <time>2016-07-03T10:09:51Z</time>
      </trkpt>
      <trkpt lat="49.07737" lon="7.67333">
        <ele>229.40308262844</ele>
        <time>2016-07-03T10:09:55Z</time>
      </trkpt>
      <trkpt lat="49.07733" lon="7.67329">
        <ele>228.70114251137</ele>
        <time>2016-07-03T10:09:59Z</time>
      </trkpt>
      <trkpt lat="49.07728" lon="7.67326">
        <ele>228.27298001775</ele>
        <time>2016-07-03T10:10:03Z</time>
      </trkpt>
      <trkpt lat="49.07724" lon="7.67325">
        <ele>227.73868698459</ele>
        <time>2016-07-03T10:10:07Z</time>
      </trkpt>
      <trkpt lat="49.0772" lon="7.67326">
        <ele>226.91748375106</ele>
        <time>2016-07-03T10:10:12Z</time>
      </trkpt>
      <trkpt lat="49.07716" lon="7.67323">
        <ele>226.31099695219</ele>
        <time>2016-07-03T10:10:16Z</time>
      </trkpt>
      <trkpt lat="49.07711" lon="7.67325">
        <ele>226.33622649566</ele>
        <time>2016-07-03T10:10:21Z</time>
      </trkpt>
      <trkpt lat="49.07705" lon="7.67323">
        <ele>226.43214268052</ele>
        <time>2016-07-03T10:10:25Z</time>
      </trkpt>
      <trkpt lat="49.07701" lon="7.6732">
        <ele>227.57674027461</ele>
        <time>2016-07-03T10:10:30Z</time>
      </trkpt>
      <trkpt lat="49.07697" lon="7.67317">
        <ele>228.30913081533</ele>
        <time>2016-07-03T10:10:34Z</time>
      </trkpt>
      <trkpt lat="49.07693" lon="7.67317">
        <ele>232.98760397758</ele>
        <time>2016-07-03T10:10:57Z</time>
      </trkpt>
      <trkpt lat="49.07693" lon="7.67311">
        <ele>231.04334801998</ele>
        <time>2016-07-03T10:11:42Z</time>
      </trkpt>
      <trkpt lat="49.07694" lon="7.67302">
        <ele>231.37339509589</ele>
        <time>2016-07-03T10:11:46Z</time>
      </trkpt>
      <trkpt lat="49.07692" lon="7.67307">
        <ele>231.28692987447</ele>
        <time>2016-07-03T10:12:12Z</time>
      </trkpt>
      <trkpt lat="49.07692" lon="7.67311">
        <ele>231.24771065633</ele>
        <time>2016-07-03T10:12:16Z</time>
      </trkpt>
      <trkpt lat="49.07696" lon="7.67321">
        <ele>231.49578505883</ele>
        <time>2016-07-03T10:12:21Z</time>
      </trkpt>
      <trkpt lat="49.07695" lon="7.67318">
        <ele>231.90477789181</ele>
        <time>2016-07-03T10:12:42Z</time>
      </trkpt>
      <trkpt lat="49.07692" lon="7.67309">
        <ele>231.77211492055</ele>
        <time>2016-07-03T10:12:47Z</time>
      </trkpt>
      <trkpt lat="49.07693" lon="7.67303">
        <ele>232.93718516551</ele>
        <time>2016-07-03T10:13:25Z</time>
      </trkpt>
      <trkpt lat="49.07692" lon="7.67298">
        <ele>233.04839344116</ele>
        <time>2016-07-03T10:13:33Z</time>
      </trkpt>
      <trkpt lat="49.07691" lon="7.67292">
        <ele>232.61234812778</ele>
        <time>2016-07-03T10:14:03Z</time>
      </trkpt>
      <trkpt lat="49.07687" lon="7.67286">
        <ele>232.15988526764</ele>
        <time>2016-07-03T10:14:07Z</time>
      </trkpt>
      <trkpt lat="49.07683" lon="7.67283">
        <ele>229.34823296314</ele>
        <time>2016-07-03T10:14:22Z</time>
      </trkpt>
      <trkpt lat="49.07679" lon="7.67285">
        <ele>226.38231621945</ele>
        <time>2016-07-03T10:15:07Z</time>
      </trkpt>
      <trkpt lat="49.07676" lon="7.67291">
        <ele>225.29714514689</ele>
        <time>2016-07-03T10:15:12Z</time>
      </trkpt>
      <trkpt lat="49.07672" lon="7.67298">
        <ele>224.86539503185</ele>
        <time>2016-07-03T10:15:17Z</time>
      </trkpt>
      <trkpt lat="49.07669" lon="7.67305">
        <ele>224.55487504182</ele>
        <time>2016-07-03T10:15:22Z</time>
      </trkpt>
      <trkpt lat="49.07665" lon="7.67307">
        <ele>224.33216847495</ele>
        <time>2016-07-03T10:15:28Z</time>
      </trkpt>
      <trkpt lat="49.07667" lon="7.67302">
        <ele>224.14960299106</ele>
        <time>2016-07-03T10:15:34Z</time>
      </trkpt>
      <trkpt lat="49.0767" lon="7.67292">
        <ele>224.44491136262</ele>
        <time>2016-07-03T10:15:39Z</time>
      </trkpt>
      <trkpt lat="49.07671" lon="7.67284">
        <ele>225.25574575899</ele>
        <time>2016-07-03T10:15:43Z</time>
      </trkpt>
      <trkpt lat="49.07674" lon="7.67279">
        <ele>225.81703475761</ele>
        <time>2016-07-03T10:16:21Z</time>
      </trkpt>
      <trkpt lat="49.07675" lon="7.67285">
        <ele>232.10358281369</ele>
        <time>2016-07-03T10:22:42Z</time>
      </trkpt>
      <trkpt lat="49.07679" lon="7.67284">
        <ele>229.35667012906</ele>
        <time>2016-07-03T10:26:33Z</time>
      </trkpt>
      <trkpt lat="49.07677" lon="7.67289">
        <ele>230.63695984041</ele>
        <time>2016-07-03T10:26:49Z</time>
      </trkpt>
      <trkpt lat="49.07675" lon="7.67283">
        <ele>231.168277906</ele>
        <time>2016-07-03T10:30:21Z</time>
      </trkpt>
      <trkpt lat="49.07672" lon="7.67287">
        <ele>239.41336807365</ele>
        <time>2016-07-03T10:36:11Z</time>
      </trkpt>
      <trkpt lat="49.07676" lon="7.67287">
        <ele>236.42367059582</ele>
        <time>2016-07-03T10:47:58Z</time>
      </trkpt>
      <trkpt lat="49.07673" lon="7.67284">
        <ele>236.20352220785</ele>
        <time>2016-07-03T10:48:57Z</time>
      </trkpt>
      <trkpt lat="49.07672" lon="7.6729">
        <ele>237.30159765488</ele>
        <time>2016-07-03T10:50:14Z</time>
      </trkpt>
      <trkpt lat="49.07665" lon="7.67289">
        <ele>237.60463533605</ele>
        <time>2016-07-03T10:50:19Z</time>
      </trkpt>
      <trkpt lat="49.07667" lon="7.67287">
        <ele>237.29969928937</ele>
        <time>2016-07-03T10:50:26Z</time>
      </trkpt>
      <trkpt lat="49.07672" lon="7.67284">
        <ele>236.65627298563</ele>
        <time>2016-07-03T10:50:30Z</time>
      </trkpt>
      <trkpt lat="49.0767" lon="7.67289">
        <ele>239.50559577865</ele>
        <time>2016-07-03T10:51:58Z</time>
      </trkpt>
      <trkpt lat="49.07674" lon="7.6729">
        <ele>238.88343442281</ele>
        <time>2016-07-03T10:53:48Z</time>
      </trkpt>
      <trkpt lat="49.07676" lon="7.67289">
        <ele>238.41560703526</ele>
        <time>2016-07-03T10:53:55Z</time>
      </trkpt>
      <trkpt lat="49.07674" lon="7.67289">
        <ele>237.21316401259</ele>
        <time>2016-07-03T10:54:48Z</time>
      </trkpt>
      <trkpt lat="49.07659" lon="7.67285">
        <ele>237.19119654511</ele>
        <time>2016-07-03T10:54:52Z</time>
      </trkpt>
      <trkpt lat="49.07656" lon="7.67284">
        <ele>236.99141096108</ele>
        <time>2016-07-03T10:54:56Z</time>
      </trkpt>
      <trkpt lat="49.07658" lon="7.67287">
        <ele>235.6398899462</ele>
        <time>2016-07-03T10:56:21Z</time>
      </trkpt>
      <trkpt lat="49.0766" lon="7.67291">
        <ele>237.35373778905</ele>
        <time>2016-07-03T10:57:03Z</time>
      </trkpt>
      <trkpt lat="49.07663" lon="7.67296">
        <ele>241.80737186914</ele>
        <time>2016-07-03T10:59:46Z</time>
      </trkpt>
      <trkpt lat="49.07667" lon="7.67296">
        <ele>242.06896868917</ele>
        <time>2016-07-03T11:00:20Z</time>
      </trkpt>
      <trkpt lat="49.0767" lon="7.67303">
        <ele>242.06787627007</ele>
        <time>2016-07-03T11:00:33Z</time>
      </trkpt>
      <trkpt lat="49.07666" lon="7.67299">
        <ele>239.27715115591</ele>
        <time>2016-07-03T11:02:07Z</time>
      </trkpt>
      <trkpt lat="49.07669" lon="7.67297">
        <ele>239.58737691405</ele>
        <time>2016-07-03T11:02:28Z</time>
      </trkpt>
      <trkpt lat="49.07674" lon="7.67293">
        <ele>239.72614173911</ele>
        <time>2016-07-03T11:02:32Z</time>
      </trkpt>
      <trkpt lat="49.07675" lon="7.67286">
        <ele>240.3838458944</ele>
        <time>2016-07-03T11:05:42Z</time>
      </trkpt>
      <trkpt lat="49.07681" lon="7.67301">
        <ele>248.09644488869</ele>
        <time>2016-07-03T11:09:33Z</time>
      </trkpt>
      <trkpt lat="49.0768" lon="7.67301">
        <ele>229.76669611429</ele>
        <time>2016-07-03T11:09:46Z</time>
      </trkpt>
      <trkpt lat="49.07673" lon="7.67292">
        <ele>255.66773231569</ele>
        <time>2016-07-03T11:09:50Z</time>
      </trkpt>
      <trkpt lat="49.07673" lon="7.67292">
        <ele>240.69082743788</ele>
        <time>2016-07-03T11:10:31Z</time>
      </trkpt>
      <trkpt lat="49.0767" lon="7.67285">
        <ele>240.68878462399</ele>
        <time>2016-07-03T11:10:35Z</time>
      </trkpt>
      <trkpt lat="49.07674" lon="7.67287">
        <ele>241.92813578507</ele>
        <time>2016-07-03T11:15:41Z</time>
      </trkpt>
      <trkpt lat="49.07678" lon="7.67291">
        <ele>241.67201462186</ele>
        <time>2016-07-03T11:15:45Z</time>
      </trkpt>
      <trkpt lat="49.07682" lon="7.67294">
        <ele>240.91724649943</ele>
        <time>2016-07-03T11:15:53Z</time>
      </trkpt>
      <trkpt lat="49.07686" lon="7.67296">
        <ele>238.27159599898</ele>
        <time>2016-07-03T11:16:19Z</time>
      </trkpt>
      <trkpt lat="49.07688" lon="7.673">
        <ele>239.37622785152</ele>
        <time>2016-07-03T11:16:44Z</time>
      </trkpt>
      <trkpt lat="49.07692" lon="7.67304">
        <ele>238.97740936596</ele>
        <time>2016-07-03T11:17:58Z</time>
      </trkpt>
      <trkpt lat="49.07693" lon="7.67311">
        <ele>239.16445191253</ele>
        <time>2016-07-03T11:18:02Z</time>
      </trkpt>
      <trkpt lat="49.07694" lon="7.67317">
        <ele>239.90187136842</ele>
        <time>2016-07-03T11:18:40Z</time>
      </trkpt>
      <trkpt lat="49.07699" lon="7.67319">
        <ele>240.18500657434</ele>
        <time>2016-07-03T11:18:45Z</time>
      </trkpt>
      <trkpt lat="49.07704" lon="7.67321">
        <ele>240.4150789328</ele>
        <time>2016-07-03T11:18:49Z</time>
      </trkpt>
      <trkpt lat="49.07708" lon="7.67321">
        <ele>239.75384278237</ele>
        <time>2016-07-03T11:18:57Z</time>
      </trkpt>
      <trkpt lat="49.07711" lon="7.67306">
        <ele>238.46441185208</ele>
        <time>2016-07-03T11:19:02Z</time>
      </trkpt>
      <trkpt lat="49.07713" lon="7.67302">
        <ele>238.1823081627</ele>
        <time>2016-07-03T11:19:06Z</time>
      </trkpt>
      <trkpt lat="49.07717" lon="7.67299">
        <ele>237.70994276259</ele>
        <time>2016-07-03T11:19:10Z</time>
      </trkpt>
      <trkpt lat="49.07722" lon="7.67301">
        <ele>236.9191082825</ele>
        <time>2016-07-03T11:19:15Z</time>
      </trkpt>
      <trkpt lat="49.07726" lon="7.67302">
        <ele>236.29648089127</ele>
        <time>2016-07-03T11:19:21Z</time>
      </trkpt>
      <trkpt lat="49.07732" lon="7.67304">
        <ele>236.27484716206</ele>
        <time>2016-07-03T11:19:25Z</time>
      </trkpt>
      <trkpt lat="49.07736" lon="7.67306">
        <ele>236.07080159134</ele>
        <time>2016-07-03T11:19:32Z</time>
      </trkpt>
      <trkpt lat="49.0774" lon="7.67307">
        <ele>236.00181247243</ele>
        <time>2016-07-03T11:19:37Z</time>
      </trkpt>
      <trkpt lat="49.07743" lon="7.67313">
        <ele>235.80508642151</ele>
        <time>2016-07-03T11:19:41Z</time>
      </trkpt>
      <trkpt lat="49.07743" lon="7.67323">
        <ele>235.8831789607</ele>
        <time>2016-07-03T11:19:45Z</time>
      </trkpt>
      <trkpt lat="49.07745" lon="7.67333">
        <ele>236.64701548246</ele>
        <time>2016-07-03T11:19:49Z</time>
      </trkpt>
      <trkpt lat="49.07749" lon="7.67334">
        <ele>237.09900745507</ele>
        <time>2016-07-03T11:20:22Z</time>
      </trkpt>
      <trkpt lat="49.07753" lon="7.67336">
        <ele>236.33784482857</ele>
        <time>2016-07-03T11:20:28Z</time>
      </trkpt>
      <trkpt lat="49.07757" lon="7.67335">
        <ele>236.08705939893</ele>
        <time>2016-07-03T11:20:32Z</time>
      </trkpt>
      <trkpt lat="49.07761" lon="7.67332">
        <ele>236.30637126887</ele>
        <time>2016-07-03T11:21:00Z</time>
      </trkpt>
      <trkpt lat="49.07758" lon="7.6733">
        <ele>238.7887708354</ele>
        <time>2016-07-03T11:21:43Z</time>
      </trkpt>
      <trkpt lat="49.07755" lon="7.67325">
        <ele>238.19794395792</ele>
        <time>2016-07-03T11:21:48Z</time>
      </trkpt>
      <trkpt lat="49.07752" lon="7.67328">
        <ele>237.12251077462</ele>
        <time>2016-07-03T11:25:09Z</time>
      </trkpt>
      <trkpt lat="49.07752" lon="7.67322">
        <ele>237.05021299508</ele>
        <time>2016-07-03T11:25:56Z</time>
      </trkpt>
      <trkpt lat="49.07754" lon="7.67312">
        <ele>236.65627539701</ele>
        <time>2016-07-03T11:26:01Z</time>
      </trkpt>
      <trkpt lat="49.07757" lon="7.67316">
        <ele>236.31636073398</ele>
        <time>2016-07-03T11:27:13Z</time>
      </trkpt>
      <trkpt lat="49.07754" lon="7.67317">
        <ele>239.44409530102</ele>
        <time>2016-07-03T11:28:10Z</time>
      </trkpt>
      <trkpt lat="49.0775" lon="7.67326">
        <ele>239.80621875633</ele>
        <time>2016-07-03T11:28:15Z</time>
      </trkpt>
      <trkpt lat="49.07747" lon="7.67322">
        <ele>241.84317242746</ele>
        <time>2016-07-03T11:29:56Z</time>
      </trkpt>
      <trkpt lat="49.07744" lon="7.67318">
        <ele>241.98000031491</ele>
        <time>2016-07-03T11:30:03Z</time>
      </trkpt>
      <trkpt lat="49.07741" lon="7.67322">
        <ele>243.59067838236</ele>
        <time>2016-07-03T11:31:06Z</time>
      </trkpt>
      <trkpt lat="49.07744" lon="7.67327">
        <ele>244.21053515587</ele>
        <time>2016-07-03T11:32:25Z</time>
      </trkpt>
      <trkpt lat="49.07751" lon="7.67334">
        <ele>243.33639477587</ele>
        <time>2016-07-03T11:32:30Z</time>
      </trkpt>
      <trkpt lat="49.07758" lon="7.67346">
        <ele>242.77041703473</ele>
        <time>2016-07-03T11:32:34Z</time>
      </trkpt>
      <trkpt lat="49.07763" lon="7.6734">
        <ele>242.42873709705</ele>
        <time>2016-07-03T11:32:38Z</time>
      </trkpt>
      <trkpt lat="49.07764" lon="7.67335">
        <ele>242.64856776893</ele>
        <time>2016-07-03T11:32:45Z</time>
      </trkpt>
      <trkpt lat="49.07766" lon="7.67332">
        <ele>242.4871565022</ele>
        <time>2016-07-03T11:32:51Z</time>
      </trkpt>
      <trkpt lat="49.07767" lon="7.67328">
        <ele>240.58607375525</ele>
        <time>2016-07-03T11:33:19Z</time>
      </trkpt>
      <trkpt lat="49.07771" lon="7.67324">
        <ele>240.5571323242</ele>
        <time>2016-07-03T11:33:25Z</time>
      </trkpt>
      <trkpt lat="49.07774" lon="7.67321">
        <ele>240.50342016785</ele>
        <time>2016-07-03T11:33:34Z</time>
      </trkpt>
      <trkpt lat="49.07772" lon="7.67316">
        <ele>241.2081427015</ele>
        <time>2016-07-03T11:33:55Z</time>
      </trkpt>
      <trkpt lat="49.07767" lon="7.67314">
        <ele>240.1455803858</ele>
        <time>2016-07-03T11:34:04Z</time>
      </trkpt>
      <trkpt lat="49.07764" lon="7.67312">
        <ele>242.99537063795</ele>
        <time>2016-07-03T11:35:23Z</time>
      </trkpt>
      <trkpt lat="49.0776" lon="7.67309">
        <ele>240.54595799799</ele>
        <time>2016-07-03T11:36:18Z</time>
      </trkpt>
      <trkpt lat="49.07758" lon="7.67313">
        <ele>240.20677970546</ele>
        <time>2016-07-03T11:36:27Z</time>
      </trkpt>
      <trkpt lat="49.07752" lon="7.6732">
        <ele>240.62489518146</ele>
        <time>2016-07-03T11:36:32Z</time>
      </trkpt>
      <trkpt lat="49.07749" lon="7.67322">
        <ele>239.91682842691</ele>
        <time>2016-07-03T11:36:46Z</time>
      </trkpt>
      <trkpt lat="49.07746" lon="7.67323">
        <ele>235.6009179355</ele>
        <time>2016-07-03T11:37:02Z</time>
      </trkpt>
      <trkpt lat="49.07742" lon="7.67325">
        <ele>236.66032704587</ele>
        <time>2016-07-03T11:37:21Z</time>
      </trkpt>
      <trkpt lat="49.07737" lon="7.67323">
        <ele>236.92687245999</ele>
        <time>2016-07-03T11:37:26Z</time>
      </trkpt>
      <trkpt lat="49.07729" lon="7.67323">
        <ele>237.05794257961</ele>
        <time>2016-07-03T11:37:30Z</time>
      </trkpt>
      <trkpt lat="49.07724" lon="7.67323">
        <ele>237.16685277325</ele>
        <time>2016-07-03T11:37:34Z</time>
      </trkpt>
      <trkpt lat="49.07721" lon="7.67327">
        <ele>238.37558158622</ele>
        <time>2016-07-03T11:37:48Z</time>
      </trkpt>
      <trkpt lat="49.07718" lon="7.6733">
        <ele>238.59893778668</ele>
        <time>2016-07-03T11:37:52Z</time>
      </trkpt>
      <trkpt lat="49.07713" lon="7.67329">
        <ele>239.15407542448</ele>
        <time>2016-07-03T11:37:57Z</time>
      </trkpt>
      <trkpt lat="49.07709" lon="7.6733">
        <ele>240.08906202838</ele>
        <time>2016-07-03T11:38:03Z</time>
      </trkpt>
      <trkpt lat="49.07704" lon="7.6733">
        <ele>241.29687824631</ele>
        <time>2016-07-03T11:38:07Z</time>
      </trkpt>
      <trkpt lat="49.07698" lon="7.67326">
        <ele>242.23094397573</ele>
        <time>2016-07-03T11:38:11Z</time>
      </trkpt>
      <trkpt lat="49.07694" lon="7.67327">
        <ele>242.77673037271</ele>
        <time>2016-07-03T11:38:16Z</time>
      </trkpt>
      <trkpt lat="49.0769" lon="7.67324">
        <ele>243.13099663836</ele>
        <time>2016-07-03T11:38:20Z</time>
      </trkpt>
      <trkpt lat="49.07683" lon="7.67317">
        <ele>243.76037472548</ele>
        <time>2016-07-03T11:38:25Z</time>
      </trkpt>
      <trkpt lat="49.0768" lon="7.67315">
        <ele>243.76831124872</ele>
        <time>2016-07-03T11:38:29Z</time>
      </trkpt>
      <trkpt lat="49.07676" lon="7.67312">
        <ele>244.49188387096</ele>
        <time>2016-07-03T11:38:35Z</time>
      </trkpt>
      <trkpt lat="49.07672" lon="7.6731">
        <ele>242.13918182648</ele>
        <time>2016-07-03T11:38:48Z</time>
      </trkpt>
      <trkpt lat="49.07668" lon="7.6731">
        <ele>239.76039696808</ele>
        <time>2016-07-03T11:38:53Z</time>
      </trkpt>
      <trkpt lat="49.07665" lon="7.67308">
        <ele>238.13860746154</ele>
        <time>2016-07-03T11:38:57Z</time>
      </trkpt>
      <trkpt lat="49.0766" lon="7.67306">
        <ele>236.64827812917</ele>
        <time>2016-07-03T11:39:02Z</time>
      </trkpt>
      <trkpt lat="49.07657" lon="7.67303">
        <ele>236.10639195488</ele>
        <time>2016-07-03T11:39:06Z</time>
      </trkpt>
      <trkpt lat="49.07654" lon="7.67299">
        <ele>235.02513952302</ele>
        <time>2016-07-03T11:39:11Z</time>
      </trkpt>
      <trkpt lat="49.0765" lon="7.67296">
        <ele>234.63802301062</ele>
        <time>2016-07-03T11:39:16Z</time>
      </trkpt>
      <trkpt lat="49.07646" lon="7.67294">
        <ele>234.43535701104</ele>
        <time>2016-07-03T11:39:25Z</time>
      </trkpt>
      <trkpt lat="49.07642" lon="7.67291">
        <ele>234.80248529165</ele>
        <time>2016-07-03T11:39:30Z</time>
      </trkpt>
      <trkpt lat="49.07633" lon="7.67287">
        <ele>234.94995806578</ele>
        <time>2016-07-03T11:39:35Z</time>
      </trkpt>
      <trkpt lat="49.0763" lon="7.67284">
        <ele>235.42859633275</ele>
        <time>2016-07-03T11:39:40Z</time>
      </trkpt>
      <trkpt lat="49.07626" lon="7.67283">
        <ele>236.50940527338</ele>
        <time>2016-07-03T11:41:42Z</time>
      </trkpt>
      <trkpt lat="49.07623" lon="7.67283">
        <ele>237.0783966015</ele>
        <time>2016-07-03T11:41:48Z</time>
      </trkpt>
      <trkpt lat="49.07618" lon="7.67277">
        <ele>237.23988011259</ele>
        <time>2016-07-03T11:41:52Z</time>
      </trkpt>
      <trkpt lat="49.07614" lon="7.67277">
        <ele>237.44808861926</ele>
        <time>2016-07-03T11:41:56Z</time>
      </trkpt>
      <trkpt lat="49.0761" lon="7.67277">
        <ele>237.58720997505</ele>
        <time>2016-07-03T11:42:00Z</time>
      </trkpt>
      <trkpt lat="49.07607" lon="7.67273">
        <ele>237.497748482</ele>
        <time>2016-07-03T11:42:04Z</time>
      </trkpt>
      <trkpt lat="49.07603" lon="7.67272">
        <ele>238.53527796322</ele>
        <time>2016-07-03T11:42:31Z</time>
      </trkpt>
      <trkpt lat="49.07599" lon="7.67272">
        <ele>238.6738189785</ele>
        <time>2016-07-03T11:42:36Z</time>
      </trkpt>
      <trkpt lat="49.07594" lon="7.67271">
        <ele>238.70865236307</ele>
        <time>2016-07-03T11:42:43Z</time>
      </trkpt>
      <trkpt lat="49.07591" lon="7.67269">
        <ele>238.61901000075</ele>
        <time>2016-07-03T11:42:51Z</time>
      </trkpt>
      <trkpt lat="49.07586" lon="7.67269">
        <ele>238.12573463391</ele>
        <time>2016-07-03T11:42:56Z</time>
      </trkpt>
      <trkpt lat="49.07583" lon="7.67267">
        <ele>237.96195090435</ele>
        <time>2016-07-03T11:43:03Z</time>
      </trkpt>
      <trkpt lat="49.07579" lon="7.67263">
        <ele>238.1691905262</ele>
        <time>2016-07-03T11:43:07Z</time>
      </trkpt>
      <trkpt lat="49.07576" lon="7.67261">
        <ele>238.36248065154</ele>
        <time>2016-07-03T11:43:11Z</time>
      </trkpt>
      <trkpt lat="49.07569" lon="7.67259">
        <ele>238.3249484659</ele>
        <time>2016-07-03T11:43:15Z</time>
      </trkpt>
      <trkpt lat="49.07565" lon="7.67257">
        <ele>238.13326107331</ele>
        <time>2016-07-03T11:43:20Z</time>
      </trkpt>
      <trkpt lat="49.07561" lon="7.67255">
        <ele>238.00791748162</ele>
        <time>2016-07-03T11:43:33Z</time>
      </trkpt>
      <trkpt lat="49.07557" lon="7.67254">
        <ele>237.62637879036</ele>
        <time>2016-07-03T11:43:39Z</time>
      </trkpt>
      <trkpt lat="49.07553" lon="7.67251">
        <ele>237.8300377035</ele>
        <time>2016-07-03T11:43:44Z</time>
      </trkpt>
      <trkpt lat="49.0755" lon="7.67247">
        <ele>238.86218248745</ele>
        <time>2016-07-03T11:43:52Z</time>
      </trkpt>
      <trkpt lat="49.07547" lon="7.67245">
        <ele>238.94914175836</ele>
        <time>2016-07-03T11:43:59Z</time>
      </trkpt>
      <trkpt lat="49.07544" lon="7.67241">
        <ele>238.79197633342</ele>
        <time>2016-07-03T11:44:06Z</time>
      </trkpt>
      <trkpt lat="49.0754" lon="7.67237">
        <ele>238.67879893492</ele>
        <time>2016-07-03T11:44:12Z</time>
      </trkpt>
      <trkpt lat="49.07537" lon="7.67236">
        <ele>238.34248102137</ele>
        <time>2016-07-03T11:44:24Z</time>
      </trkpt>
      <trkpt lat="49.07534" lon="7.67234">
        <ele>238.51476703194</ele>
        <time>2016-07-03T11:44:29Z</time>
      </trkpt>
      <trkpt lat="49.0753" lon="7.67231">
        <ele>237.54959910018</ele>
        <time>2016-07-03T11:44:45Z</time>
      </trkpt>
      <trkpt lat="49.0753" lon="7.67224">
        <ele>237.1710082299</ele>
        <time>2016-07-03T11:45:15Z</time>
      </trkpt>
      <trkpt lat="49.07532" lon="7.67218">
        <ele>237.13275518544</ele>
        <time>2016-07-03T11:45:19Z</time>
      </trkpt>
      <trkpt lat="49.07532" lon="7.67213">
        <ele>237.60337435339</ele>
        <time>2016-07-03T11:45:24Z</time>
      </trkpt>
      <trkpt lat="49.07534" lon="7.67204">
        <ele>238.51567014302</ele>
        <time>2016-07-03T11:45:28Z</time>
      </trkpt>
      <trkpt lat="49.07534" lon="7.67193">
        <ele>239.86445436073</ele>
        <time>2016-07-03T11:45:33Z</time>
      </trkpt>
      <trkpt lat="49.07534" lon="7.67188">
        <ele>240.59103244101</ele>
        <time>2016-07-03T11:45:38Z</time>
      </trkpt>
      <trkpt lat="49.07535" lon="7.67182">
        <ele>241.14199075478</ele>
        <time>2016-07-03T11:45:46Z</time>
      </trkpt>
      <trkpt lat="49.07537" lon="7.67175">
        <ele>241.31438007955</ele>
        <time>2016-07-03T11:45:50Z</time>
      </trkpt>
      <trkpt lat="49.07537" lon="7.67165">
        <ele>241.95598855876</ele>
        <time>2016-07-03T11:45:54Z</time>
      </trkpt>
      <trkpt lat="49.07537" lon="7.67156">
        <ele>242.79337381478</ele>
        <time>2016-07-03T11:45:59Z</time>
      </trkpt>
      <trkpt lat="49.07539" lon="7.67149">
        <ele>243.39459893754</ele>
        <time>2016-07-03T11:46:03Z</time>
      </trkpt>
      <trkpt lat="49.0754" lon="7.67143">
        <ele>243.84892911749</ele>
        <time>2016-07-03T11:46:10Z</time>
      </trkpt>
      <trkpt lat="49.07541" lon="7.67138">
        <ele>243.55529697128</ele>
        <time>2016-07-03T11:46:15Z</time>
      </trkpt>
      <trkpt lat="49.07543" lon="7.67131">
        <ele>242.49628838094</ele>
        <time>2016-07-03T11:46:26Z</time>
      </trkpt>
      <trkpt lat="49.07544" lon="7.67125">
        <ele>241.90339657522</ele>
        <time>2016-07-03T11:46:35Z</time>
      </trkpt>
      <trkpt lat="49.07546" lon="7.67118">
        <ele>241.58898431122</ele>
        <time>2016-07-03T11:46:40Z</time>
      </trkpt>
      <trkpt lat="49.07548" lon="7.67113">
        <ele>240.93926192082</ele>
        <time>2016-07-03T11:46:46Z</time>
      </trkpt>
      <trkpt lat="49.07551" lon="7.67112">
        <ele>240.43678866859</ele>
        <time>2016-07-03T11:46:57Z</time>
      </trkpt>
      <trkpt lat="49.07555" lon="7.67113">
        <ele>239.89765215245</ele>
        <time>2016-07-03T11:47:03Z</time>
      </trkpt>
      <trkpt lat="49.07558" lon="7.6711">
        <ele>239.11857561132</ele>
        <time>2016-07-03T11:47:07Z</time>
      </trkpt>
      <trkpt lat="49.07565" lon="7.67103">
        <ele>238.28620231211</ele>
        <time>2016-07-03T11:47:11Z</time>
      </trkpt>
      <trkpt lat="49.07569" lon="7.67097">
        <ele>237.93166544473</ele>
        <time>2016-07-03T11:47:16Z</time>
      </trkpt>
      <trkpt lat="49.0757" lon="7.67091">
        <ele>238.57181710998</ele>
        <time>2016-07-03T11:48:03Z</time>
      </trkpt>
      <trkpt lat="49.07573" lon="7.67087">
        <ele>238.06521704412</ele>
        <time>2016-07-03T11:48:12Z</time>
      </trkpt>
      <trkpt lat="49.07575" lon="7.67082">
        <ele>236.56426765789</ele>
        <time>2016-07-03T11:48:31Z</time>
      </trkpt>
      <trkpt lat="49.07577" lon="7.67077">
        <ele>236.56760939878</ele>
        <time>2016-07-03T11:48:41Z</time>
      </trkpt>
      <trkpt lat="49.07582" lon="7.67076">
        <ele>236.58777778537</ele>
        <time>2016-07-03T11:48:51Z</time>
      </trkpt>
      <trkpt lat="49.07584" lon="7.67071">
        <ele>236.35793235985</ele>
        <time>2016-07-03T11:49:05Z</time>
      </trkpt>
      <trkpt lat="49.07585" lon="7.67065">
        <ele>236.90778445275</ele>
        <time>2016-07-03T11:49:22Z</time>
      </trkpt>
      <trkpt lat="49.07588" lon="7.67061">
        <ele>237.24114788537</ele>
        <time>2016-07-03T11:49:28Z</time>
      </trkpt>
      <trkpt lat="49.07592" lon="7.67057">
        <ele>237.07958304007</ele>
        <time>2016-07-03T11:49:33Z</time>
      </trkpt>
      <trkpt lat="49.07596" lon="7.67055">
        <ele>235.33426043972</ele>
        <time>2016-07-03T11:49:47Z</time>
      </trkpt>
      <trkpt lat="49.076" lon="7.67052">
        <ele>235.08156315392</ele>
        <time>2016-07-03T11:49:52Z</time>
      </trkpt>
      <trkpt lat="49.07604" lon="7.67049">
        <ele>235.03316262829</ele>
        <time>2016-07-03T11:49:56Z</time>
      </trkpt>
      <trkpt lat="49.07608" lon="7.67045">
        <ele>235.00893424633</ele>
        <time>2016-07-03T11:50:01Z</time>
      </trkpt>
      <trkpt lat="49.07611" lon="7.67042">
        <ele>235.06435637625</ele>
        <time>2016-07-03T11:50:06Z</time>
      </trkpt>
      <trkpt lat="49.07615" lon="7.67038">
        <ele>235.23902540463</ele>
        <time>2016-07-03T11:50:10Z</time>
      </trkpt>
      <trkpt lat="49.07617" lon="7.67034">
        <ele>234.41956674882</ele>
        <time>2016-07-03T11:50:21Z</time>
      </trkpt>
      <trkpt lat="49.07621" lon="7.67031">
        <ele>234.08130006787</ele>
        <time>2016-07-03T11:50:26Z</time>
      </trkpt>
      <trkpt lat="49.07624" lon="7.67025">
        <ele>233.64500768208</ele>
        <time>2016-07-03T11:51:00Z</time>
      </trkpt>
      <trkpt lat="49.07627" lon="7.67022">
        <ele>234.02084322009</ele>
        <time>2016-07-03T11:51:04Z</time>
      </trkpt>
      <trkpt lat="49.07631" lon="7.67018">
        <ele>233.93634504713</ele>
        <time>2016-07-03T11:51:09Z</time>
      </trkpt>
      <trkpt lat="49.07635" lon="7.67016">
        <ele>233.38505303067</ele>
        <time>2016-07-03T11:51:25Z</time>
      </trkpt>
      <trkpt lat="49.07636" lon="7.6701">
        <ele>231.55585360393</ele>
        <time>2016-07-03T11:51:43Z</time>
      </trkpt>
      <trkpt lat="49.07636" lon="7.67004">
        <ele>231.30855364858</ele>
        <time>2016-07-03T11:51:48Z</time>
      </trkpt>
      <trkpt lat="49.07638" lon="7.66996">
        <ele>231.16154038085</ele>
        <time>2016-07-03T11:51:52Z</time>
      </trkpt>
      <trkpt lat="49.07639" lon="7.66988">
        <ele>231.32277626463</ele>
        <time>2016-07-03T11:51:56Z</time>
      </trkpt>
      <trkpt lat="49.07643" lon="7.66981">
        <ele>231.77245014642</ele>
        <time>2016-07-03T11:52:00Z</time>
      </trkpt>
      <trkpt lat="49.07645" lon="7.66976">
        <ele>232.23428062025</ele>
        <time>2016-07-03T11:52:05Z</time>
      </trkpt>
      <trkpt lat="49.07646" lon="7.66969">
        <ele>232.51901446028</ele>
        <time>2016-07-03T11:52:09Z</time>
      </trkpt>
      <trkpt lat="49.07645" lon="7.66963">
        <ele>233.54748613968</ele>
        <time>2016-07-03T11:52:20Z</time>
      </trkpt>
      <trkpt lat="49.07645" lon="7.66958">
        <ele>233.63617585223</ele>
        <time>2016-07-03T11:52:25Z</time>
      </trkpt>
      <trkpt lat="49.07642" lon="7.66954">
        <ele>234.4308948176</ele>
        <time>2016-07-03T11:52:29Z</time>
      </trkpt>
      <trkpt lat="49.07635" lon="7.66953">
        <ele>235.32174570242</ele>
        <time>2016-07-03T11:52:34Z</time>
      </trkpt>
      <trkpt lat="49.07632" lon="7.66949">
        <ele>235.37449788856</ele>
        <time>2016-07-03T11:52:42Z</time>
      </trkpt>
      <trkpt lat="49.0763" lon="7.66944">
        <ele>235.32094559291</ele>
        <time>2016-07-03T11:52:50Z</time>
      </trkpt>
      <trkpt lat="49.07627" lon="7.66939">
        <ele>235.09339355964</ele>
        <time>2016-07-03T11:52:56Z</time>
      </trkpt>
      <trkpt lat="49.07623" lon="7.66938">
        <ele>235.09710644799</ele>
        <time>2016-07-03T11:53:11Z</time>
      </trkpt>
      <trkpt lat="49.07623" lon="7.66937">
        <ele>230.82592161633</ele>
        <time>2016-07-03T11:54:13Z</time>
      </trkpt>
      <trkpt lat="49.0762" lon="7.66927">
        <ele>231.10464378099</ele>
        <time>2016-07-03T11:54:17Z</time>
      </trkpt>
      <trkpt lat="49.07617" lon="7.66923">
        <ele>231.78165497389</ele>
        <time>2016-07-03T11:55:00Z</time>
      </trkpt>
      <trkpt lat="49.07616" lon="7.66917">
        <ele>231.87526400156</ele>
        <time>2016-07-03T11:55:11Z</time>
      </trkpt>
      <trkpt lat="49.07615" lon="7.66911">
        <ele>231.62143260141</ele>
        <time>2016-07-03T11:55:27Z</time>
      </trkpt>
      <trkpt lat="49.07615" lon="7.66905">
        <ele>231.33542057476</ele>
        <time>2016-07-03T11:55:33Z</time>
      </trkpt>
      <trkpt lat="49.07617" lon="7.66895">
        <ele>231.11453465838</ele>
        <time>2016-07-03T11:55:38Z</time>
      </trkpt>
      <trkpt lat="49.07618" lon="7.66887">
        <ele>230.95658664288</ele>
        <time>2016-07-03T11:55:42Z</time>
      </trkpt>
      <trkpt lat="49.07622" lon="7.66881">
        <ele>230.59389023348</ele>
        <time>2016-07-03T11:55:46Z</time>
      </trkpt>
      <trkpt lat="49.07624" lon="7.66877">
        <ele>230.89538216844</ele>
        <time>2016-07-03T11:55:50Z</time>
      </trkpt>
      <trkpt lat="49.07627" lon="7.66868">
        <ele>231.13685434129</ele>
        <time>2016-07-03T11:55:54Z</time>
      </trkpt>
      <trkpt lat="49.07629" lon="7.66864">
        <ele>231.54948538312</ele>
        <time>2016-07-03T11:56:01Z</time>
      </trkpt>
      <trkpt lat="49.07631" lon="7.66857">
        <ele>232.0079813888</ele>
        <time>2016-07-03T11:56:06Z</time>
      </trkpt>
      <trkpt lat="49.07629" lon="7.66851">
        <ele>232.39668236239</ele>
        <time>2016-07-03T11:56:19Z</time>
      </trkpt>
      <trkpt lat="49.07628" lon="7.66845">
        <ele>233.18344953864</ele>
        <time>2016-07-03T11:56:28Z</time>
      </trkpt>
      <trkpt lat="49.07629" lon="7.66839">
        <ele>233.11136163078</ele>
        <time>2016-07-03T11:56:32Z</time>
      </trkpt>
      <trkpt lat="49.0763" lon="7.66833">
        <ele>232.45809207976</ele>
        <time>2016-07-03T11:56:44Z</time>
      </trkpt>
      <trkpt lat="49.07632" lon="7.66826">
        <ele>233.40513994907</ele>
        <time>2016-07-03T11:56:55Z</time>
      </trkpt>
      <trkpt lat="49.07632" lon="7.66821">
        <ele>233.87131025189</ele>
        <time>2016-07-03T11:57:00Z</time>
      </trkpt>
      <trkpt lat="49.07632" lon="7.66814">
        <ele>234.09302253944</ele>
        <time>2016-07-03T11:57:04Z</time>
      </trkpt>
      <trkpt lat="49.0763" lon="7.66805">
        <ele>234.10982910735</ele>
        <time>2016-07-03T11:57:08Z</time>
      </trkpt>
      <trkpt lat="49.07627" lon="7.668">
        <ele>233.70958074615</ele>
        <time>2016-07-03T11:57:19Z</time>
      </trkpt>
      <trkpt lat="49.07622" lon="7.66798">
        <ele>233.4599370779</ele>
        <time>2016-07-03T11:57:24Z</time>
      </trkpt>
      <trkpt lat="49.0762" lon="7.66794">
        <ele>232.91609110686</ele>
        <time>2016-07-03T11:58:12Z</time>
      </trkpt>
      <trkpt lat="49.07618" lon="7.66788">
        <ele>231.36055260987</ele>
        <time>2016-07-03T11:58:35Z</time>
      </trkpt>
      <trkpt lat="49.07616" lon="7.66779">
        <ele>231.12167763893</ele>
        <time>2016-07-03T11:58:39Z</time>
      </trkpt>
      <trkpt lat="49.07615" lon="7.66786">
        <ele>231.56427042787</ele>
        <time>2016-07-03T11:59:08Z</time>
      </trkpt>
      <trkpt lat="49.07619" lon="7.66789">
        <ele>232.35486839461</ele>
        <time>2016-07-03T11:59:40Z</time>
      </trkpt>
      <trkpt lat="49.07623" lon="7.66787">
        <ele>230.51933633777</ele>
        <time>2016-07-03T12:00:03Z</time>
      </trkpt>
      <trkpt lat="49.0762" lon="7.66781">
        <ele>230.96110396533</ele>
        <time>2016-07-03T12:02:18Z</time>
      </trkpt>
      <trkpt lat="49.07618" lon="7.66777">
        <ele>231.36843166368</ele>
        <time>2016-07-03T12:03:10Z</time>
      </trkpt>
      <trkpt lat="49.07615" lon="7.66772">
        <ele>232.63137751864</ele>
        <time>2016-07-03T12:05:22Z</time>
      </trkpt>
      <trkpt lat="49.07611" lon="7.66766">
        <ele>232.41093925126</ele>
        <time>2016-07-03T12:05:26Z</time>
      </trkpt>
      <trkpt lat="49.07606" lon="7.66759">
        <ele>232.37819322976</ele>
        <time>2016-07-03T12:05:30Z</time>
      </trkpt>
      <trkpt lat="49.07604" lon="7.66756">
        <ele>232.52414318287</ele>
        <time>2016-07-03T12:05:36Z</time>
      </trkpt>
      <trkpt lat="49.07599" lon="7.6675">
        <ele>232.49013241157</ele>
        <time>2016-07-03T12:05:40Z</time>
      </trkpt>
      <trkpt lat="49.07595" lon="7.66746">
        <ele>232.39501380368</ele>
        <time>2016-07-03T12:05:51Z</time>
      </trkpt>
      <trkpt lat="49.07592" lon="7.66741">
        <ele>232.42628431521</ele>
        <time>2016-07-03T12:05:55Z</time>
      </trkpt>
      <trkpt lat="49.0759" lon="7.66737">
        <ele>232.43704321969</ele>
        <time>2016-07-03T12:05:59Z</time>
      </trkpt>
      <trkpt lat="49.07589" lon="7.66731">
        <ele>232.4460484762</ele>
        <time>2016-07-03T12:06:05Z</time>
      </trkpt>
      <trkpt lat="49.07587" lon="7.66725">
        <ele>232.60180821146</ele>
        <time>2016-07-03T12:06:17Z</time>
      </trkpt>
      <trkpt lat="49.07585" lon="7.66721">
        <ele>232.75983517173</ele>
        <time>2016-07-03T12:06:26Z</time>
      </trkpt>
      <trkpt lat="49.07585" lon="7.66717">
        <ele>234.27812674953</ele>
        <time>2016-07-03T12:06:39Z</time>
      </trkpt>
      <trkpt lat="49.07585" lon="7.6671">
        <ele>234.49488966584</ele>
        <time>2016-07-03T12:06:46Z</time>
      </trkpt>
      <trkpt lat="49.07588" lon="7.66705">
        <ele>234.2240841582</ele>
        <time>2016-07-03T12:06:55Z</time>
      </trkpt>
      <trkpt lat="49.07589" lon="7.66696">
        <ele>234.53461512919</ele>
        <time>2016-07-03T12:06:59Z</time>
      </trkpt>
      <trkpt lat="49.07591" lon="7.66684">
        <ele>234.94169583823</ele>
        <time>2016-07-03T12:07:04Z</time>
      </trkpt>
      <trkpt lat="49.07597" lon="7.66669">
        <ele>235.62412124443</ele>
        <time>2016-07-03T12:07:09Z</time>
      </trkpt>
      <trkpt lat="49.076" lon="7.66663">
        <ele>236.35880535536</ele>
        <time>2016-07-03T12:07:14Z</time>
      </trkpt>
      <trkpt lat="49.07602" lon="7.66657">
        <ele>236.90596926689</ele>
        <time>2016-07-03T12:07:18Z</time>
      </trkpt>
      <trkpt lat="49.07604" lon="7.66663">
        <ele>237.85475023444</ele>
        <time>2016-07-03T12:07:42Z</time>
      </trkpt>
      <trkpt lat="49.07607" lon="7.66668">
        <ele>237.89287079374</ele>
        <time>2016-07-03T12:07:47Z</time>
      </trkpt>
      <trkpt lat="49.07611" lon="7.66677">
        <ele>238.01445849236</ele>
        <time>2016-07-03T12:07:52Z</time>
      </trkpt>
      <trkpt lat="49.07613" lon="7.66683">
        <ele>238.27779177605</ele>
        <time>2016-07-03T12:07:58Z</time>
      </trkpt>
      <trkpt lat="49.07616" lon="7.66688">
        <ele>238.22378319853</ele>
        <time>2016-07-03T12:08:03Z</time>
      </trkpt>
      <trkpt lat="49.07619" lon="7.66693">
        <ele>238.48161073939</ele>
        <time>2016-07-03T12:08:07Z</time>
      </trkpt>
      <trkpt lat="49.07622" lon="7.667">
        <ele>238.63430952177</ele>
        <time>2016-07-03T12:08:12Z</time>
      </trkpt>
      <trkpt lat="49.07625" lon="7.66703">
        <ele>238.47851996725</ele>
        <time>2016-07-03T12:08:16Z</time>
      </trkpt>
      <trkpt lat="49.07628" lon="7.66708">
        <ele>238.40895982926</ele>
        <time>2016-07-03T12:08:21Z</time>
      </trkpt>
      <trkpt lat="49.07632" lon="7.66712">
        <ele>238.50313858856</ele>
        <time>2016-07-03T12:08:25Z</time>
      </trkpt>
      <trkpt lat="49.07635" lon="7.66717">
        <ele>238.36871133461</ele>
        <time>2016-07-03T12:08:30Z</time>
      </trkpt>
      <trkpt lat="49.07638" lon="7.6672">
        <ele>238.3656187118</ele>
        <time>2016-07-03T12:08:37Z</time>
      </trkpt>
      <trkpt lat="49.07638" lon="7.66714">
        <ele>234.7592829647</ele>
        <time>2016-07-03T12:09:25Z</time>
      </trkpt>
      <trkpt lat="49.07642" lon="7.66716">
        <ele>233.59496524359</ele>
        <time>2016-07-03T12:09:42Z</time>
      </trkpt>
      <trkpt lat="49.07645" lon="7.66719">
        <ele>233.24576122326</ele>
        <time>2016-07-03T12:09:49Z</time>
      </trkpt>
      <trkpt lat="49.07648" lon="7.66723">
        <ele>233.57687555984</ele>
        <time>2016-07-03T12:10:02Z</time>
      </trkpt>
      <trkpt lat="49.07652" lon="7.66726">
        <ele>233.68856117508</ele>
        <time>2016-07-03T12:10:09Z</time>
      </trkpt>
      <trkpt lat="49.07656" lon="7.66728">
        <ele>233.4807446848</ele>
        <time>2016-07-03T12:10:18Z</time>
      </trkpt>
      <trkpt lat="49.07659" lon="7.66731">
        <ele>233.47728095379</ele>
        <time>2016-07-03T12:10:31Z</time>
      </trkpt>
      <trkpt lat="49.0766" lon="7.66738">
        <ele>233.40939778189</ele>
        <time>2016-07-03T12:11:02Z</time>
      </trkpt>
      <trkpt lat="49.07658" lon="7.66732">
        <ele>230.10498667027</ele>
        <time>2016-07-03T12:11:31Z</time>
      </trkpt>
      <trkpt lat="49.07658" lon="7.66738">
        <ele>229.34222532665</ele>
        <time>2016-07-03T12:11:49Z</time>
      </trkpt>
      <trkpt lat="49.07659" lon="7.66744">
        <ele>231.57569377075</ele>
        <time>2016-07-03T12:14:02Z</time>
      </trkpt>
      <trkpt lat="49.07662" lon="7.6675">
        <ele>231.66463709298</ele>
        <time>2016-07-03T12:14:06Z</time>
      </trkpt>
      <trkpt lat="49.07665" lon="7.66757">
        <ele>232.02306082831</ele>
        <time>2016-07-03T12:14:10Z</time>
      </trkpt>
      <trkpt lat="49.07664" lon="7.66764">
        <ele>232.72974510158</ele>
        <time>2016-07-03T12:14:21Z</time>
      </trkpt>
      <trkpt lat="49.0766" lon="7.6677">
        <ele>232.89497796082</ele>
        <time>2016-07-03T12:14:26Z</time>
      </trkpt>
      <trkpt lat="49.07658" lon="7.66774">
        <ele>232.90382585279</ele>
        <time>2016-07-03T12:14:33Z</time>
      </trkpt>
      <trkpt lat="49.07655" lon="7.66779">
        <ele>232.67203039997</ele>
        <time>2016-07-03T12:14:39Z</time>
      </trkpt>
      <trkpt lat="49.07652" lon="7.66784">
        <ele>231.91194477655</ele>
        <time>2016-07-03T12:14:56Z</time>
      </trkpt>
      <trkpt lat="49.07652" lon="7.6679">
        <ele>232.1970702315</ele>
        <time>2016-07-03T12:15:04Z</time>
      </trkpt>
      <trkpt lat="49.07651" lon="7.66796">
        <ele>233.23401697335</ele>
        <time>2016-07-03T12:15:21Z</time>
      </trkpt>
      <trkpt lat="49.07649" lon="7.66802">
        <ele>233.30070250851</ele>
        <time>2016-07-03T12:15:25Z</time>
      </trkpt>
      <trkpt lat="49.07645" lon="7.66806">
        <ele>233.1915492124</ele>
        <time>2016-07-03T12:15:29Z</time>
      </trkpt>
      <trkpt lat="49.07642" lon="7.66811">
        <ele>233.13764472051</ele>
        <time>2016-07-03T12:15:34Z</time>
      </trkpt>
      <trkpt lat="49.07638" lon="7.66814">
        <ele>232.58527566207</ele>
        <time>2016-07-03T12:15:45Z</time>
      </trkpt>
      <trkpt lat="49.07636" lon="7.66819">
        <ele>231.69660078233</ele>
        <time>2016-07-03T12:16:02Z</time>
      </trkpt>
      <trkpt lat="49.07632" lon="7.66821">
        <ele>231.63946828909</ele>
        <time>2016-07-03T12:16:08Z</time>
      </trkpt>
      <trkpt lat="49.07628" lon="7.66824">
        <ele>231.70899786716</ele>
        <time>2016-07-03T12:16:15Z</time>
      </trkpt>
      <trkpt lat="49.07629" lon="7.6683">
        <ele>232.40596194671</ele>
        <time>2016-07-03T12:16:27Z</time>
      </trkpt>
      <trkpt lat="49.07631" lon="7.66836">
        <ele>232.65197791033</ele>
        <time>2016-07-03T12:16:32Z</time>
      </trkpt>
      <trkpt lat="49.07631" lon="7.66842">
        <ele>232.95400072498</ele>
        <time>2016-07-03T12:16:38Z</time>
      </trkpt>
      <trkpt lat="49.0763" lon="7.66851">
        <ele>233.32674472139</ele>
        <time>2016-07-03T12:16:43Z</time>
      </trkpt>
      <trkpt lat="49.0763" lon="7.6686">
        <ele>233.86342748696</ele>
        <time>2016-07-03T12:16:47Z</time>
      </trkpt>
      <trkpt lat="49.07631" lon="7.66868">
        <ele>234.1713717226</ele>
        <time>2016-07-03T12:16:52Z</time>
      </trkpt>
      <trkpt lat="49.07633" lon="7.66873">
        <ele>234.66213555426</ele>
        <time>2016-07-03T12:16:58Z</time>
      </trkpt>
      <trkpt lat="49.07635" lon="7.66879">
        <ele>235.1954113224</ele>
        <time>2016-07-03T12:17:03Z</time>
      </trkpt>
      <trkpt lat="49.07639" lon="7.66881">
        <ele>235.94755935237</ele>
        <time>2016-07-03T12:17:10Z</time>
      </trkpt>
      <trkpt lat="49.07643" lon="7.66877">
        <ele>236.69230149515</ele>
        <time>2016-07-03T12:17:34Z</time>
      </trkpt>
      <trkpt lat="49.07643" lon="7.66883">
        <ele>235.0564378181</ele>
        <time>2016-07-03T12:18:08Z</time>
      </trkpt>
      <trkpt lat="49.07644" lon="7.66889">
        <ele>235.11570944075</ele>
        <time>2016-07-03T12:18:24Z</time>
      </trkpt>
      <trkpt lat="49.07647" lon="7.66895">
        <ele>234.38981298812</ele>
        <time>2016-07-03T12:18:55Z</time>
      </trkpt>
      <trkpt lat="49.07648" lon="7.66901">
        <ele>234.69765357446</ele>
        <time>2016-07-03T12:19:08Z</time>
      </trkpt>
      <trkpt lat="49.07651" lon="7.66906">
        <ele>235.25065672789</ele>
        <time>2016-07-03T12:19:25Z</time>
      </trkpt>
      <trkpt lat="49.0765" lon="7.66913">
        <ele>237.98409644087</ele>
        <time>2016-07-03T12:19:53Z</time>
      </trkpt>
      <trkpt lat="49.07652" lon="7.66917">
        <ele>239.09649682209</ele>
        <time>2016-07-03T12:19:57Z</time>
      </trkpt>
      <trkpt lat="49.07655" lon="7.66924">
        <ele>239.75850736661</ele>
        <time>2016-07-03T12:20:02Z</time>
      </trkpt>
      <trkpt lat="49.07658" lon="7.66929">
        <ele>240.07276651872</ele>
        <time>2016-07-03T12:20:06Z</time>
      </trkpt>
      <trkpt lat="49.07658" lon="7.66936">
        <ele>239.54509092424</ele>
        <time>2016-07-03T12:20:27Z</time>
      </trkpt>
      <trkpt lat="49.07659" lon="7.66942">
        <ele>239.25937732379</ele>
        <time>2016-07-03T12:20:34Z</time>
      </trkpt>
      <trkpt lat="49.07659" lon="7.66947">
        <ele>238.3014240845</ele>
        <time>2016-07-03T12:21:26Z</time>
      </trkpt>
      <trkpt lat="49.07662" lon="7.66955">
        <ele>238.30660340404</ele>
        <time>2016-07-03T12:21:31Z</time>
      </trkpt>
      <trkpt lat="49.07665" lon="7.66956">
        <ele>238.17098596316</ele>
        <time>2016-07-03T12:21:35Z</time>
      </trkpt>
      <trkpt lat="49.07668" lon="7.66958">
        <ele>238.08387809447</ele>
        <time>2016-07-03T12:21:39Z</time>
      </trkpt>
      <trkpt lat="49.0767" lon="7.66965">
        <ele>237.51414798102</ele>
        <time>2016-07-03T12:21:44Z</time>
      </trkpt>
      <trkpt lat="49.07674" lon="7.66972">
        <ele>237.46720267571</ele>
        <time>2016-07-03T12:21:48Z</time>
      </trkpt>
      <trkpt lat="49.07675" lon="7.66977">
        <ele>237.65212890749</ele>
        <time>2016-07-03T12:21:52Z</time>
      </trkpt>
      <trkpt lat="49.07677" lon="7.66983">
        <ele>237.76272314095</ele>
        <time>2016-07-03T12:21:56Z</time>
      </trkpt>
      <trkpt lat="49.0768" lon="7.66988">
        <ele>238.30357374729</ele>
        <time>2016-07-03T12:22:01Z</time>
      </trkpt>
      <trkpt lat="49.07683" lon="7.66996">
        <ele>238.69652748186</ele>
        <time>2016-07-03T12:22:06Z</time>
      </trkpt>
      <trkpt lat="49.07687" lon="7.67004">
        <ele>238.87916260596</ele>
        <time>2016-07-03T12:22:10Z</time>
      </trkpt>
      <trkpt lat="49.07689" lon="7.6701">
        <ele>238.85271334841</ele>
        <time>2016-07-03T12:22:18Z</time>
      </trkpt>
      <trkpt lat="49.07691" lon="7.67014">
        <ele>238.74264058</ele>
        <time>2016-07-03T12:22:23Z</time>
      </trkpt>
      <trkpt lat="49.07693" lon="7.67022">
        <ele>238.83269177923</ele>
        <time>2016-07-03T12:22:28Z</time>
      </trkpt>
      <trkpt lat="49.07694" lon="7.67027">
        <ele>238.73833404717</ele>
        <time>2016-07-03T12:22:33Z</time>
      </trkpt>
      <trkpt lat="49.07697" lon="7.67032">
        <ele>238.86887817258</ele>
        <time>2016-07-03T12:22:38Z</time>
      </trkpt>
      <trkpt lat="49.07699" lon="7.67038">
        <ele>238.99118317883</ele>
        <time>2016-07-03T12:22:43Z</time>
      </trkpt>
      <trkpt lat="49.077" lon="7.67044">
        <ele>239.01766674725</ele>
        <time>2016-07-03T12:22:48Z</time>
      </trkpt>
      <trkpt lat="49.07703" lon="7.67051">
        <ele>239.06959254286</ele>
        <time>2016-07-03T12:22:53Z</time>
      </trkpt>
      <trkpt lat="49.07706" lon="7.67055">
        <ele>239.07093829112</ele>
        <time>2016-07-03T12:22:58Z</time>
      </trkpt>
      <trkpt lat="49.07709" lon="7.67062">
        <ele>239.11809749988</ele>
        <time>2016-07-03T12:23:03Z</time>
      </trkpt>
      <trkpt lat="49.07711" lon="7.67067">
        <ele>239.35644697485</ele>
        <time>2016-07-03T12:23:08Z</time>
      </trkpt>
      <trkpt lat="49.07713" lon="7.67072">
        <ele>239.24286655136</ele>
        <time>2016-07-03T12:23:14Z</time>
      </trkpt>
      <trkpt lat="49.07715" lon="7.67078">
        <ele>239.50664329127</ele>
        <time>2016-07-03T12:23:19Z</time>
      </trkpt>
      <trkpt lat="49.07719" lon="7.67084">
        <ele>239.81696176511</ele>
        <time>2016-07-03T12:23:24Z</time>
      </trkpt>
      <trkpt lat="49.07721" lon="7.67089">
        <ele>239.7688357021</ele>
        <time>2016-07-03T12:23:30Z</time>
      </trkpt>
      <trkpt lat="49.07724" lon="7.67095">
        <ele>239.50451124556</ele>
        <time>2016-07-03T12:23:35Z</time>
      </trkpt>
      <trkpt lat="49.07726" lon="7.671">
        <ele>239.2728473103</ele>
        <time>2016-07-03T12:23:40Z</time>
      </trkpt>
      <trkpt lat="49.0773" lon="7.67105">
        <ele>239.38913444666</ele>
        <time>2016-07-03T12:23:45Z</time>
      </trkpt>
      <trkpt lat="49.07733" lon="7.67109">
        <ele>239.39925628351</ele>
        <time>2016-07-03T12:23:49Z</time>
      </trkpt>
      <trkpt lat="49.07736" lon="7.67115">
        <ele>239.43820610819</ele>
        <time>2016-07-03T12:23:54Z</time>
      </trkpt>
      <trkpt lat="49.0774" lon="7.67119">
        <ele>239.56501655821</ele>
        <time>2016-07-03T12:24:01Z</time>
      </trkpt>
      <trkpt lat="49.07744" lon="7.67116">
        <ele>239.09214246583</ele>
        <time>2016-07-03T12:24:13Z</time>
      </trkpt>
      <trkpt lat="49.0774" lon="7.67113">
        <ele>236.97815582219</ele>
        <time>2016-07-03T12:24:44Z</time>
      </trkpt>
      <trkpt lat="49.07743" lon="7.67117">
        <ele>236.03095070847</ele>
        <time>2016-07-03T12:25:29Z</time>
      </trkpt>
      <trkpt lat="49.07746" lon="7.67122">
        <ele>236.14575376006</ele>
        <time>2016-07-03T12:25:41Z</time>
      </trkpt>
      <trkpt lat="49.0775" lon="7.67125">
        <ele>235.9928245947</ele>
        <time>2016-07-03T12:25:51Z</time>
      </trkpt>
      <trkpt lat="49.07745" lon="7.67126">
        <ele>235.53176605329</ele>
        <time>2016-07-03T12:26:48Z</time>
      </trkpt>
      <trkpt lat="49.07741" lon="7.67126">
        <ele>234.88778233536</ele>
        <time>2016-07-03T12:27:11Z</time>
      </trkpt>
      <trkpt lat="49.07744" lon="7.6713">
        <ele>233.76475469261</ele>
        <time>2016-07-03T12:27:54Z</time>
      </trkpt>
      <trkpt lat="49.07746" lon="7.67135">
        <ele>233.94559249134</ele>
        <time>2016-07-03T12:27:59Z</time>
      </trkpt>
      <trkpt lat="49.07748" lon="7.67142">
        <ele>234.05385338038</ele>
        <time>2016-07-03T12:28:04Z</time>
      </trkpt>
      <trkpt lat="49.0775" lon="7.67148">
        <ele>234.2901503157</ele>
        <time>2016-07-03T12:28:08Z</time>
      </trkpt>
      <trkpt lat="49.07751" lon="7.67153">
        <ele>232.80183324518</ele>
        <time>2016-07-03T12:28:30Z</time>
      </trkpt>
      <trkpt lat="49.07752" lon="7.6716">
        <ele>232.99831123725</ele>
        <time>2016-07-03T12:28:35Z</time>
      </trkpt>
      <trkpt lat="49.07754" lon="7.67165">
        <ele>233.30920249762</ele>
        <time>2016-07-03T12:28:39Z</time>
      </trkpt>
      <trkpt lat="49.07754" lon="7.67171">
        <ele>233.71388830546</ele>
        <time>2016-07-03T12:28:44Z</time>
      </trkpt>
      <trkpt lat="49.07755" lon="7.67178">
        <ele>234.12857142025</ele>
        <time>2016-07-03T12:28:49Z</time>
      </trkpt>
      <trkpt lat="49.07757" lon="7.67185">
        <ele>234.38323328599</ele>
        <time>2016-07-03T12:28:54Z</time>
      </trkpt>
      <trkpt lat="49.07759" lon="7.67191">
        <ele>234.70900041093</ele>
        <time>2016-07-03T12:28:58Z</time>
      </trkpt>
      <trkpt lat="49.0776" lon="7.67201">
        <ele>234.92144392474</ele>
        <time>2016-07-03T12:29:02Z</time>
      </trkpt>
      <trkpt lat="49.07761" lon="7.67206">
        <ele>234.91727701461</ele>
        <time>2016-07-03T12:29:07Z</time>
      </trkpt>
      <trkpt lat="49.07761" lon="7.67213">
        <ele>235.01414310434</ele>
        <time>2016-07-03T12:29:23Z</time>
      </trkpt>
      <trkpt lat="49.07762" lon="7.67219">
        <ele>234.40500352557</ele>
        <time>2016-07-03T12:29:28Z</time>
      </trkpt>
      <trkpt lat="49.07762" lon="7.67225">
        <ele>233.93273752129</ele>
        <time>2016-07-03T12:29:33Z</time>
      </trkpt>
      <trkpt lat="49.07764" lon="7.67231">
        <ele>233.51991836974</ele>
        <time>2016-07-03T12:29:55Z</time>
      </trkpt>
      <trkpt lat="49.07766" lon="7.67237">
        <ele>233.68221997994</ele>
        <time>2016-07-03T12:30:04Z</time>
      </trkpt>
      <trkpt lat="49.07765" lon="7.67243">
        <ele>234.89782819027</ele>
        <time>2016-07-03T12:30:11Z</time>
      </trkpt>
      <trkpt lat="49.07767" lon="7.67249">
        <ele>236.3531421334</ele>
        <time>2016-07-03T12:30:24Z</time>
      </trkpt>
      <trkpt lat="49.07767" lon="7.67257">
        <ele>236.60450699221</ele>
        <time>2016-07-03T12:30:28Z</time>
      </trkpt>
      <trkpt lat="49.07766" lon="7.67263">
        <ele>236.40121974849</ele>
        <time>2016-07-03T12:30:32Z</time>
      </trkpt>
      <trkpt lat="49.07766" lon="7.6727">
        <ele>236.28283414932</ele>
        <time>2016-07-03T12:30:38Z</time>
      </trkpt>
      <trkpt lat="49.07766" lon="7.67276">
        <ele>236.35996062078</ele>
        <time>2016-07-03T12:30:43Z</time>
      </trkpt>
      <trkpt lat="49.07767" lon="7.67283">
        <ele>236.38690417793</ele>
        <time>2016-07-03T12:30:49Z</time>
      </trkpt>
      <trkpt lat="49.0777" lon="7.67288">
        <ele>236.43843959749</ele>
        <time>2016-07-03T12:30:56Z</time>
      </trkpt>
      <trkpt lat="49.07772" lon="7.67294">
        <ele>236.45120964801</ele>
        <time>2016-07-03T12:31:03Z</time>
      </trkpt>
      <trkpt lat="49.07771" lon="7.673">
        <ele>236.14396776699</ele>
        <time>2016-07-03T12:31:09Z</time>
      </trkpt>
      <trkpt lat="49.07771" lon="7.67307">
        <ele>236.27812583743</ele>
        <time>2016-07-03T12:31:17Z</time>
      </trkpt>
      <trkpt lat="49.07771" lon="7.67313">
        <ele>234.19893049374</ele>
        <time>2016-07-03T12:31:43Z</time>
      </trkpt>
      <trkpt lat="49.07771" lon="7.67307">
        <ele>236.03155977459</ele>
        <time>2016-07-03T12:32:16Z</time>
      </trkpt>
      <trkpt lat="49.07772" lon="7.67309">
        <ele>233.19743894051</ele>
        <time>2016-07-03T12:34:46Z</time>
      </trkpt>
      <trkpt lat="49.07772" lon="7.67309">
        <ele>233.19743894051</ele>
        <time>2016-07-03T12:34:46Z</time>
      </trkpt>
    </trkseg>
  </trk>
</gpx>